<?xml version="1.0" encoding="UTF-8" standalone="no" ?>
<gpx xmlns="http://www.topografix.com/GPX/1/1" xmlns:xsi="http://www.w3.org/2001/XMLSchema-instance" xsi:schemaLocation="http://www.topografix.com/GPX/1/1 http://www.topografix.com/GPX/1/1/gpx.xsd" version="1.1" creator="VisuGPX - https://www.visugpx.com">
  <metadata>
    <name>vencoise part II</name>
    <desc><![CDATA[vencoise partie II]]></desc>
  </metadata>
  <trk>
    <name><![CDATA[vencoise part I]]></name>
    <trkseg>
      <trkpt lat="43.63657" lon="6.85925">
        <ele>234</ele>
        <time>2012-05-03T00:00:00Z</time>
      </trkpt>
      <trkpt lat="43.63645" lon="6.85904">
        <ele>234</ele>
        <time>2012-05-03T00:00:03Z</time>
      </trkpt>
      <trkpt lat="43.6363" lon="6.85922">
        <ele>234</ele>
        <time>2012-05-03T00:00:06Z</time>
      </trkpt>
      <trkpt lat="43.63599" lon="6.85834">
        <ele>235</ele>
        <time>2012-05-03T00:00:19Z</time>
      </trkpt>
      <trkpt lat="43.63601" lon="6.85825">
        <ele>236</ele>
        <time>2012-05-03T00:00:20Z</time>
      </trkpt>
      <trkpt lat="43.63597" lon="6.85816">
        <ele>235</ele>
        <time>2012-05-03T00:00:21Z</time>
      </trkpt>
      <trkpt lat="43.63587" lon="6.85817">
        <ele>235</ele>
        <time>2012-05-03T00:00:22Z</time>
      </trkpt>
      <trkpt lat="43.63584" lon="6.85827">
        <ele>235</ele>
        <time>2012-05-03T00:00:23Z</time>
      </trkpt>
      <trkpt lat="43.63586" lon="6.85834">
        <ele>235</ele>
        <time>2012-05-03T00:00:24Z</time>
      </trkpt>
      <trkpt lat="43.63597" lon="6.85847">
        <ele>234</ele>
        <time>2012-05-03T00:00:26Z</time>
      </trkpt>
      <trkpt lat="43.6362" lon="6.85904">
        <ele>233</ele>
        <time>2012-05-03T00:00:32Z</time>
      </trkpt>
      <trkpt lat="43.6369" lon="6.86046">
        <ele>230</ele>
        <time>2012-05-03T00:00:49Z</time>
      </trkpt>
      <trkpt lat="43.6374" lon="6.8616">
        <ele>223</ele>
        <time>2012-05-03T00:01:02Z</time>
      </trkpt>
      <trkpt lat="43.63746" lon="6.86185">
        <ele>222</ele>
        <time>2012-05-03T00:01:04Z</time>
      </trkpt>
      <trkpt lat="43.63744" lon="6.86213">
        <ele>221</ele>
        <time>2012-05-03T00:01:07Z</time>
      </trkpt>
      <trkpt lat="43.63737" lon="6.86233">
        <ele>220</ele>
        <time>2012-05-03T00:01:09Z</time>
      </trkpt>
      <trkpt lat="43.63635" lon="6.86417">
        <ele>213</ele>
        <time>2012-05-03T00:01:32Z</time>
      </trkpt>
      <trkpt lat="43.63638" lon="6.86455">
        <ele>211</ele>
        <time>2012-05-03T00:01:35Z</time>
      </trkpt>
      <trkpt lat="43.63649" lon="6.86472">
        <ele>210</ele>
        <time>2012-05-03T00:01:38Z</time>
      </trkpt>
      <trkpt lat="43.63665" lon="6.86478">
        <ele>209</ele>
        <time>2012-05-03T00:01:40Z</time>
      </trkpt>
      <trkpt lat="43.63808" lon="6.86488">
        <ele>200</ele>
        <time>2012-05-03T00:01:59Z</time>
      </trkpt>
      <trkpt lat="43.63821" lon="6.86491">
        <ele>199</ele>
        <time>2012-05-03T00:02:01Z</time>
      </trkpt>
      <trkpt lat="43.63837" lon="6.86503">
        <ele>198</ele>
        <time>2012-05-03T00:02:03Z</time>
      </trkpt>
      <trkpt lat="43.63851" lon="6.8654">
        <ele>196</ele>
        <time>2012-05-03T00:02:07Z</time>
      </trkpt>
      <trkpt lat="43.63883" lon="6.86707">
        <ele>189</ele>
        <time>2012-05-03T00:02:24Z</time>
      </trkpt>
      <trkpt lat="43.63903" lon="6.86897">
        <ele>191</ele>
        <time>2012-05-03T00:02:47Z</time>
      </trkpt>
      <trkpt lat="43.63901" lon="6.8696">
        <ele>191</ele>
        <time>2012-05-03T00:02:55Z</time>
      </trkpt>
      <trkpt lat="43.6388" lon="6.87156">
        <ele>194</ele>
        <time>2012-05-03T00:03:20Z</time>
      </trkpt>
      <trkpt lat="43.63885" lon="6.87162">
        <ele>193</ele>
        <time>2012-05-03T00:03:20Z</time>
      </trkpt>
      <trkpt lat="43.6389" lon="6.87182">
        <ele>193</ele>
        <time>2012-05-03T00:03:23Z</time>
      </trkpt>
      <trkpt lat="43.639" lon="6.87271">
        <ele>191</ele>
        <time>2012-05-03T00:03:31Z</time>
      </trkpt>
      <trkpt lat="43.6389" lon="6.87492">
        <ele>187</ele>
        <time>2012-05-03T00:03:53Z</time>
      </trkpt>
      <trkpt lat="43.63894" lon="6.87548">
        <ele>186</ele>
        <time>2012-05-03T00:03:58Z</time>
      </trkpt>
      <trkpt lat="43.63908" lon="6.87603">
        <ele>186</ele>
        <time>2012-05-03T00:04:04Z</time>
      </trkpt>
      <trkpt lat="43.63925" lon="6.87638">
        <ele>186</ele>
        <time>2012-05-03T00:04:08Z</time>
      </trkpt>
      <trkpt lat="43.63944" lon="6.87663">
        <ele>186</ele>
        <time>2012-05-03T00:04:13Z</time>
      </trkpt>
      <trkpt lat="43.63972" lon="6.87689">
        <ele>187</ele>
        <time>2012-05-03T00:04:20Z</time>
      </trkpt>
      <trkpt lat="43.64031" lon="6.87729">
        <ele>190</ele>
        <time>2012-05-03T00:04:34Z</time>
      </trkpt>
      <trkpt lat="43.64064" lon="6.87767">
        <ele>189</ele>
        <time>2012-05-03T00:04:40Z</time>
      </trkpt>
      <trkpt lat="43.64261" lon="6.8805">
        <ele>187</ele>
        <time>2012-05-03T00:05:18Z</time>
      </trkpt>
      <trkpt lat="43.64353" lon="6.8824">
        <ele>186</ele>
        <time>2012-05-03T00:05:40Z</time>
      </trkpt>
      <trkpt lat="43.64382" lon="6.88312">
        <ele>186</ele>
        <time>2012-05-03T00:05:50Z</time>
      </trkpt>
      <trkpt lat="43.6438" lon="6.88328">
        <ele>187</ele>
        <time>2012-05-03T00:05:52Z</time>
      </trkpt>
      <trkpt lat="43.64388" lon="6.88336">
        <ele>187</ele>
        <time>2012-05-03T00:05:54Z</time>
      </trkpt>
      <trkpt lat="43.64394" lon="6.88334">
        <ele>187</ele>
        <time>2012-05-03T00:05:55Z</time>
      </trkpt>
      <trkpt lat="43.64416" lon="6.8837">
        <ele>188</ele>
        <time>2012-05-03T00:06:01Z</time>
      </trkpt>
      <trkpt lat="43.64564" lon="6.88681">
        <ele>210</ele>
        <time>2012-05-03T00:07:30Z</time>
      </trkpt>
      <trkpt lat="43.64578" lon="6.88728">
        <ele>210</ele>
        <time>2012-05-03T00:07:36Z</time>
      </trkpt>
      <trkpt lat="43.6461" lon="6.88733">
        <ele>210</ele>
        <time>2012-05-03T00:07:41Z</time>
      </trkpt>
      <trkpt lat="43.64622" lon="6.88751">
        <ele>211</ele>
        <time>2012-05-03T00:07:44Z</time>
      </trkpt>
      <trkpt lat="43.64627" lon="6.88721">
        <ele>211</ele>
        <time>2012-05-03T00:07:48Z</time>
      </trkpt>
      <trkpt lat="43.64627" lon="6.8867">
        <ele>211</ele>
        <time>2012-05-03T00:07:54Z</time>
      </trkpt>
      <trkpt lat="43.6461" lon="6.88566">
        <ele>213</ele>
        <time>2012-05-03T00:08:07Z</time>
      </trkpt>
      <trkpt lat="43.6461" lon="6.88566">
        <ele>213</ele>
        <time>2012-05-03T00:08:08Z</time>
      </trkpt>
      <trkpt lat="43.64627" lon="6.8867">
        <ele>218</ele>
        <time>2012-05-03T00:08:31Z</time>
      </trkpt>
      <trkpt lat="43.64627" lon="6.88721">
        <ele>221</ele>
        <time>2012-05-03T00:08:42Z</time>
      </trkpt>
      <trkpt lat="43.64622" lon="6.88751">
        <ele>220</ele>
        <time>2012-05-03T00:08:45Z</time>
      </trkpt>
      <trkpt lat="43.6461" lon="6.88733">
        <ele>220</ele>
        <time>2012-05-03T00:08:48Z</time>
      </trkpt>
      <trkpt lat="43.64578" lon="6.88728">
        <ele>219</ele>
        <time>2012-05-03T00:08:52Z</time>
      </trkpt>
      <trkpt lat="43.64583" lon="6.88775">
        <ele>218</ele>
        <time>2012-05-03T00:08:56Z</time>
      </trkpt>
      <trkpt lat="43.64577" lon="6.88829">
        <ele>218</ele>
        <time>2012-05-03T00:09:02Z</time>
      </trkpt>
      <trkpt lat="43.64464" lon="6.89124">
        <ele>211</ele>
        <time>2012-05-03T00:09:34Z</time>
      </trkpt>
      <trkpt lat="43.64461" lon="6.89138">
        <ele>211</ele>
        <time>2012-05-03T00:09:36Z</time>
      </trkpt>
      <trkpt lat="43.64462" lon="6.89182">
        <ele>212</ele>
        <time>2012-05-03T00:09:44Z</time>
      </trkpt>
      <trkpt lat="43.6447" lon="6.89227">
        <ele>214</ele>
        <time>2012-05-03T00:09:52Z</time>
      </trkpt>
      <trkpt lat="43.64462" lon="6.8925">
        <ele>215</ele>
        <time>2012-05-03T00:09:56Z</time>
      </trkpt>
      <trkpt lat="43.64466" lon="6.89267">
        <ele>215</ele>
        <time>2012-05-03T00:10:00Z</time>
      </trkpt>
      <trkpt lat="43.6448" lon="6.8928">
        <ele>216</ele>
        <time>2012-05-03T00:10:04Z</time>
      </trkpt>
      <trkpt lat="43.64492" lon="6.89279">
        <ele>217</ele>
        <time>2012-05-03T00:10:07Z</time>
      </trkpt>
      <trkpt lat="43.64502" lon="6.89269">
        <ele>217</ele>
        <time>2012-05-03T00:10:10Z</time>
      </trkpt>
      <trkpt lat="43.64508" lon="6.8923">
        <ele>219</ele>
        <time>2012-05-03T00:10:18Z</time>
      </trkpt>
      <trkpt lat="43.64521" lon="6.89195">
        <ele>220</ele>
        <time>2012-05-03T00:10:25Z</time>
      </trkpt>
      <trkpt lat="43.64562" lon="6.89171">
        <ele>223</ele>
        <time>2012-05-03T00:10:36Z</time>
      </trkpt>
      <trkpt lat="43.64576" lon="6.89154">
        <ele>224</ele>
        <time>2012-05-03T00:10:43Z</time>
      </trkpt>
      <trkpt lat="43.64643" lon="6.8902">
        <ele>237</ele>
        <time>2012-05-03T00:11:28Z</time>
      </trkpt>
      <trkpt lat="43.64667" lon="6.88945">
        <ele>241</ele>
        <time>2012-05-03T00:11:46Z</time>
      </trkpt>
      <trkpt lat="43.64681" lon="6.88922">
        <ele>242</ele>
        <time>2012-05-03T00:11:53Z</time>
      </trkpt>
      <trkpt lat="43.64707" lon="6.88897">
        <ele>245</ele>
        <time>2012-05-03T00:12:02Z</time>
      </trkpt>
      <trkpt lat="43.64735" lon="6.88852">
        <ele>245</ele>
        <time>2012-05-03T00:12:10Z</time>
      </trkpt>
      <trkpt lat="43.64784" lon="6.88733">
        <ele>248</ele>
        <time>2012-05-03T00:12:29Z</time>
      </trkpt>
      <trkpt lat="43.64799" lon="6.88672">
        <ele>248</ele>
        <time>2012-05-03T00:12:35Z</time>
      </trkpt>
      <trkpt lat="43.64814" lon="6.88639">
        <ele>248</ele>
        <time>2012-05-03T00:12:39Z</time>
      </trkpt>
      <trkpt lat="43.64836" lon="6.8862">
        <ele>248</ele>
        <time>2012-05-03T00:12:42Z</time>
      </trkpt>
      <trkpt lat="43.64887" lon="6.88606">
        <ele>252</ele>
        <time>2012-05-03T00:12:59Z</time>
      </trkpt>
      <trkpt lat="43.6493" lon="6.88544">
        <ele>257</ele>
        <time>2012-05-03T00:13:19Z</time>
      </trkpt>
      <trkpt lat="43.65009" lon="6.88478">
        <ele>262</ele>
        <time>2012-05-03T00:13:43Z</time>
      </trkpt>
      <trkpt lat="43.6503" lon="6.88422">
        <ele>265</ele>
        <time>2012-05-03T00:13:57Z</time>
      </trkpt>
      <trkpt lat="43.65067" lon="6.88376">
        <ele>269</ele>
        <time>2012-05-03T00:14:13Z</time>
      </trkpt>
      <trkpt lat="43.65075" lon="6.88353">
        <ele>268</ele>
        <time>2012-05-03T00:14:15Z</time>
      </trkpt>
      <trkpt lat="43.65077" lon="6.88321">
        <ele>268</ele>
        <time>2012-05-03T00:14:18Z</time>
      </trkpt>
      <trkpt lat="43.65065" lon="6.8829">
        <ele>267</ele>
        <time>2012-05-03T00:14:22Z</time>
      </trkpt>
      <trkpt lat="43.65059" lon="6.88279">
        <ele>267</ele>
        <time>2012-05-03T00:14:23Z</time>
      </trkpt>
      <trkpt lat="43.64996" lon="6.88216">
        <ele>266</ele>
        <time>2012-05-03T00:14:33Z</time>
      </trkpt>
      <trkpt lat="43.64952" lon="6.88127">
        <ele>271</ele>
        <time>2012-05-03T00:14:57Z</time>
      </trkpt>
      <trkpt lat="43.64946" lon="6.88074">
        <ele>274</ele>
        <time>2012-05-03T00:15:08Z</time>
      </trkpt>
      <trkpt lat="43.64953" lon="6.88022">
        <ele>276</ele>
        <time>2012-05-03T00:15:19Z</time>
      </trkpt>
      <trkpt lat="43.64951" lon="6.88011">
        <ele>276</ele>
        <time>2012-05-03T00:15:22Z</time>
      </trkpt>
      <trkpt lat="43.64943" lon="6.87986">
        <ele>278</ele>
        <time>2012-05-03T00:15:27Z</time>
      </trkpt>
      <trkpt lat="43.64901" lon="6.87903">
        <ele>283</ele>
        <time>2012-05-03T00:15:48Z</time>
      </trkpt>
      <trkpt lat="43.64877" lon="6.87839">
        <ele>285</ele>
        <time>2012-05-03T00:16:02Z</time>
      </trkpt>
      <trkpt lat="43.64869" lon="6.87774">
        <ele>288</ele>
        <time>2012-05-03T00:16:14Z</time>
      </trkpt>
      <trkpt lat="43.64878" lon="6.87711">
        <ele>291</ele>
        <time>2012-05-03T00:16:29Z</time>
      </trkpt>
      <trkpt lat="43.64879" lon="6.87677">
        <ele>293</ele>
        <time>2012-05-03T00:16:37Z</time>
      </trkpt>
      <trkpt lat="43.64847" lon="6.87572">
        <ele>300</ele>
        <time>2012-05-03T00:17:03Z</time>
      </trkpt>
      <trkpt lat="43.64839" lon="6.87551">
        <ele>299</ele>
        <time>2012-05-03T00:17:05Z</time>
      </trkpt>
      <trkpt lat="43.64809" lon="6.87499">
        <ele>297</ele>
        <time>2012-05-03T00:17:12Z</time>
      </trkpt>
      <trkpt lat="43.64803" lon="6.8747">
        <ele>297</ele>
        <time>2012-05-03T00:17:15Z</time>
      </trkpt>
      <trkpt lat="43.64799" lon="6.87388">
        <ele>295</ele>
        <time>2012-05-03T00:17:23Z</time>
      </trkpt>
      <trkpt lat="43.64826" lon="6.87311">
        <ele>298</ele>
        <time>2012-05-03T00:17:39Z</time>
      </trkpt>
      <trkpt lat="43.64828" lon="6.87223">
        <ele>302</ele>
        <time>2012-05-03T00:17:56Z</time>
      </trkpt>
      <trkpt lat="43.64841" lon="6.87143">
        <ele>306</ele>
        <time>2012-05-03T00:18:16Z</time>
      </trkpt>
      <trkpt lat="43.64899" lon="6.87072">
        <ele>313</ele>
        <time>2012-05-03T00:18:41Z</time>
      </trkpt>
      <trkpt lat="43.64918" lon="6.87028">
        <ele>315</ele>
        <time>2012-05-03T00:18:51Z</time>
      </trkpt>
      <trkpt lat="43.64935" lon="6.86972">
        <ele>317</ele>
        <time>2012-05-03T00:19:04Z</time>
      </trkpt>
      <trkpt lat="43.64972" lon="6.86928">
        <ele>321</ele>
        <time>2012-05-03T00:19:17Z</time>
      </trkpt>
      <trkpt lat="43.64972" lon="6.86928">
        <ele>321</ele>
        <time>2012-05-03T00:19:18Z</time>
      </trkpt>
      <trkpt lat="43.65001" lon="6.869">
        <ele>328</ele>
        <time>2012-05-03T00:19:41Z</time>
      </trkpt>
      <trkpt lat="43.65054" lon="6.86877">
        <ele>340</ele>
        <time>2012-05-03T00:20:16Z</time>
      </trkpt>
      <trkpt lat="43.65062" lon="6.86864">
        <ele>340</ele>
        <time>2012-05-03T00:20:19Z</time>
      </trkpt>
      <trkpt lat="43.65063" lon="6.86856">
        <ele>340</ele>
        <time>2012-05-03T00:20:20Z</time>
      </trkpt>
      <trkpt lat="43.65039" lon="6.86748">
        <ele>343</ele>
        <time>2012-05-03T00:20:37Z</time>
      </trkpt>
      <trkpt lat="43.6504" lon="6.86733">
        <ele>343</ele>
        <time>2012-05-03T00:20:39Z</time>
      </trkpt>
      <trkpt lat="43.65056" lon="6.8669">
        <ele>344</ele>
        <time>2012-05-03T00:20:47Z</time>
      </trkpt>
      <trkpt lat="43.65058" lon="6.86668">
        <ele>345</ele>
        <time>2012-05-03T00:20:50Z</time>
      </trkpt>
      <trkpt lat="43.65052" lon="6.86649">
        <ele>345</ele>
        <time>2012-05-03T00:20:54Z</time>
      </trkpt>
      <trkpt lat="43.65023" lon="6.86621">
        <ele>347</ele>
        <time>2012-05-03T00:21:01Z</time>
      </trkpt>
      <trkpt lat="43.65016" lon="6.86607">
        <ele>347</ele>
        <time>2012-05-03T00:21:05Z</time>
      </trkpt>
      <trkpt lat="43.65006" lon="6.86556">
        <ele>350</ele>
        <time>2012-05-03T00:21:16Z</time>
      </trkpt>
      <trkpt lat="43.65012" lon="6.86485">
        <ele>354</ele>
        <time>2012-05-03T00:21:32Z</time>
      </trkpt>
      <trkpt lat="43.65005" lon="6.86466">
        <ele>351</ele>
        <time>2012-05-03T00:21:34Z</time>
      </trkpt>
      <trkpt lat="43.64943" lon="6.86441">
        <ele>343</ele>
        <time>2012-05-03T00:21:43Z</time>
      </trkpt>
      <trkpt lat="43.64905" lon="6.8641">
        <ele>337</ele>
        <time>2012-05-03T00:21:48Z</time>
      </trkpt>
      <trkpt lat="43.64888" lon="6.86381">
        <ele>338</ele>
        <time>2012-05-03T00:21:54Z</time>
      </trkpt>
      <trkpt lat="43.64874" lon="6.86346">
        <ele>339</ele>
        <time>2012-05-03T00:22:01Z</time>
      </trkpt>
      <trkpt lat="43.6487" lon="6.86297">
        <ele>340</ele>
        <time>2012-05-03T00:22:09Z</time>
      </trkpt>
      <trkpt lat="43.64872" lon="6.86277">
        <ele>341</ele>
        <time>2012-05-03T00:22:12Z</time>
      </trkpt>
      <trkpt lat="43.64898" lon="6.86198">
        <ele>351</ele>
        <time>2012-05-03T00:22:46Z</time>
      </trkpt>
      <trkpt lat="43.64912" lon="6.86081">
        <ele>366</ele>
        <time>2012-05-03T00:23:32Z</time>
      </trkpt>
      <trkpt lat="43.64931" lon="6.86043">
        <ele>363</ele>
        <time>2012-05-03T00:23:37Z</time>
      </trkpt>
      <trkpt lat="43.64931" lon="6.8603">
        <ele>363</ele>
        <time>2012-05-03T00:23:38Z</time>
      </trkpt>
      <trkpt lat="43.64927" lon="6.8602">
        <ele>362</ele>
        <time>2012-05-03T00:23:39Z</time>
      </trkpt>
      <trkpt lat="43.64915" lon="6.8601">
        <ele>361</ele>
        <time>2012-05-03T00:23:41Z</time>
      </trkpt>
      <trkpt lat="43.64833" lon="6.85988">
        <ele>356</ele>
        <time>2012-05-03T00:23:52Z</time>
      </trkpt>
      <trkpt lat="43.64833" lon="6.85988">
        <ele>356</ele>
        <time>2012-05-03T00:23:53Z</time>
      </trkpt>
      <trkpt lat="43.64819" lon="6.85962">
        <ele>355</ele>
        <time>2012-05-03T00:23:56Z</time>
      </trkpt>
      <trkpt lat="43.64817" lon="6.85909">
        <ele>354</ele>
        <time>2012-05-03T00:24:01Z</time>
      </trkpt>
      <trkpt lat="43.64811" lon="6.85889">
        <ele>354</ele>
        <time>2012-05-03T00:24:03Z</time>
      </trkpt>
      <trkpt lat="43.64757" lon="6.85836">
        <ele>353</ele>
        <time>2012-05-03T00:24:12Z</time>
      </trkpt>
      <trkpt lat="43.64749" lon="6.85819">
        <ele>354</ele>
        <time>2012-05-03T00:24:17Z</time>
      </trkpt>
      <trkpt lat="43.64746" lon="6.858">
        <ele>355</ele>
        <time>2012-05-03T00:24:23Z</time>
      </trkpt>
      <trkpt lat="43.64751" lon="6.85796">
        <ele>356</ele>
        <time>2012-05-03T00:24:25Z</time>
      </trkpt>
      <trkpt lat="43.64803" lon="6.85828">
        <ele>361</ele>
        <time>2012-05-03T00:24:45Z</time>
      </trkpt>
      <trkpt lat="43.6484" lon="6.85858">
        <ele>365</ele>
        <time>2012-05-03T00:25:01Z</time>
      </trkpt>
      <trkpt lat="43.64866" lon="6.85907">
        <ele>370</ele>
        <time>2012-05-03T00:25:17Z</time>
      </trkpt>
      <trkpt lat="43.64876" lon="6.85945">
        <ele>373</ele>
        <time>2012-05-03T00:25:28Z</time>
      </trkpt>
      <trkpt lat="43.64933" lon="6.85933">
        <ele>379</ele>
        <time>2012-05-03T00:25:50Z</time>
      </trkpt>
      <trkpt lat="43.64952" lon="6.85916">
        <ele>381</ele>
        <time>2012-05-03T00:25:59Z</time>
      </trkpt>
      <trkpt lat="43.64928" lon="6.85882">
        <ele>385</ele>
        <time>2012-05-03T00:26:12Z</time>
      </trkpt>
      <trkpt lat="43.64918" lon="6.8583">
        <ele>389</ele>
        <time>2012-05-03T00:26:27Z</time>
      </trkpt>
      <trkpt lat="43.64925" lon="6.85808">
        <ele>391</ele>
        <time>2012-05-03T00:26:34Z</time>
      </trkpt>
      <trkpt lat="43.64929" lon="6.85775">
        <ele>394</ele>
        <time>2012-05-03T00:26:46Z</time>
      </trkpt>
      <trkpt lat="43.64923" lon="6.8568">
        <ele>405</ele>
        <time>2012-05-03T00:27:20Z</time>
      </trkpt>
      <trkpt lat="43.64935" lon="6.85541">
        <ele>436</ele>
        <time>2012-05-03T00:28:48Z</time>
      </trkpt>
      <trkpt lat="43.64929" lon="6.85507">
        <ele>436</ele>
        <time>2012-05-03T00:28:54Z</time>
      </trkpt>
      <trkpt lat="43.64909" lon="6.85459">
        <ele>438</ele>
        <time>2012-05-03T00:29:03Z</time>
      </trkpt>
      <trkpt lat="43.64913" lon="6.85449">
        <ele>438</ele>
        <time>2012-05-03T00:29:05Z</time>
      </trkpt>
      <trkpt lat="43.64924" lon="6.85454">
        <ele>439</ele>
        <time>2012-05-03T00:29:07Z</time>
      </trkpt>
      <trkpt lat="43.64955" lon="6.8551">
        <ele>441</ele>
        <time>2012-05-03T00:29:19Z</time>
      </trkpt>
      <trkpt lat="43.64966" lon="6.85566">
        <ele>443</ele>
        <time>2012-05-03T00:29:28Z</time>
      </trkpt>
      <trkpt lat="43.64966" lon="6.85566">
        <ele>443</ele>
        <time>2012-05-03T00:29:29Z</time>
      </trkpt>
      <trkpt lat="43.64972" lon="6.85601">
        <ele>439</ele>
        <time>2012-05-03T00:29:33Z</time>
      </trkpt>
      <trkpt lat="43.64994" lon="6.85678">
        <ele>431</ele>
        <time>2012-05-03T00:29:41Z</time>
      </trkpt>
      <trkpt lat="43.64998" lon="6.85714">
        <ele>428</ele>
        <time>2012-05-03T00:29:44Z</time>
      </trkpt>
      <trkpt lat="43.65006" lon="6.85736">
        <ele>430</ele>
        <time>2012-05-03T00:29:53Z</time>
      </trkpt>
      <trkpt lat="43.65083" lon="6.85814">
        <ele>445</ele>
        <time>2012-05-03T00:30:40Z</time>
      </trkpt>
      <trkpt lat="43.6513" lon="6.85872">
        <ele>451</ele>
        <time>2012-05-03T00:31:04Z</time>
      </trkpt>
      <trkpt lat="43.65156" lon="6.85914">
        <ele>455</ele>
        <time>2012-05-03T00:31:18Z</time>
      </trkpt>
      <trkpt lat="43.6518" lon="6.85964">
        <ele>460</ele>
        <time>2012-05-03T00:31:37Z</time>
      </trkpt>
      <trkpt lat="43.65204" lon="6.85988">
        <ele>464</ele>
        <time>2012-05-03T00:31:50Z</time>
      </trkpt>
      <trkpt lat="43.6524" lon="6.86007">
        <ele>469</ele>
        <time>2012-05-03T00:32:07Z</time>
      </trkpt>
      <trkpt lat="43.65248" lon="6.86019">
        <ele>469</ele>
        <time>2012-05-03T00:32:09Z</time>
      </trkpt>
      <trkpt lat="43.65263" lon="6.86056">
        <ele>470</ele>
        <time>2012-05-03T00:32:16Z</time>
      </trkpt>
      <trkpt lat="43.65293" lon="6.86112">
        <ele>472</ele>
        <time>2012-05-03T00:32:26Z</time>
      </trkpt>
      <trkpt lat="43.653" lon="6.86139">
        <ele>470</ele>
        <time>2012-05-03T00:32:29Z</time>
      </trkpt>
      <trkpt lat="43.65316" lon="6.86223">
        <ele>467</ele>
        <time>2012-05-03T00:32:37Z</time>
      </trkpt>
      <trkpt lat="43.65323" lon="6.86351">
        <ele>463</ele>
        <time>2012-05-03T00:32:50Z</time>
      </trkpt>
      <trkpt lat="43.65328" lon="6.8637">
        <ele>465</ele>
        <time>2012-05-03T00:32:59Z</time>
      </trkpt>
      <trkpt lat="43.65336" lon="6.86382">
        <ele>468</ele>
        <time>2012-05-03T00:33:06Z</time>
      </trkpt>
      <trkpt lat="43.6538" lon="6.86409">
        <ele>477</ele>
        <time>2012-05-03T00:33:35Z</time>
      </trkpt>
      <trkpt lat="43.65391" lon="6.86423">
        <ele>480</ele>
        <time>2012-05-03T00:33:44Z</time>
      </trkpt>
      <trkpt lat="43.654" lon="6.86445">
        <ele>484</ele>
        <time>2012-05-03T00:33:55Z</time>
      </trkpt>
      <trkpt lat="43.654" lon="6.86445">
        <ele>484</ele>
        <time>2012-05-03T00:33:56Z</time>
      </trkpt>
      <trkpt lat="43.65429" lon="6.86534">
        <ele>486</ele>
        <time>2012-05-03T00:34:12Z</time>
      </trkpt>
      <trkpt lat="43.65444" lon="6.86562">
        <ele>488</ele>
        <time>2012-05-03T00:34:18Z</time>
      </trkpt>
      <trkpt lat="43.65482" lon="6.86597">
        <ele>494</ele>
        <time>2012-05-03T00:34:40Z</time>
      </trkpt>
      <trkpt lat="43.65528" lon="6.86666">
        <ele>504</ele>
        <time>2012-05-03T00:35:12Z</time>
      </trkpt>
      <trkpt lat="43.65568" lon="6.86704">
        <ele>507</ele>
        <time>2012-05-03T00:35:26Z</time>
      </trkpt>
      <trkpt lat="43.65588" lon="6.86737">
        <ele>509</ele>
        <time>2012-05-03T00:35:35Z</time>
      </trkpt>
      <trkpt lat="43.65631" lon="6.8686">
        <ele>516</ele>
        <time>2012-05-03T00:36:04Z</time>
      </trkpt>
      <trkpt lat="43.65661" lon="6.87019">
        <ele>530</ele>
        <time>2012-05-03T00:36:54Z</time>
      </trkpt>
      <trkpt lat="43.6566" lon="6.8708">
        <ele>527</ele>
        <time>2012-05-03T00:37:00Z</time>
      </trkpt>
      <trkpt lat="43.65649" lon="6.87114">
        <ele>526</ele>
        <time>2012-05-03T00:37:03Z</time>
      </trkpt>
      <trkpt lat="43.65614" lon="6.87187">
        <ele>523</ele>
        <time>2012-05-03T00:37:12Z</time>
      </trkpt>
      <trkpt lat="43.65604" lon="6.87262">
        <ele>521</ele>
        <time>2012-05-03T00:37:19Z</time>
      </trkpt>
      <trkpt lat="43.65597" lon="6.87274">
        <ele>520</ele>
        <time>2012-05-03T00:37:21Z</time>
      </trkpt>
      <trkpt lat="43.65558" lon="6.87312">
        <ele>519</ele>
        <time>2012-05-03T00:37:27Z</time>
      </trkpt>
      <trkpt lat="43.65525" lon="6.8736">
        <ele>522</ele>
        <time>2012-05-03T00:37:42Z</time>
      </trkpt>
      <trkpt lat="43.65524" lon="6.87373">
        <ele>523</ele>
        <time>2012-05-03T00:37:45Z</time>
      </trkpt>
      <trkpt lat="43.65535" lon="6.87374">
        <ele>524</ele>
        <time>2012-05-03T00:37:48Z</time>
      </trkpt>
      <trkpt lat="43.65557" lon="6.87354">
        <ele>525</ele>
        <time>2012-05-03T00:37:56Z</time>
      </trkpt>
      <trkpt lat="43.65576" lon="6.87348">
        <ele>527</ele>
        <time>2012-05-03T00:38:02Z</time>
      </trkpt>
      <trkpt lat="43.65616" lon="6.87358">
        <ele>530</ele>
        <time>2012-05-03T00:38:15Z</time>
      </trkpt>
      <trkpt lat="43.65629" lon="6.87356">
        <ele>531</ele>
        <time>2012-05-03T00:38:19Z</time>
      </trkpt>
      <trkpt lat="43.65639" lon="6.87348">
        <ele>532</ele>
        <time>2012-05-03T00:38:23Z</time>
      </trkpt>
      <trkpt lat="43.65652" lon="6.8732">
        <ele>534</ele>
        <time>2012-05-03T00:38:30Z</time>
      </trkpt>
      <trkpt lat="43.65657" lon="6.87319">
        <ele>534</ele>
        <time>2012-05-03T00:38:31Z</time>
      </trkpt>
      <trkpt lat="43.65662" lon="6.87323">
        <ele>534</ele>
        <time>2012-05-03T00:38:32Z</time>
      </trkpt>
      <trkpt lat="43.65663" lon="6.87336">
        <ele>534</ele>
        <time>2012-05-03T00:38:33Z</time>
      </trkpt>
      <trkpt lat="43.65653" lon="6.87386">
        <ele>534</ele>
        <time>2012-05-03T00:38:39Z</time>
      </trkpt>
      <trkpt lat="43.65662" lon="6.87408">
        <ele>534</ele>
        <time>2012-05-03T00:38:42Z</time>
      </trkpt>
      <trkpt lat="43.65664" lon="6.87431">
        <ele>534</ele>
        <time>2012-05-03T00:38:45Z</time>
      </trkpt>
      <trkpt lat="43.65663" lon="6.87443">
        <ele>534</ele>
        <time>2012-05-03T00:38:46Z</time>
      </trkpt>
      <trkpt lat="43.6567" lon="6.8745">
        <ele>535</ele>
        <time>2012-05-03T00:38:47Z</time>
      </trkpt>
      <trkpt lat="43.65683" lon="6.87443">
        <ele>537</ele>
        <time>2012-05-03T00:38:55Z</time>
      </trkpt>
      <trkpt lat="43.65709" lon="6.87443">
        <ele>541</ele>
        <time>2012-05-03T00:39:09Z</time>
      </trkpt>
      <trkpt lat="43.65792" lon="6.87481">
        <ele>557</ele>
        <time>2012-05-03T00:39:57Z</time>
      </trkpt>
      <trkpt lat="43.65805" lon="6.87479">
        <ele>556</ele>
        <time>2012-05-03T00:39:59Z</time>
      </trkpt>
      <trkpt lat="43.65825" lon="6.87455">
        <ele>556</ele>
        <time>2012-05-03T00:40:02Z</time>
      </trkpt>
      <trkpt lat="43.65829" lon="6.87424">
        <ele>555</ele>
        <time>2012-05-03T00:40:05Z</time>
      </trkpt>
      <trkpt lat="43.65821" lon="6.87403">
        <ele>555</ele>
        <time>2012-05-03T00:40:08Z</time>
      </trkpt>
      <trkpt lat="43.65808" lon="6.87386">
        <ele>555</ele>
        <time>2012-05-03T00:40:10Z</time>
      </trkpt>
      <trkpt lat="43.65753" lon="6.87337">
        <ele>554</ele>
        <time>2012-05-03T00:40:19Z</time>
      </trkpt>
      <trkpt lat="43.65737" lon="6.87294">
        <ele>559</ele>
        <time>2012-05-03T00:40:36Z</time>
      </trkpt>
      <trkpt lat="43.65741" lon="6.87252">
        <ele>564</ele>
        <time>2012-05-03T00:40:52Z</time>
      </trkpt>
      <trkpt lat="43.65774" lon="6.87185">
        <ele>573</ele>
        <time>2012-05-03T00:41:21Z</time>
      </trkpt>
      <trkpt lat="43.65794" lon="6.87089">
        <ele>592</ele>
        <time>2012-05-03T00:42:18Z</time>
      </trkpt>
      <trkpt lat="43.65819" lon="6.87026">
        <ele>607</ele>
        <time>2012-05-03T00:42:59Z</time>
      </trkpt>
      <trkpt lat="43.65823" lon="6.86959">
        <ele>612</ele>
        <time>2012-05-03T00:43:20Z</time>
      </trkpt>
      <trkpt lat="43.65803" lon="6.86883">
        <ele>620</ele>
        <time>2012-05-03T00:43:45Z</time>
      </trkpt>
      <trkpt lat="43.65804" lon="6.86798">
        <ele>621</ele>
        <time>2012-05-03T00:43:57Z</time>
      </trkpt>
      <trkpt lat="43.65799" lon="6.86764">
        <ele>622</ele>
        <time>2012-05-03T00:44:03Z</time>
      </trkpt>
      <trkpt lat="43.65773" lon="6.86711">
        <ele>624</ele>
        <time>2012-05-03T00:44:12Z</time>
      </trkpt>
      <trkpt lat="43.65731" lon="6.86586">
        <ele>624</ele>
        <time>2012-05-03T00:44:25Z</time>
      </trkpt>
      <trkpt lat="43.65719" lon="6.86527">
        <ele>627</ele>
        <time>2012-05-03T00:44:41Z</time>
      </trkpt>
      <trkpt lat="43.65724" lon="6.86463">
        <ele>631</ele>
        <time>2012-05-03T00:44:56Z</time>
      </trkpt>
      <trkpt lat="43.65717" lon="6.86397">
        <ele>636</ele>
        <time>2012-05-03T00:45:13Z</time>
      </trkpt>
      <trkpt lat="43.6572" lon="6.86269">
        <ele>644</ele>
        <time>2012-05-03T00:45:44Z</time>
      </trkpt>
      <trkpt lat="43.65707" lon="6.86168">
        <ele>647</ele>
        <time>2012-05-03T00:46:02Z</time>
      </trkpt>
      <trkpt lat="43.65711" lon="6.86112">
        <ele>649</ele>
        <time>2012-05-03T00:46:12Z</time>
      </trkpt>
      <trkpt lat="43.65708" lon="6.86081">
        <ele>647</ele>
        <time>2012-05-03T00:46:15Z</time>
      </trkpt>
      <trkpt lat="43.65693" lon="6.86046">
        <ele>646</ele>
        <time>2012-05-03T00:46:19Z</time>
      </trkpt>
      <trkpt lat="43.6567" lon="6.86014">
        <ele>645</ele>
        <time>2012-05-03T00:46:23Z</time>
      </trkpt>
      <trkpt lat="43.6561" lon="6.85849">
        <ele>639</ele>
        <time>2012-05-03T00:46:41Z</time>
      </trkpt>
      <trkpt lat="43.65597" lon="6.85797">
        <ele>641</ele>
        <time>2012-05-03T00:46:51Z</time>
      </trkpt>
      <trkpt lat="43.65585" lon="6.857">
        <ele>645</ele>
        <time>2012-05-03T00:47:10Z</time>
      </trkpt>
      <trkpt lat="43.65578" lon="6.85673">
        <ele>644</ele>
        <time>2012-05-03T00:47:13Z</time>
      </trkpt>
      <trkpt lat="43.65495" lon="6.85518">
        <ele>644</ele>
        <time>2012-05-03T00:47:32Z</time>
      </trkpt>
      <trkpt lat="43.65469" lon="6.85439">
        <ele>646</ele>
        <time>2012-05-03T00:47:46Z</time>
      </trkpt>
      <trkpt lat="43.65464" lon="6.85389">
        <ele>648</ele>
        <time>2012-05-03T00:47:54Z</time>
      </trkpt>
      <trkpt lat="43.65467" lon="6.85325">
        <ele>652</ele>
        <time>2012-05-03T00:48:10Z</time>
      </trkpt>
      <trkpt lat="43.65483" lon="6.85272">
        <ele>655</ele>
        <time>2012-05-03T00:48:25Z</time>
      </trkpt>
      <trkpt lat="43.65489" lon="6.85238">
        <ele>658</ele>
        <time>2012-05-03T00:48:34Z</time>
      </trkpt>
      <trkpt lat="43.65493" lon="6.85144">
        <ele>655</ele>
        <time>2012-05-03T00:48:43Z</time>
      </trkpt>
      <trkpt lat="43.65502" lon="6.85112">
        <ele>654</ele>
        <time>2012-05-03T00:48:46Z</time>
      </trkpt>
      <trkpt lat="43.65512" lon="6.85095">
        <ele>654</ele>
        <time>2012-05-03T00:48:50Z</time>
      </trkpt>
      <trkpt lat="43.65524" lon="6.85087">
        <ele>655</ele>
        <time>2012-05-03T00:48:53Z</time>
      </trkpt>
      <trkpt lat="43.65547" lon="6.85085">
        <ele>656</ele>
        <time>2012-05-03T00:48:59Z</time>
      </trkpt>
      <trkpt lat="43.65562" lon="6.85094">
        <ele>657</ele>
        <time>2012-05-03T00:49:03Z</time>
      </trkpt>
      <trkpt lat="43.65598" lon="6.85148">
        <ele>660</ele>
        <time>2012-05-03T00:49:17Z</time>
      </trkpt>
      <trkpt lat="43.65698" lon="6.85207">
        <ele>668</ele>
        <time>2012-05-03T00:49:50Z</time>
      </trkpt>
      <trkpt lat="43.65748" lon="6.85271">
        <ele>672</ele>
        <time>2012-05-03T00:50:10Z</time>
      </trkpt>
      <trkpt lat="43.65766" lon="6.85288">
        <ele>673</ele>
        <time>2012-05-03T00:50:17Z</time>
      </trkpt>
      <trkpt lat="43.65852" lon="6.8533">
        <ele>680</ele>
        <time>2012-05-03T00:50:43Z</time>
      </trkpt>
      <trkpt lat="43.65933" lon="6.85394">
        <ele>684</ele>
        <time>2012-05-03T00:51:05Z</time>
      </trkpt>
      <trkpt lat="43.6609" lon="6.85436">
        <ele>686</ele>
        <time>2012-05-03T00:51:32Z</time>
      </trkpt>
      <trkpt lat="43.66233" lon="6.85484">
        <ele>694</ele>
        <time>2012-05-03T00:52:10Z</time>
      </trkpt>
      <trkpt lat="43.66251" lon="6.85486">
        <ele>693</ele>
        <time>2012-05-03T00:52:13Z</time>
      </trkpt>
      <trkpt lat="43.66268" lon="6.85477">
        <ele>693</ele>
        <time>2012-05-03T00:52:15Z</time>
      </trkpt>
      <trkpt lat="43.66303" lon="6.8541">
        <ele>692</ele>
        <time>2012-05-03T00:52:23Z</time>
      </trkpt>
      <trkpt lat="43.66319" lon="6.85388">
        <ele>692</ele>
        <time>2012-05-03T00:52:26Z</time>
      </trkpt>
      <trkpt lat="43.66337" lon="6.85374">
        <ele>691</ele>
        <time>2012-05-03T00:52:29Z</time>
      </trkpt>
      <trkpt lat="43.66374" lon="6.85362">
        <ele>691</ele>
        <time>2012-05-03T00:52:34Z</time>
      </trkpt>
      <trkpt lat="43.66514" lon="6.85363">
        <ele>690</ele>
        <time>2012-05-03T00:52:53Z</time>
      </trkpt>
      <trkpt lat="43.66644" lon="6.85352">
        <ele>680</ele>
        <time>2012-05-03T00:53:10Z</time>
      </trkpt>
      <trkpt lat="43.66667" lon="6.85356">
        <ele>679</ele>
        <time>2012-05-03T00:53:13Z</time>
      </trkpt>
      <trkpt lat="43.66732" lon="6.85382">
        <ele>678</ele>
        <time>2012-05-03T00:53:22Z</time>
      </trkpt>
      <trkpt lat="43.66732" lon="6.85382">
        <ele>678</ele>
        <time>2012-05-03T00:53:23Z</time>
      </trkpt>
      <trkpt lat="43.66778" lon="6.85408">
        <ele>676</ele>
        <time>2012-05-03T00:53:30Z</time>
      </trkpt>
      <trkpt lat="43.66815" lon="6.85453">
        <ele>676</ele>
        <time>2012-05-03T00:53:37Z</time>
      </trkpt>
      <trkpt lat="43.66832" lon="6.85484">
        <ele>676</ele>
        <time>2012-05-03T00:53:42Z</time>
      </trkpt>
      <trkpt lat="43.66864" lon="6.85576">
        <ele>679</ele>
        <time>2012-05-03T00:53:57Z</time>
      </trkpt>
      <trkpt lat="43.67019" lon="6.86096">
        <ele>681</ele>
        <time>2012-05-03T00:54:57Z</time>
      </trkpt>
      <trkpt lat="43.67044" lon="6.86132">
        <ele>678</ele>
        <time>2012-05-03T00:55:01Z</time>
      </trkpt>
      <trkpt lat="43.67091" lon="6.86162">
        <ele>675</ele>
        <time>2012-05-03T00:55:08Z</time>
      </trkpt>
      <trkpt lat="43.67116" lon="6.86186">
        <ele>674</ele>
        <time>2012-05-03T00:55:12Z</time>
      </trkpt>
      <trkpt lat="43.67135" lon="6.86213">
        <ele>674</ele>
        <time>2012-05-03T00:55:17Z</time>
      </trkpt>
      <trkpt lat="43.67196" lon="6.86326">
        <ele>676</ele>
        <time>2012-05-03T00:55:34Z</time>
      </trkpt>
      <trkpt lat="43.67206" lon="6.8634">
        <ele>675</ele>
        <time>2012-05-03T00:55:36Z</time>
      </trkpt>
      <trkpt lat="43.67228" lon="6.86356">
        <ele>674</ele>
        <time>2012-05-03T00:55:40Z</time>
      </trkpt>
      <trkpt lat="43.67264" lon="6.86361">
        <ele>674</ele>
        <time>2012-05-03T00:55:44Z</time>
      </trkpt>
      <trkpt lat="43.67379" lon="6.86323">
        <ele>671</ele>
        <time>2012-05-03T00:56:00Z</time>
      </trkpt>
      <trkpt lat="43.67465" lon="6.86333">
        <ele>673</ele>
        <time>2012-05-03T00:56:17Z</time>
      </trkpt>
      <trkpt lat="43.67494" lon="6.86326">
        <ele>674</ele>
        <time>2012-05-03T00:56:23Z</time>
      </trkpt>
      <trkpt lat="43.67723" lon="6.86172">
        <ele>673</ele>
        <time>2012-05-03T00:56:57Z</time>
      </trkpt>
      <trkpt lat="43.67776" lon="6.86149">
        <ele>674</ele>
        <time>2012-05-03T00:57:08Z</time>
      </trkpt>
      <trkpt lat="43.67822" lon="6.8614">
        <ele>676</ele>
        <time>2012-05-03T00:57:18Z</time>
      </trkpt>
      <trkpt lat="43.67959" lon="6.86136">
        <ele>682</ele>
        <time>2012-05-03T00:57:50Z</time>
      </trkpt>
      <trkpt lat="43.68073" lon="6.86097">
        <ele>684</ele>
        <time>2012-05-03T00:58:11Z</time>
      </trkpt>
      <trkpt lat="43.68154" lon="6.8608">
        <ele>686</ele>
        <time>2012-05-03T00:58:29Z</time>
      </trkpt>
      <trkpt lat="43.68402" lon="6.86077">
        <ele>696</ele>
        <time>2012-05-03T00:59:24Z</time>
      </trkpt>
      <trkpt lat="43.68402" lon="6.86077">
        <ele>696</ele>
        <time>2012-05-03T00:59:25Z</time>
      </trkpt>
      <trkpt lat="43.68556" lon="6.86064">
        <ele>705</ele>
        <time>2012-05-03T01:00:07Z</time>
      </trkpt>
      <trkpt lat="43.68652" lon="6.86062">
        <ele>710</ele>
        <time>2012-05-03T01:00:32Z</time>
      </trkpt>
      <trkpt lat="43.68761" lon="6.86029">
        <ele>715</ele>
        <time>2012-05-03T01:00:59Z</time>
      </trkpt>
      <trkpt lat="43.68782" lon="6.86018">
        <ele>715</ele>
        <time>2012-05-03T01:01:03Z</time>
      </trkpt>
      <trkpt lat="43.68809" lon="6.85985">
        <ele>716</ele>
        <time>2012-05-03T01:01:10Z</time>
      </trkpt>
      <trkpt lat="43.68878" lon="6.85861">
        <ele>719</ele>
        <time>2012-05-03T01:01:31Z</time>
      </trkpt>
      <trkpt lat="43.68912" lon="6.85783">
        <ele>719</ele>
        <time>2012-05-03T01:01:40Z</time>
      </trkpt>
      <trkpt lat="43.68939" lon="6.8574">
        <ele>719</ele>
        <time>2012-05-03T01:01:46Z</time>
      </trkpt>
      <trkpt lat="43.69093" lon="6.85578">
        <ele>721</ele>
        <time>2012-05-03T01:02:16Z</time>
      </trkpt>
      <trkpt lat="43.69127" lon="6.85556">
        <ele>721</ele>
        <time>2012-05-03T01:02:22Z</time>
      </trkpt>
      <trkpt lat="43.69285" lon="6.85547">
        <ele>723</ele>
        <time>2012-05-03T01:02:47Z</time>
      </trkpt>
      <trkpt lat="43.69364" lon="6.85592">
        <ele>720</ele>
        <time>2012-05-03T01:02:59Z</time>
      </trkpt>
      <trkpt lat="43.69396" lon="6.85587">
        <ele>720</ele>
        <time>2012-05-03T01:03:03Z</time>
      </trkpt>
      <trkpt lat="43.69419" lon="6.85604">
        <ele>719</ele>
        <time>2012-05-03T01:03:06Z</time>
      </trkpt>
      <trkpt lat="43.69605" lon="6.85307">
        <ele>715</ele>
        <time>2012-05-03T01:03:44Z</time>
      </trkpt>
      <trkpt lat="43.69626" lon="6.85279">
        <ele>714</ele>
        <time>2012-05-03T01:03:48Z</time>
      </trkpt>
      <trkpt lat="43.69646" lon="6.85273">
        <ele>714</ele>
        <time>2012-05-03T01:03:51Z</time>
      </trkpt>
      <trkpt lat="43.69652" lon="6.85276">
        <ele>714</ele>
        <time>2012-05-03T01:03:52Z</time>
      </trkpt>
      <trkpt lat="43.69659" lon="6.85271">
        <ele>714</ele>
        <time>2012-05-03T01:03:53Z</time>
      </trkpt>
      <trkpt lat="43.69666" lon="6.85217">
        <ele>713</ele>
        <time>2012-05-03T01:03:58Z</time>
      </trkpt>
      <trkpt lat="43.69693" lon="6.85173">
        <ele>713</ele>
        <time>2012-05-03T01:04:04Z</time>
      </trkpt>
      <trkpt lat="43.69693" lon="6.85173">
        <ele>713</ele>
        <time>2012-05-03T01:04:05Z</time>
      </trkpt>
      <trkpt lat="43.6978" lon="6.85035">
        <ele>712</ele>
        <time>2012-05-03T01:04:22Z</time>
      </trkpt>
      <trkpt lat="43.69793" lon="6.85005">
        <ele>711</ele>
        <time>2012-05-03T01:04:26Z</time>
      </trkpt>
      <trkpt lat="43.69814" lon="6.84939">
        <ele>710</ele>
        <time>2012-05-03T01:04:33Z</time>
      </trkpt>
      <trkpt lat="43.69835" lon="6.84835">
        <ele>708</ele>
        <time>2012-05-03T01:04:43Z</time>
      </trkpt>
      <trkpt lat="43.69847" lon="6.84816">
        <ele>708</ele>
        <time>2012-05-03T01:04:48Z</time>
      </trkpt>
      <trkpt lat="43.6989" lon="6.84822">
        <ele>710</ele>
        <time>2012-05-03T01:04:58Z</time>
      </trkpt>
      <trkpt lat="43.70093" lon="6.84893">
        <ele>720</ele>
        <time>2012-05-03T01:05:48Z</time>
      </trkpt>
      <trkpt lat="43.70127" lon="6.84882">
        <ele>723</ele>
        <time>2012-05-03T01:06:00Z</time>
      </trkpt>
      <trkpt lat="43.7017" lon="6.84834">
        <ele>728</ele>
        <time>2012-05-03T01:06:20Z</time>
      </trkpt>
      <trkpt lat="43.70188" lon="6.84819">
        <ele>730</ele>
        <time>2012-05-03T01:06:27Z</time>
      </trkpt>
      <trkpt lat="43.70203" lon="6.84813">
        <ele>731</ele>
        <time>2012-05-03T01:06:33Z</time>
      </trkpt>
      <trkpt lat="43.70222" lon="6.84816">
        <ele>733</ele>
        <time>2012-05-03T01:06:40Z</time>
      </trkpt>
      <trkpt lat="43.70276" lon="6.8484">
        <ele>738</ele>
        <time>2012-05-03T01:07:01Z</time>
      </trkpt>
      <trkpt lat="43.70317" lon="6.84847">
        <ele>743</ele>
        <time>2012-05-03T01:07:16Z</time>
      </trkpt>
      <trkpt lat="43.70318" lon="6.84967">
        <ele>753</ele>
        <time>2012-05-03T01:07:53Z</time>
      </trkpt>
      <trkpt lat="43.7031" lon="6.84993">
        <ele>756</ele>
        <time>2012-05-03T01:08:02Z</time>
      </trkpt>
      <trkpt lat="43.70262" lon="6.85048">
        <ele>758</ele>
        <time>2012-05-03T01:08:16Z</time>
      </trkpt>
      <trkpt lat="43.7017" lon="6.85189">
        <ele>764</ele>
        <time>2012-05-03T01:08:47Z</time>
      </trkpt>
      <trkpt lat="43.70049" lon="6.85347">
        <ele>771</ele>
        <time>2012-05-03T01:09:26Z</time>
      </trkpt>
      <trkpt lat="43.69915" lon="6.85566">
        <ele>785</ele>
        <time>2012-05-03T01:10:28Z</time>
      </trkpt>
      <trkpt lat="43.69913" lon="6.85577">
        <ele>785</ele>
        <time>2012-05-03T01:10:29Z</time>
      </trkpt>
      <trkpt lat="43.69918" lon="6.8558">
        <ele>785</ele>
        <time>2012-05-03T01:10:30Z</time>
      </trkpt>
      <trkpt lat="43.69922" lon="6.8558">
        <ele>785</ele>
        <time>2012-05-03T01:10:31Z</time>
      </trkpt>
      <trkpt lat="43.69961" lon="6.85529">
        <ele>786</ele>
        <time>2012-05-03T01:10:41Z</time>
      </trkpt>
      <trkpt lat="43.70006" lon="6.85487">
        <ele>788</ele>
        <time>2012-05-03T01:10:52Z</time>
      </trkpt>
      <trkpt lat="43.7003" lon="6.85471">
        <ele>791</ele>
        <time>2012-05-03T01:11:03Z</time>
      </trkpt>
      <trkpt lat="43.70061" lon="6.85457">
        <ele>795</ele>
        <time>2012-05-03T01:11:18Z</time>
      </trkpt>
      <trkpt lat="43.70134" lon="6.85443">
        <ele>805</ele>
        <time>2012-05-03T01:11:50Z</time>
      </trkpt>
      <trkpt lat="43.70407" lon="6.8532">
        <ele>821</ele>
        <time>2012-05-03T01:13:07Z</time>
      </trkpt>
      <trkpt lat="43.70407" lon="6.8532">
        <ele>821</ele>
        <time>2012-05-03T01:13:08Z</time>
      </trkpt>
      <trkpt lat="43.70448" lon="6.85312">
        <ele>822</ele>
        <time>2012-05-03T01:13:18Z</time>
      </trkpt>
      <trkpt lat="43.70514" lon="6.85325">
        <ele>826</ele>
        <time>2012-05-03T01:13:34Z</time>
      </trkpt>
      <trkpt lat="43.7054" lon="6.85355">
        <ele>831</ele>
        <time>2012-05-03T01:13:53Z</time>
      </trkpt>
      <trkpt lat="43.7056" lon="6.85401">
        <ele>838</ele>
        <time>2012-05-03T01:14:14Z</time>
      </trkpt>
      <trkpt lat="43.7059" lon="6.85571">
        <ele>860</ele>
        <time>2012-05-03T01:15:23Z</time>
      </trkpt>
      <trkpt lat="43.70592" lon="6.85684">
        <ele>872</ele>
        <time>2012-05-03T01:16:04Z</time>
      </trkpt>
      <trkpt lat="43.706" lon="6.85768">
        <ele>882</ele>
        <time>2012-05-03T01:16:35Z</time>
      </trkpt>
      <trkpt lat="43.70632" lon="6.85916">
        <ele>888</ele>
        <time>2012-05-03T01:17:04Z</time>
      </trkpt>
      <trkpt lat="43.70645" lon="6.86042">
        <ele>903</ele>
        <time>2012-05-03T01:17:52Z</time>
      </trkpt>
      <trkpt lat="43.70659" lon="6.86085">
        <ele>898</ele>
        <time>2012-05-03T01:17:57Z</time>
      </trkpt>
      <trkpt lat="43.70675" lon="6.86092">
        <ele>895</ele>
        <time>2012-05-03T01:17:59Z</time>
      </trkpt>
      <trkpt lat="43.70694" lon="6.86078">
        <ele>892</ele>
        <time>2012-05-03T01:18:02Z</time>
      </trkpt>
      <trkpt lat="43.70731" lon="6.8597">
        <ele>881</ele>
        <time>2012-05-03T01:18:13Z</time>
      </trkpt>
      <trkpt lat="43.70763" lon="6.85788">
        <ele>870</ele>
        <time>2012-05-03T01:18:31Z</time>
      </trkpt>
      <trkpt lat="43.70835" lon="6.85568">
        <ele>889</ele>
        <time>2012-05-03T01:19:40Z</time>
      </trkpt>
      <trkpt lat="43.70843" lon="6.85547">
        <ele>894</ele>
        <time>2012-05-03T01:19:56Z</time>
      </trkpt>
      <trkpt lat="43.70903" lon="6.85442">
        <ele>926</ele>
        <time>2012-05-03T01:21:24Z</time>
      </trkpt>
      <trkpt lat="43.70922" lon="6.8539">
        <ele>931</ele>
        <time>2012-05-03T01:21:44Z</time>
      </trkpt>
      <trkpt lat="43.70926" lon="6.8534">
        <ele>936</ele>
        <time>2012-05-03T01:22:01Z</time>
      </trkpt>
      <trkpt lat="43.70915" lon="6.8527">
        <ele>944</ele>
        <time>2012-05-03T01:22:25Z</time>
      </trkpt>
      <trkpt lat="43.70892" lon="6.85191">
        <ele>947</ele>
        <time>2012-05-03T01:22:41Z</time>
      </trkpt>
      <trkpt lat="43.70895" lon="6.85181">
        <ele>947</ele>
        <time>2012-05-03T01:22:43Z</time>
      </trkpt>
      <trkpt lat="43.709" lon="6.85184">
        <ele>947</ele>
        <time>2012-05-03T01:22:44Z</time>
      </trkpt>
      <trkpt lat="43.70945" lon="6.85315">
        <ele>953</ele>
        <time>2012-05-03T01:23:11Z</time>
      </trkpt>
      <trkpt lat="43.70956" lon="6.85364">
        <ele>954</ele>
        <time>2012-05-03T01:23:20Z</time>
      </trkpt>
      <trkpt lat="43.70957" lon="6.85392">
        <ele>956</ele>
        <time>2012-05-03T01:23:25Z</time>
      </trkpt>
      <trkpt lat="43.70947" lon="6.85448">
        <ele>947</ele>
        <time>2012-05-03T01:23:31Z</time>
      </trkpt>
      <trkpt lat="43.70901" lon="6.85581">
        <ele>925</ele>
        <time>2012-05-03T01:23:45Z</time>
      </trkpt>
      <trkpt lat="43.70874" lon="6.85714">
        <ele>917</ele>
        <time>2012-05-03T01:23:59Z</time>
      </trkpt>
      <trkpt lat="43.70869" lon="6.85818">
        <ele>928</ele>
        <time>2012-05-03T01:24:36Z</time>
      </trkpt>
      <trkpt lat="43.70886" lon="6.85873">
        <ele>935</ele>
        <time>2012-05-03T01:24:58Z</time>
      </trkpt>
      <trkpt lat="43.70896" lon="6.85944">
        <ele>944</ele>
        <time>2012-05-03T01:25:28Z</time>
      </trkpt>
      <trkpt lat="43.70901" lon="6.86079">
        <ele>963</ele>
        <time>2012-05-03T01:26:25Z</time>
      </trkpt>
      <trkpt lat="43.70895" lon="6.86207">
        <ele>973</ele>
        <time>2012-05-03T01:27:01Z</time>
      </trkpt>
      <trkpt lat="43.70896" lon="6.86289">
        <ele>977</ele>
        <time>2012-05-03T01:27:20Z</time>
      </trkpt>
      <trkpt lat="43.70916" lon="6.86511">
        <ele>990</ele>
        <time>2012-05-03T01:28:12Z</time>
      </trkpt>
      <trkpt lat="43.70924" lon="6.86538">
        <ele>993</ele>
        <time>2012-05-03T01:28:24Z</time>
      </trkpt>
      <trkpt lat="43.70933" lon="6.86553">
        <ele>996</ele>
        <time>2012-05-03T01:28:32Z</time>
      </trkpt>
      <trkpt lat="43.70959" lon="6.86576">
        <ele>1002</ele>
        <time>2012-05-03T01:28:50Z</time>
      </trkpt>
      <trkpt lat="43.70973" lon="6.86581">
        <ele>1004</ele>
        <time>2012-05-03T01:28:58Z</time>
      </trkpt>
      <trkpt lat="43.71049" lon="6.86587">
        <ele>1019</ele>
        <time>2012-05-03T01:29:42Z</time>
      </trkpt>
      <trkpt lat="43.711" lon="6.86574">
        <ele>1024</ele>
        <time>2012-05-03T01:30:02Z</time>
      </trkpt>
      <trkpt lat="43.71309" lon="6.86398">
        <ele>1050</ele>
        <time>2012-05-03T01:31:36Z</time>
      </trkpt>
      <trkpt lat="43.7134" lon="6.86387">
        <ele>1047</ele>
        <time>2012-05-03T01:31:40Z</time>
      </trkpt>
      <trkpt lat="43.714" lon="6.86386">
        <ele>1042</ele>
        <time>2012-05-03T01:31:48Z</time>
      </trkpt>
      <trkpt lat="43.71416" lon="6.86393">
        <ele>1041</ele>
        <time>2012-05-03T01:31:51Z</time>
      </trkpt>
      <trkpt lat="43.71457" lon="6.86443">
        <ele>1038</ele>
        <time>2012-05-03T01:31:58Z</time>
      </trkpt>
      <trkpt lat="43.71478" lon="6.86461">
        <ele>1037</ele>
        <time>2012-05-03T01:32:01Z</time>
      </trkpt>
      <trkpt lat="43.71608" lon="6.8654">
        <ele>1034</ele>
        <time>2012-05-03T01:32:20Z</time>
      </trkpt>
      <trkpt lat="43.71693" lon="6.86574">
        <ele>1035</ele>
        <time>2012-05-03T01:32:36Z</time>
      </trkpt>
      <trkpt lat="43.71884" lon="6.86625">
        <ele>1039</ele>
        <time>2012-05-03T01:33:10Z</time>
      </trkpt>
      <trkpt lat="43.7198" lon="6.86598">
        <ele>1021</ele>
        <time>2012-05-03T01:33:23Z</time>
      </trkpt>
      <trkpt lat="43.7201" lon="6.86594">
        <ele>1020</ele>
        <time>2012-05-03T01:33:27Z</time>
      </trkpt>
      <trkpt lat="43.72052" lon="6.86592">
        <ele>1019</ele>
        <time>2012-05-03T01:33:33Z</time>
      </trkpt>
      <trkpt lat="43.72116" lon="6.866">
        <ele>1019</ele>
        <time>2012-05-03T01:33:41Z</time>
      </trkpt>
      <trkpt lat="43.72192" lon="6.8663">
        <ele>1025</ele>
        <time>2012-05-03T01:34:08Z</time>
      </trkpt>
      <trkpt lat="43.72241" lon="6.86658">
        <ele>1030</ele>
        <time>2012-05-03T01:34:25Z</time>
      </trkpt>
      <trkpt lat="43.72259" lon="6.86674">
        <ele>1036</ele>
        <time>2012-05-03T01:34:44Z</time>
      </trkpt>
      <trkpt lat="43.72269" lon="6.86691">
        <ele>1041</ele>
        <time>2012-05-03T01:34:57Z</time>
      </trkpt>
      <trkpt lat="43.72276" lon="6.86717">
        <ele>1047</ele>
        <time>2012-05-03T01:35:14Z</time>
      </trkpt>
      <trkpt lat="43.72283" lon="6.8685">
        <ele>1076</ele>
        <time>2012-05-03T01:36:36Z</time>
      </trkpt>
      <trkpt lat="43.72275" lon="6.8693">
        <ele>1068</ele>
        <time>2012-05-03T01:36:44Z</time>
      </trkpt>
      <trkpt lat="43.72282" lon="6.86943">
        <ele>1067</ele>
        <time>2012-05-03T01:36:46Z</time>
      </trkpt>
      <trkpt lat="43.72293" lon="6.86949">
        <ele>1066</ele>
        <time>2012-05-03T01:36:47Z</time>
      </trkpt>
      <trkpt lat="43.72339" lon="6.8694">
        <ele>1060</ele>
        <time>2012-05-03T01:36:53Z</time>
      </trkpt>
      <trkpt lat="43.72423" lon="6.86902">
        <ele>1050</ele>
        <time>2012-05-03T01:37:05Z</time>
      </trkpt>
      <trkpt lat="43.72535" lon="6.86902">
        <ele>1048</ele>
        <time>2012-05-03T01:37:20Z</time>
      </trkpt>
      <trkpt lat="43.72619" lon="6.86886">
        <ele>1044</ele>
        <time>2012-05-03T01:37:32Z</time>
      </trkpt>
      <trkpt lat="43.72645" lon="6.86897">
        <ele>1044</ele>
        <time>2012-05-03T01:37:35Z</time>
      </trkpt>
      <trkpt lat="43.72645" lon="6.86897">
        <ele>1044</ele>
        <time>2012-05-03T01:37:36Z</time>
      </trkpt>
      <trkpt lat="43.72661" lon="6.8691">
        <ele>1048</ele>
        <time>2012-05-03T01:37:49Z</time>
      </trkpt>
      <trkpt lat="43.72677" lon="6.86937">
        <ele>1054</ele>
        <time>2012-05-03T01:38:06Z</time>
      </trkpt>
      <trkpt lat="43.72715" lon="6.87043">
        <ele>1074</ele>
        <time>2012-05-03T01:39:05Z</time>
      </trkpt>
      <trkpt lat="43.7276" lon="6.8712">
        <ele>1079</ele>
        <time>2012-05-03T01:39:29Z</time>
      </trkpt>
      <trkpt lat="43.72824" lon="6.87205">
        <ele>1087</ele>
        <time>2012-05-03T01:39:58Z</time>
      </trkpt>
      <trkpt lat="43.72866" lon="6.87248">
        <ele>1083</ele>
        <time>2012-05-03T01:40:05Z</time>
      </trkpt>
      <trkpt lat="43.72938" lon="6.87304">
        <ele>1078</ele>
        <time>2012-05-03T01:40:16Z</time>
      </trkpt>
      <trkpt lat="43.73034" lon="6.87368">
        <ele>1061</ele>
        <time>2012-05-03T01:40:30Z</time>
      </trkpt>
      <trkpt lat="43.73227" lon="6.87524">
        <ele>1051</ele>
        <time>2012-05-03T01:41:00Z</time>
      </trkpt>
      <trkpt lat="43.73264" lon="6.87546">
        <ele>1049</ele>
        <time>2012-05-03T01:41:06Z</time>
      </trkpt>
      <trkpt lat="43.73318" lon="6.87567">
        <ele>1047</ele>
        <time>2012-05-03T01:41:13Z</time>
      </trkpt>
      <trkpt lat="43.73427" lon="6.87593">
        <ele>1042</ele>
        <time>2012-05-03T01:41:28Z</time>
      </trkpt>
      <trkpt lat="43.73464" lon="6.87592">
        <ele>1036</ele>
        <time>2012-05-03T01:41:33Z</time>
      </trkpt>
      <trkpt lat="43.73528" lon="6.87578">
        <ele>1027</ele>
        <time>2012-05-03T01:41:41Z</time>
      </trkpt>
      <trkpt lat="43.73583" lon="6.87579">
        <ele>1030</ele>
        <time>2012-05-03T01:41:57Z</time>
      </trkpt>
      <trkpt lat="43.73774" lon="6.87616">
        <ele>1042</ele>
        <time>2012-05-03T01:42:51Z</time>
      </trkpt>
      <trkpt lat="43.73807" lon="6.87609">
        <ele>1037</ele>
        <time>2012-05-03T01:42:55Z</time>
      </trkpt>
      <trkpt lat="43.73833" lon="6.87592">
        <ele>1033</ele>
        <time>2012-05-03T01:42:59Z</time>
      </trkpt>
      <trkpt lat="43.7388" lon="6.87542">
        <ele>1025</ele>
        <time>2012-05-03T01:43:07Z</time>
      </trkpt>
      <trkpt lat="43.7391" lon="6.87501">
        <ele>1017</ele>
        <time>2012-05-03T01:43:12Z</time>
      </trkpt>
      <trkpt lat="43.73937" lon="6.87479">
        <ele>1011</ele>
        <time>2012-05-03T01:43:17Z</time>
      </trkpt>
      <trkpt lat="43.73972" lon="6.8746">
        <ele>1005</ele>
        <time>2012-05-03T01:43:22Z</time>
      </trkpt>
      <trkpt lat="43.74001" lon="6.87456">
        <ele>1011</ele>
        <time>2012-05-03T01:43:40Z</time>
      </trkpt>
      <trkpt lat="43.74049" lon="6.87458">
        <ele>1021</ele>
        <time>2012-05-03T01:44:11Z</time>
      </trkpt>
      <trkpt lat="43.74067" lon="6.87453">
        <ele>1025</ele>
        <time>2012-05-03T01:44:22Z</time>
      </trkpt>
      <trkpt lat="43.74078" lon="6.87439">
        <ele>1023</ele>
        <time>2012-05-03T01:44:24Z</time>
      </trkpt>
      <trkpt lat="43.74098" lon="6.8739">
        <ele>1018</ele>
        <time>2012-05-03T01:44:30Z</time>
      </trkpt>
      <trkpt lat="43.74157" lon="6.87305">
        <ele>1008</ele>
        <time>2012-05-03T01:44:41Z</time>
      </trkpt>
      <trkpt lat="43.74211" lon="6.87201">
        <ele>1002</ele>
        <time>2012-05-03T01:44:54Z</time>
      </trkpt>
      <trkpt lat="43.7423" lon="6.87174">
        <ele>1005</ele>
        <time>2012-05-03T01:45:06Z</time>
      </trkpt>
      <trkpt lat="43.74252" lon="6.87166">
        <ele>1009</ele>
        <time>2012-05-03T01:45:17Z</time>
      </trkpt>
      <trkpt lat="43.74322" lon="6.87157">
        <ele>1019</ele>
        <time>2012-05-03T01:45:50Z</time>
      </trkpt>
      <trkpt lat="43.74431" lon="6.87096">
        <ele>1021</ele>
        <time>2012-05-03T01:46:11Z</time>
      </trkpt>
      <trkpt lat="43.74457" lon="6.87058">
        <ele>1020</ele>
        <time>2012-05-03T01:46:16Z</time>
      </trkpt>
      <trkpt lat="43.7447" lon="6.87046">
        <ele>1020</ele>
        <time>2012-05-03T01:46:18Z</time>
      </trkpt>
      <trkpt lat="43.74532" lon="6.87019">
        <ele>1020</ele>
        <time>2012-05-03T01:46:27Z</time>
      </trkpt>
      <trkpt lat="43.74553" lon="6.87017">
        <ele>1025</ele>
        <time>2012-05-03T01:46:43Z</time>
      </trkpt>
      <trkpt lat="43.74569" lon="6.87022">
        <ele>1030</ele>
        <time>2012-05-03T01:46:57Z</time>
      </trkpt>
      <trkpt lat="43.74628" lon="6.87068">
        <ele>1049</ele>
        <time>2012-05-03T01:47:50Z</time>
      </trkpt>
      <trkpt lat="43.74648" lon="6.87074">
        <ele>1050</ele>
        <time>2012-05-03T01:47:56Z</time>
      </trkpt>
      <trkpt lat="43.74697" lon="6.87065">
        <ele>1053</ele>
        <time>2012-05-03T01:48:11Z</time>
      </trkpt>
      <trkpt lat="43.74751" lon="6.87074">
        <ele>1057</ele>
        <time>2012-05-03T01:48:26Z</time>
      </trkpt>
      <trkpt lat="43.74822" lon="6.87054">
        <ele>1058</ele>
        <time>2012-05-03T01:48:40Z</time>
      </trkpt>
      <trkpt lat="43.74913" lon="6.87058">
        <ele>1061</ele>
        <time>2012-05-03T01:48:58Z</time>
      </trkpt>
      <trkpt lat="43.74938" lon="6.87041">
        <ele>1059</ele>
        <time>2012-05-03T01:49:01Z</time>
      </trkpt>
      <trkpt lat="43.7499" lon="6.86979">
        <ele>1056</ele>
        <time>2012-05-03T01:49:11Z</time>
      </trkpt>
      <trkpt lat="43.75027" lon="6.86942">
        <ele>1056</ele>
        <time>2012-05-03T01:49:18Z</time>
      </trkpt>
      <trkpt lat="43.75061" lon="6.86922">
        <ele>1056</ele>
        <time>2012-05-03T01:49:23Z</time>
      </trkpt>
      <trkpt lat="43.75087" lon="6.8692">
        <ele>1057</ele>
        <time>2012-05-03T01:49:27Z</time>
      </trkpt>
      <trkpt lat="43.75102" lon="6.8693">
        <ele>1059</ele>
        <time>2012-05-03T01:49:35Z</time>
      </trkpt>
      <trkpt lat="43.75112" lon="6.86945">
        <ele>1061</ele>
        <time>2012-05-03T01:49:42Z</time>
      </trkpt>
      <trkpt lat="43.75117" lon="6.86965">
        <ele>1063</ele>
        <time>2012-05-03T01:49:49Z</time>
      </trkpt>
      <trkpt lat="43.75117" lon="6.86984">
        <ele>1065</ele>
        <time>2012-05-03T01:49:55Z</time>
      </trkpt>
      <trkpt lat="43.75116" lon="6.87">
        <ele>1066</ele>
        <time>2012-05-03T01:50:00Z</time>
      </trkpt>
      <trkpt lat="43.75091" lon="6.87103">
        <ele>1077</ele>
        <time>2012-05-03T01:50:36Z</time>
      </trkpt>
      <trkpt lat="43.75058" lon="6.87221">
        <ele>1081</ele>
        <time>2012-05-03T01:50:57Z</time>
      </trkpt>
      <trkpt lat="43.75058" lon="6.87242">
        <ele>1080</ele>
        <time>2012-05-03T01:50:59Z</time>
      </trkpt>
      <trkpt lat="43.75065" lon="6.87254">
        <ele>1080</ele>
        <time>2012-05-03T01:51:01Z</time>
      </trkpt>
      <trkpt lat="43.75076" lon="6.8726">
        <ele>1079</ele>
        <time>2012-05-03T01:51:02Z</time>
      </trkpt>
      <trkpt lat="43.75086" lon="6.87255">
        <ele>1079</ele>
        <time>2012-05-03T01:51:04Z</time>
      </trkpt>
      <trkpt lat="43.75095" lon="6.87241">
        <ele>1078</ele>
        <time>2012-05-03T01:51:06Z</time>
      </trkpt>
      <trkpt lat="43.75108" lon="6.8721">
        <ele>1077</ele>
        <time>2012-05-03T01:51:09Z</time>
      </trkpt>
      <trkpt lat="43.75154" lon="6.87135">
        <ele>1075</ele>
        <time>2012-05-03T01:51:19Z</time>
      </trkpt>
      <trkpt lat="43.75193" lon="6.87051">
        <ele>1069</ele>
        <time>2012-05-03T01:51:28Z</time>
      </trkpt>
      <trkpt lat="43.75203" lon="6.87038">
        <ele>1068</ele>
        <time>2012-05-03T01:51:30Z</time>
      </trkpt>
      <trkpt lat="43.75238" lon="6.87026">
        <ele>1066</ele>
        <time>2012-05-03T01:51:35Z</time>
      </trkpt>
      <trkpt lat="43.75238" lon="6.87025">
        <ele>1066</ele>
        <time>2012-05-03T01:51:35Z</time>
      </trkpt>
      <trkpt lat="43.75312" lon="6.87001">
        <ele>1076</ele>
        <time>2012-05-03T01:52:11Z</time>
      </trkpt>
      <trkpt lat="43.75365" lon="6.87003">
        <ele>1084</ele>
        <time>2012-05-03T01:52:35Z</time>
      </trkpt>
      <trkpt lat="43.75384" lon="6.86997">
        <ele>1086</ele>
        <time>2012-05-03T01:52:44Z</time>
      </trkpt>
      <trkpt lat="43.75411" lon="6.86979">
        <ele>1090</ele>
        <time>2012-05-03T01:52:57Z</time>
      </trkpt>
      <trkpt lat="43.75467" lon="6.86916">
        <ele>1099</ele>
        <time>2012-05-03T01:53:28Z</time>
      </trkpt>
      <trkpt lat="43.755" lon="6.86868">
        <ele>1095</ele>
        <time>2012-05-03T01:53:34Z</time>
      </trkpt>
      <trkpt lat="43.75543" lon="6.86759">
        <ele>1089</ele>
        <time>2012-05-03T01:53:46Z</time>
      </trkpt>
      <trkpt lat="43.75555" lon="6.86744">
        <ele>1091</ele>
        <time>2012-05-03T01:53:54Z</time>
      </trkpt>
      <trkpt lat="43.75631" lon="6.86685">
        <ele>1105</ele>
        <time>2012-05-03T01:54:38Z</time>
      </trkpt>
      <trkpt lat="43.75708" lon="6.86567">
        <ele>1104</ele>
        <time>2012-05-03T01:54:54Z</time>
      </trkpt>
      <trkpt lat="43.75732" lon="6.86506">
        <ele>1100</ele>
        <time>2012-05-03T01:55:00Z</time>
      </trkpt>
      <trkpt lat="43.75745" lon="6.86483">
        <ele>1099</ele>
        <time>2012-05-03T01:55:03Z</time>
      </trkpt>
      <trkpt lat="43.7576" lon="6.86463">
        <ele>1098</ele>
        <time>2012-05-03T01:55:06Z</time>
      </trkpt>
      <trkpt lat="43.75818" lon="6.86412">
        <ele>1103</ele>
        <time>2012-05-03T01:55:28Z</time>
      </trkpt>
      <trkpt lat="43.75886" lon="6.86323">
        <ele>1111</ele>
        <time>2012-05-03T01:55:59Z</time>
      </trkpt>
      <trkpt lat="43.75894" lon="6.86306">
        <ele>1111</ele>
        <time>2012-05-03T01:56:02Z</time>
      </trkpt>
      <trkpt lat="43.75919" lon="6.86201">
        <ele>1115</ele>
        <time>2012-05-03T01:56:21Z</time>
      </trkpt>
      <trkpt lat="43.75944" lon="6.86136">
        <ele>1124</ele>
        <time>2012-05-03T01:56:51Z</time>
      </trkpt>
      <trkpt lat="43.75955" lon="6.86092">
        <ele>1130</ele>
        <time>2012-05-03T01:57:10Z</time>
      </trkpt>
      <trkpt lat="43.75959" lon="6.8602">
        <ele>1140</ele>
        <time>2012-05-03T01:57:40Z</time>
      </trkpt>
      <trkpt lat="43.75967" lon="6.85991">
        <ele>1137</ele>
        <time>2012-05-03T01:57:43Z</time>
      </trkpt>
      <trkpt lat="43.75978" lon="6.85972">
        <ele>1136</ele>
        <time>2012-05-03T01:57:45Z</time>
      </trkpt>
      <trkpt lat="43.75999" lon="6.85955">
        <ele>1134</ele>
        <time>2012-05-03T01:57:48Z</time>
      </trkpt>
      <trkpt lat="43.76029" lon="6.85953">
        <ele>1131</ele>
        <time>2012-05-03T01:57:52Z</time>
      </trkpt>
      <trkpt lat="43.76081" lon="6.85991">
        <ele>1126</ele>
        <time>2012-05-03T01:58:00Z</time>
      </trkpt>
      <trkpt lat="43.76105" lon="6.85991">
        <ele>1127</ele>
        <time>2012-05-03T01:58:08Z</time>
      </trkpt>
      <trkpt lat="43.76121" lon="6.85967">
        <ele>1129</ele>
        <time>2012-05-03T01:58:15Z</time>
      </trkpt>
      <trkpt lat="43.76169" lon="6.85847">
        <ele>1137</ele>
        <time>2012-05-03T01:58:46Z</time>
      </trkpt>
      <trkpt lat="43.76193" lon="6.8583">
        <ele>1133</ele>
        <time>2012-05-03T01:58:50Z</time>
      </trkpt>
      <trkpt lat="43.76254" lon="6.85816">
        <ele>1125</ele>
        <time>2012-05-03T01:58:58Z</time>
      </trkpt>
      <trkpt lat="43.76276" lon="6.85798">
        <ele>1122</ele>
        <time>2012-05-03T01:59:01Z</time>
      </trkpt>
      <trkpt lat="43.76346" lon="6.85671">
        <ele>1139</ele>
        <time>2012-05-03T01:59:58Z</time>
      </trkpt>
      <trkpt lat="43.76367" lon="6.85639">
        <ele>1139</ele>
        <time>2012-05-03T02:00:03Z</time>
      </trkpt>
      <trkpt lat="43.76394" lon="6.85615">
        <ele>1140</ele>
        <time>2012-05-03T02:00:09Z</time>
      </trkpt>
      <trkpt lat="43.76456" lon="6.85581">
        <ele>1142</ele>
        <time>2012-05-03T02:00:22Z</time>
      </trkpt>
      <trkpt lat="43.76484" lon="6.85573">
        <ele>1137</ele>
        <time>2012-05-03T02:00:26Z</time>
      </trkpt>
      <trkpt lat="43.76505" lon="6.85574">
        <ele>1133</ele>
        <time>2012-05-03T02:00:29Z</time>
      </trkpt>
      <trkpt lat="43.76592" lon="6.85599">
        <ele>1119</ele>
        <time>2012-05-03T02:00:41Z</time>
      </trkpt>
      <trkpt lat="43.76721" lon="6.85669">
        <ele>1103</ele>
        <time>2012-05-03T02:00:59Z</time>
      </trkpt>
      <trkpt lat="43.76758" lon="6.85674">
        <ele>1104</ele>
        <time>2012-05-03T02:01:08Z</time>
      </trkpt>
      <trkpt lat="43.76877" lon="6.8564">
        <ele>1110</ele>
        <time>2012-05-03T02:01:37Z</time>
      </trkpt>
      <trkpt lat="43.77041" lon="6.85574">
        <ele>1126</ele>
        <time>2012-05-03T02:02:38Z</time>
      </trkpt>
      <trkpt lat="43.77225" lon="6.85523">
        <ele>1127</ele>
        <time>2012-05-03T02:03:06Z</time>
      </trkpt>
      <trkpt lat="43.77272" lon="6.85523">
        <ele>1119</ele>
        <time>2012-05-03T02:03:12Z</time>
      </trkpt>
      <trkpt lat="43.77344" lon="6.85547">
        <ele>1108</ele>
        <time>2012-05-03T02:03:22Z</time>
      </trkpt>
      <trkpt lat="43.77369" lon="6.8555">
        <ele>1108</ele>
        <time>2012-05-03T02:03:26Z</time>
      </trkpt>
      <trkpt lat="43.77384" lon="6.8555">
        <ele>1108</ele>
        <time>2012-05-03T02:03:29Z</time>
      </trkpt>
      <trkpt lat="43.77404" lon="6.85539">
        <ele>1109</ele>
        <time>2012-05-03T02:03:33Z</time>
      </trkpt>
      <trkpt lat="43.77446" lon="6.85478">
        <ele>1110</ele>
        <time>2012-05-03T02:03:43Z</time>
      </trkpt>
      <trkpt lat="43.7747" lon="6.85422">
        <ele>1114</ele>
        <time>2012-05-03T02:04:01Z</time>
      </trkpt>
      <trkpt lat="43.77498" lon="6.85379">
        <ele>1119</ele>
        <time>2012-05-03T02:04:17Z</time>
      </trkpt>
      <trkpt lat="43.77541" lon="6.85326">
        <ele>1125</ele>
        <time>2012-05-03T02:04:39Z</time>
      </trkpt>
      <trkpt lat="43.77572" lon="6.85305">
        <ele>1125</ele>
        <time>2012-05-03T02:04:45Z</time>
      </trkpt>
      <trkpt lat="43.77596" lon="6.85276">
        <ele>1126</ele>
        <time>2012-05-03T02:04:52Z</time>
      </trkpt>
      <trkpt lat="43.77607" lon="6.8525">
        <ele>1127</ele>
        <time>2012-05-03T02:04:56Z</time>
      </trkpt>
      <trkpt lat="43.77621" lon="6.8516">
        <ele>1129</ele>
        <time>2012-05-03T02:05:09Z</time>
      </trkpt>
      <trkpt lat="43.77647" lon="6.85105">
        <ele>1129</ele>
        <time>2012-05-03T02:05:15Z</time>
      </trkpt>
      <trkpt lat="43.7767" lon="6.85036">
        <ele>1129</ele>
        <time>2012-05-03T02:05:23Z</time>
      </trkpt>
      <trkpt lat="43.77708" lon="6.84978">
        <ele>1123</ele>
        <time>2012-05-03T02:05:30Z</time>
      </trkpt>
      <trkpt lat="43.77733" lon="6.84874">
        <ele>1117</ele>
        <time>2012-05-03T02:05:41Z</time>
      </trkpt>
      <trkpt lat="43.77738" lon="6.8483">
        <ele>1116</ele>
        <time>2012-05-03T02:05:45Z</time>
      </trkpt>
      <trkpt lat="43.77716" lon="6.84675">
        <ele>1116</ele>
        <time>2012-05-03T02:06:00Z</time>
      </trkpt>
      <trkpt lat="43.77716" lon="6.84675">
        <ele>1116</ele>
        <time>2012-05-03T02:06:01Z</time>
      </trkpt>
      <trkpt lat="43.77701" lon="6.84543">
        <ele>1114</ele>
        <time>2012-05-03T02:06:14Z</time>
      </trkpt>
      <trkpt lat="43.77696" lon="6.84523">
        <ele>1114</ele>
        <time>2012-05-03T02:06:18Z</time>
      </trkpt>
      <trkpt lat="43.77667" lon="6.84466">
        <ele>1117</ele>
        <time>2012-05-03T02:06:31Z</time>
      </trkpt>
      <trkpt lat="43.77649" lon="6.8442">
        <ele>1119</ele>
        <time>2012-05-03T02:06:40Z</time>
      </trkpt>
      <trkpt lat="43.77614" lon="6.84286">
        <ele>1119</ele>
        <time>2012-05-03T02:06:54Z</time>
      </trkpt>
      <trkpt lat="43.77594" lon="6.84256">
        <ele>1122</ele>
        <time>2012-05-03T02:07:06Z</time>
      </trkpt>
      <trkpt lat="43.77583" lon="6.8425">
        <ele>1124</ele>
        <time>2012-05-03T02:07:11Z</time>
      </trkpt>
      <trkpt lat="43.77518" lon="6.84248">
        <ele>1132</ele>
        <time>2012-05-03T02:07:39Z</time>
      </trkpt>
      <trkpt lat="43.77494" lon="6.84229">
        <ele>1130</ele>
        <time>2012-05-03T02:07:43Z</time>
      </trkpt>
      <trkpt lat="43.77489" lon="6.8421">
        <ele>1129</ele>
        <time>2012-05-03T02:07:45Z</time>
      </trkpt>
      <trkpt lat="43.7749" lon="6.84183">
        <ele>1128</ele>
        <time>2012-05-03T02:07:47Z</time>
      </trkpt>
      <trkpt lat="43.77508" lon="6.84072">
        <ele>1125</ele>
        <time>2012-05-03T02:07:58Z</time>
      </trkpt>
      <trkpt lat="43.77502" lon="6.84023">
        <ele>1125</ele>
        <time>2012-05-03T02:08:04Z</time>
      </trkpt>
      <trkpt lat="43.77486" lon="6.8398">
        <ele>1125</ele>
        <time>2012-05-03T02:08:09Z</time>
      </trkpt>
      <trkpt lat="43.77447" lon="6.83904">
        <ele>1126</ele>
        <time>2012-05-03T02:08:19Z</time>
      </trkpt>
      <trkpt lat="43.77379" lon="6.83839">
        <ele>1131</ele>
        <time>2012-05-03T02:08:43Z</time>
      </trkpt>
      <trkpt lat="43.7736" lon="6.83809">
        <ele>1133</ele>
        <time>2012-05-03T02:08:51Z</time>
      </trkpt>
      <trkpt lat="43.77347" lon="6.83778">
        <ele>1130</ele>
        <time>2012-05-03T02:08:54Z</time>
      </trkpt>
      <trkpt lat="43.77348" lon="6.8375">
        <ele>1128</ele>
        <time>2012-05-03T02:08:57Z</time>
      </trkpt>
      <trkpt lat="43.77361" lon="6.83732">
        <ele>1127</ele>
        <time>2012-05-03T02:08:59Z</time>
      </trkpt>
      <trkpt lat="43.77425" lon="6.83717">
        <ele>1121</ele>
        <time>2012-05-03T02:09:08Z</time>
      </trkpt>
      <trkpt lat="43.77444" lon="6.83701">
        <ele>1120</ele>
        <time>2012-05-03T02:09:11Z</time>
      </trkpt>
      <trkpt lat="43.7745" lon="6.83673">
        <ele>1119</ele>
        <time>2012-05-03T02:09:14Z</time>
      </trkpt>
      <trkpt lat="43.77445" lon="6.83567">
        <ele>1117</ele>
        <time>2012-05-03T02:09:24Z</time>
      </trkpt>
      <trkpt lat="43.77447" lon="6.83505">
        <ele>1116</ele>
        <time>2012-05-03T02:09:30Z</time>
      </trkpt>
      <trkpt lat="43.7743" lon="6.83272">
        <ele>1115</ele>
        <time>2012-05-03T02:09:53Z</time>
      </trkpt>
      <trkpt lat="43.77398" lon="6.83032">
        <ele>1110</ele>
        <time>2012-05-03T02:10:16Z</time>
      </trkpt>
      <trkpt lat="43.7739" lon="6.82857">
        <ele>1101</ele>
        <time>2012-05-03T02:10:33Z</time>
      </trkpt>
      <trkpt lat="43.77369" lon="6.82663">
        <ele>1094</ele>
        <time>2012-05-03T02:10:52Z</time>
      </trkpt>
      <trkpt lat="43.77361" lon="6.82609">
        <ele>1096</ele>
        <time>2012-05-03T02:11:04Z</time>
      </trkpt>
      <trkpt lat="43.77338" lon="6.82537">
        <ele>1101</ele>
        <time>2012-05-03T02:11:22Z</time>
      </trkpt>
      <trkpt lat="43.77354" lon="6.82452">
        <ele>1097</ele>
        <time>2012-05-03T02:11:30Z</time>
      </trkpt>
      <trkpt lat="43.77345" lon="6.82075">
        <ele>1082</ele>
        <time>2012-05-03T02:12:07Z</time>
      </trkpt>
      <trkpt lat="43.77341" lon="6.82042">
        <ele>1081</ele>
        <time>2012-05-03T02:12:10Z</time>
      </trkpt>
      <trkpt lat="43.77332" lon="6.82014">
        <ele>1080</ele>
        <time>2012-05-03T02:12:13Z</time>
      </trkpt>
      <trkpt lat="43.77302" lon="6.81965">
        <ele>1079</ele>
        <time>2012-05-03T02:12:19Z</time>
      </trkpt>
      <trkpt lat="43.77276" lon="6.81932">
        <ele>1079</ele>
        <time>2012-05-03T02:12:24Z</time>
      </trkpt>
      <trkpt lat="43.77276" lon="6.81932">
        <ele>1079</ele>
        <time>2012-05-03T02:12:25Z</time>
      </trkpt>
      <trkpt lat="43.77224" lon="6.81875">
        <ele>1077</ele>
        <time>2012-05-03T02:12:34Z</time>
      </trkpt>
      <trkpt lat="43.77204" lon="6.81859">
        <ele>1076</ele>
        <time>2012-05-03T02:12:37Z</time>
      </trkpt>
      <trkpt lat="43.77159" lon="6.81838">
        <ele>1075</ele>
        <time>2012-05-03T02:12:43Z</time>
      </trkpt>
      <trkpt lat="43.77071" lon="6.81724">
        <ele>1070</ele>
        <time>2012-05-03T02:12:59Z</time>
      </trkpt>
      <trkpt lat="43.77052" lon="6.81691">
        <ele>1069</ele>
        <time>2012-05-03T02:13:03Z</time>
      </trkpt>
      <trkpt lat="43.77052" lon="6.81674">
        <ele>1069</ele>
        <time>2012-05-03T02:13:05Z</time>
      </trkpt>
      <trkpt lat="43.77058" lon="6.81659">
        <ele>1068</ele>
        <time>2012-05-03T02:13:07Z</time>
      </trkpt>
      <trkpt lat="43.77069" lon="6.81648">
        <ele>1068</ele>
        <time>2012-05-03T02:13:08Z</time>
      </trkpt>
      <trkpt lat="43.77085" lon="6.81647">
        <ele>1068</ele>
        <time>2012-05-03T02:13:10Z</time>
      </trkpt>
      <trkpt lat="43.77107" lon="6.81663">
        <ele>1067</ele>
        <time>2012-05-03T02:13:14Z</time>
      </trkpt>
      <trkpt lat="43.77149" lon="6.81719">
        <ele>1066</ele>
        <time>2012-05-03T02:13:22Z</time>
      </trkpt>
      <trkpt lat="43.77162" lon="6.81728">
        <ele>1066</ele>
        <time>2012-05-03T02:13:24Z</time>
      </trkpt>
      <trkpt lat="43.77237" lon="6.81719">
        <ele>1070</ele>
        <time>2012-05-03T02:13:45Z</time>
      </trkpt>
      <trkpt lat="43.77255" lon="6.81727">
        <ele>1072</ele>
        <time>2012-05-03T02:13:51Z</time>
      </trkpt>
      <trkpt lat="43.77276" lon="6.81749">
        <ele>1073</ele>
        <time>2012-05-03T02:13:58Z</time>
      </trkpt>
      <trkpt lat="43.77318" lon="6.81764">
        <ele>1076</ele>
        <time>2012-05-03T02:14:12Z</time>
      </trkpt>
      <trkpt lat="43.77348" lon="6.81766">
        <ele>1079</ele>
        <time>2012-05-03T02:14:21Z</time>
      </trkpt>
      <trkpt lat="43.77365" lon="6.81756">
        <ele>1080</ele>
        <time>2012-05-03T02:14:27Z</time>
      </trkpt>
      <trkpt lat="43.77373" lon="6.81757">
        <ele>1081</ele>
        <time>2012-05-03T02:14:30Z</time>
      </trkpt>
      <trkpt lat="43.77442" lon="6.81804">
        <ele>1089</ele>
        <time>2012-05-03T02:14:58Z</time>
      </trkpt>
      <trkpt lat="43.77522" lon="6.81885">
        <ele>1089</ele>
        <time>2012-05-03T02:15:12Z</time>
      </trkpt>
      <trkpt lat="43.77532" lon="6.81888">
        <ele>1091</ele>
        <time>2012-05-03T02:15:18Z</time>
      </trkpt>
      <trkpt lat="43.77549" lon="6.81883">
        <ele>1095</ele>
        <time>2012-05-03T02:15:30Z</time>
      </trkpt>
      <trkpt lat="43.77584" lon="6.81864">
        <ele>1103</ele>
        <time>2012-05-03T02:15:55Z</time>
      </trkpt>
      <trkpt lat="43.77606" lon="6.81867">
        <ele>1108</ele>
        <time>2012-05-03T02:16:09Z</time>
      </trkpt>
      <trkpt lat="43.77635" lon="6.81883">
        <ele>1115</ele>
        <time>2012-05-03T02:16:30Z</time>
      </trkpt>
      <trkpt lat="43.77658" lon="6.81922">
        <ele>1115</ele>
        <time>2012-05-03T02:16:37Z</time>
      </trkpt>
      <trkpt lat="43.77705" lon="6.81968">
        <ele>1117</ele>
        <time>2012-05-03T02:16:47Z</time>
      </trkpt>
      <trkpt lat="43.77756" lon="6.82035">
        <ele>1117</ele>
        <time>2012-05-03T02:16:57Z</time>
      </trkpt>
      <trkpt lat="43.7776" lon="6.82066">
        <ele>1117</ele>
        <time>2012-05-03T02:17:00Z</time>
      </trkpt>
      <trkpt lat="43.77751" lon="6.82118">
        <ele>1117</ele>
        <time>2012-05-03T02:17:05Z</time>
      </trkpt>
      <trkpt lat="43.77751" lon="6.82196">
        <ele>1113</ele>
        <time>2012-05-03T02:17:12Z</time>
      </trkpt>
      <trkpt lat="43.77756" lon="6.82284">
        <ele>1110</ele>
        <time>2012-05-03T02:17:21Z</time>
      </trkpt>
      <trkpt lat="43.77762" lon="6.82323">
        <ele>1115</ele>
        <time>2012-05-03T02:17:39Z</time>
      </trkpt>
      <trkpt lat="43.77771" lon="6.82341">
        <ele>1119</ele>
        <time>2012-05-03T02:17:49Z</time>
      </trkpt>
      <trkpt lat="43.77785" lon="6.8235">
        <ele>1122</ele>
        <time>2012-05-03T02:17:59Z</time>
      </trkpt>
      <trkpt lat="43.77801" lon="6.82351">
        <ele>1125</ele>
        <time>2012-05-03T02:18:09Z</time>
      </trkpt>
      <trkpt lat="43.77865" lon="6.82318">
        <ele>1140</ele>
        <time>2012-05-03T02:18:52Z</time>
      </trkpt>
      <trkpt lat="43.77914" lon="6.82301">
        <ele>1150</ele>
        <time>2012-05-03T02:19:23Z</time>
      </trkpt>
      <trkpt lat="43.77914" lon="6.82301">
        <ele>1150</ele>
        <time>2012-05-03T02:19:24Z</time>
      </trkpt>
      <trkpt lat="43.77935" lon="6.82306">
        <ele>1150</ele>
        <time>2012-05-03T02:19:29Z</time>
      </trkpt>
      <trkpt lat="43.77951" lon="6.82323">
        <ele>1151</ele>
        <time>2012-05-03T02:19:34Z</time>
      </trkpt>
      <trkpt lat="43.77987" lon="6.82438">
        <ele>1156</ele>
        <time>2012-05-03T02:19:56Z</time>
      </trkpt>
      <trkpt lat="43.77998" lon="6.82507">
        <ele>1155</ele>
        <time>2012-05-03T02:20:03Z</time>
      </trkpt>
      <trkpt lat="43.78011" lon="6.82548">
        <ele>1154</ele>
        <time>2012-05-03T02:20:07Z</time>
      </trkpt>
      <trkpt lat="43.78057" lon="6.82628">
        <ele>1154</ele>
        <time>2012-05-03T02:20:17Z</time>
      </trkpt>
      <trkpt lat="43.78084" lon="6.82718">
        <ele>1152</ele>
        <time>2012-05-03T02:20:26Z</time>
      </trkpt>
      <trkpt lat="43.781" lon="6.8274">
        <ele>1152</ele>
        <time>2012-05-03T02:20:29Z</time>
      </trkpt>
      <trkpt lat="43.78133" lon="6.82772">
        <ele>1151</ele>
        <time>2012-05-03T02:20:35Z</time>
      </trkpt>
      <trkpt lat="43.78144" lon="6.82791">
        <ele>1151</ele>
        <time>2012-05-03T02:20:37Z</time>
      </trkpt>
      <trkpt lat="43.78167" lon="6.82959">
        <ele>1150</ele>
        <time>2012-05-03T02:20:54Z</time>
      </trkpt>
      <trkpt lat="43.78187" lon="6.83001">
        <ele>1153</ele>
        <time>2012-05-03T02:21:06Z</time>
      </trkpt>
      <trkpt lat="43.78204" lon="6.83017">
        <ele>1155</ele>
        <time>2012-05-03T02:21:14Z</time>
      </trkpt>
      <trkpt lat="43.78254" lon="6.83038">
        <ele>1160</ele>
        <time>2012-05-03T02:21:32Z</time>
      </trkpt>
      <trkpt lat="43.7829" lon="6.83107">
        <ele>1166</ele>
        <time>2012-05-03T02:21:57Z</time>
      </trkpt>
      <trkpt lat="43.78512" lon="6.8339">
        <ele>1201</ele>
        <time>2012-05-03T02:23:59Z</time>
      </trkpt>
      <trkpt lat="43.78535" lon="6.83406">
        <ele>1207</ele>
        <time>2012-05-03T02:24:19Z</time>
      </trkpt>
      <trkpt lat="43.78671" lon="6.83463">
        <ele>1245</ele>
        <time>2012-05-03T02:26:07Z</time>
      </trkpt>
      <trkpt lat="43.78687" lon="6.83479">
        <ele>1245</ele>
        <time>2012-05-03T02:26:10Z</time>
      </trkpt>
      <trkpt lat="43.78703" lon="6.83519">
        <ele>1245</ele>
        <time>2012-05-03T02:26:14Z</time>
      </trkpt>
      <trkpt lat="43.7872" lon="6.83583">
        <ele>1245</ele>
        <time>2012-05-03T02:26:21Z</time>
      </trkpt>
      <trkpt lat="43.78743" lon="6.8372">
        <ele>1230</ele>
        <time>2012-05-03T02:26:34Z</time>
      </trkpt>
      <trkpt lat="43.78773" lon="6.83805">
        <ele>1225</ele>
        <time>2012-05-03T02:26:43Z</time>
      </trkpt>
      <trkpt lat="43.7878" lon="6.8396">
        <ele>1218</ele>
        <time>2012-05-03T02:26:58Z</time>
      </trkpt>
      <trkpt lat="43.78766" lon="6.84041">
        <ele>1215</ele>
        <time>2012-05-03T02:27:06Z</time>
      </trkpt>
      <trkpt lat="43.78779" lon="6.84168">
        <ele>1212</ele>
        <time>2012-05-03T02:27:19Z</time>
      </trkpt>
      <trkpt lat="43.78801" lon="6.84226">
        <ele>1212</ele>
        <time>2012-05-03T02:27:26Z</time>
      </trkpt>
      <trkpt lat="43.78808" lon="6.84266">
        <ele>1212</ele>
        <time>2012-05-03T02:27:31Z</time>
      </trkpt>
      <trkpt lat="43.78805" lon="6.84486">
        <ele>1214</ele>
        <time>2012-05-03T02:27:55Z</time>
      </trkpt>
      <trkpt lat="43.78801" lon="6.84527">
        <ele>1206</ele>
        <time>2012-05-03T02:27:59Z</time>
      </trkpt>
      <trkpt lat="43.78796" lon="6.84551">
        <ele>1202</ele>
        <time>2012-05-03T02:28:01Z</time>
      </trkpt>
      <trkpt lat="43.78763" lon="6.84641">
        <ele>1185</ele>
        <time>2012-05-03T02:28:11Z</time>
      </trkpt>
      <trkpt lat="43.78765" lon="6.84668">
        <ele>1187</ele>
        <time>2012-05-03T02:28:19Z</time>
      </trkpt>
      <trkpt lat="43.78775" lon="6.84688">
        <ele>1189</ele>
        <time>2012-05-03T02:28:27Z</time>
      </trkpt>
      <trkpt lat="43.78846" lon="6.84742">
        <ele>1199</ele>
        <time>2012-05-03T02:29:01Z</time>
      </trkpt>
      <trkpt lat="43.78861" lon="6.84748">
        <ele>1200</ele>
        <time>2012-05-03T02:29:07Z</time>
      </trkpt>
      <trkpt lat="43.78903" lon="6.84752">
        <ele>1204</ele>
        <time>2012-05-03T02:29:23Z</time>
      </trkpt>
      <trkpt lat="43.78927" lon="6.84746">
        <ele>1207</ele>
        <time>2012-05-03T02:29:32Z</time>
      </trkpt>
      <trkpt lat="43.78958" lon="6.84729">
        <ele>1211</ele>
        <time>2012-05-03T02:29:45Z</time>
      </trkpt>
      <trkpt lat="43.79075" lon="6.84642">
        <ele>1226</ele>
        <time>2012-05-03T02:30:39Z</time>
      </trkpt>
      <trkpt lat="43.79088" lon="6.84622">
        <ele>1230</ele>
        <time>2012-05-03T02:30:52Z</time>
      </trkpt>
      <trkpt lat="43.79106" lon="6.84579">
        <ele>1238</ele>
        <time>2012-05-03T02:31:16Z</time>
      </trkpt>
      <trkpt lat="43.7913" lon="6.84541">
        <ele>1247</ele>
        <time>2012-05-03T02:31:41Z</time>
      </trkpt>
      <trkpt lat="43.79191" lon="6.84468">
        <ele>1240</ele>
        <time>2012-05-03T02:31:52Z</time>
      </trkpt>
      <trkpt lat="43.79267" lon="6.84398">
        <ele>1234</ele>
        <time>2012-05-03T02:32:04Z</time>
      </trkpt>
      <trkpt lat="43.79324" lon="6.84359">
        <ele>1226</ele>
        <time>2012-05-03T02:32:13Z</time>
      </trkpt>
      <trkpt lat="43.79423" lon="6.84212">
        <ele>1210</ele>
        <time>2012-05-03T02:32:32Z</time>
      </trkpt>
      <trkpt lat="43.79475" lon="6.84151">
        <ele>1200</ele>
        <time>2012-05-03T02:32:41Z</time>
      </trkpt>
      <trkpt lat="43.79512" lon="6.84075">
        <ele>1192</ele>
        <time>2012-05-03T02:32:50Z</time>
      </trkpt>
      <trkpt lat="43.7954" lon="6.84034">
        <ele>1188</ele>
        <time>2012-05-03T02:32:55Z</time>
      </trkpt>
      <trkpt lat="43.79583" lon="6.8399">
        <ele>1183</ele>
        <time>2012-05-03T02:33:03Z</time>
      </trkpt>
      <trkpt lat="43.79583" lon="6.8399">
        <ele>1183</ele>
        <time>2012-05-03T02:33:04Z</time>
      </trkpt>
      <trkpt lat="43.79626" lon="6.83959">
        <ele>1180</ele>
        <time>2012-05-03T02:33:10Z</time>
      </trkpt>
      <trkpt lat="43.79754" lon="6.83919">
        <ele>1175</ele>
        <time>2012-05-03T02:33:28Z</time>
      </trkpt>
      <trkpt lat="43.79811" lon="6.83915">
        <ele>1175</ele>
        <time>2012-05-03T02:33:35Z</time>
      </trkpt>
      <trkpt lat="43.79896" lon="6.83923">
        <ele>1175</ele>
        <time>2012-05-03T02:33:47Z</time>
      </trkpt>
      <trkpt lat="43.79946" lon="6.83918">
        <ele>1172</ele>
        <time>2012-05-03T02:33:53Z</time>
      </trkpt>
      <trkpt lat="43.79969" lon="6.83905">
        <ele>1170</ele>
        <time>2012-05-03T02:33:57Z</time>
      </trkpt>
      <trkpt lat="43.80081" lon="6.83797">
        <ele>1163</ele>
        <time>2012-05-03T02:34:15Z</time>
      </trkpt>
      <trkpt lat="43.80091" lon="6.83828">
        <ele>1163</ele>
        <time>2012-05-03T02:34:19Z</time>
      </trkpt>
      <trkpt lat="43.80137" lon="6.83898">
        <ele>1164</ele>
        <time>2012-05-03T02:34:30Z</time>
      </trkpt>
      <trkpt lat="43.80186" lon="6.83939">
        <ele>1164</ele>
        <time>2012-05-03T02:34:39Z</time>
      </trkpt>
      <trkpt lat="43.80215" lon="6.83951">
        <ele>1165</ele>
        <time>2012-05-03T02:34:44Z</time>
      </trkpt>
      <trkpt lat="43.80268" lon="6.8396">
        <ele>1166</ele>
        <time>2012-05-03T02:34:53Z</time>
      </trkpt>
      <trkpt lat="43.80317" lon="6.83944">
        <ele>1169</ele>
        <time>2012-05-03T02:35:09Z</time>
      </trkpt>
      <trkpt lat="43.80608" lon="6.83731">
        <ele>1193</ele>
        <time>2012-05-03T02:36:49Z</time>
      </trkpt>
      <trkpt lat="43.80665" lon="6.83683">
        <ele>1200</ele>
        <time>2012-05-03T02:37:16Z</time>
      </trkpt>
      <trkpt lat="43.80684" lon="6.83648">
        <ele>1204</ele>
        <time>2012-05-03T02:37:28Z</time>
      </trkpt>
      <trkpt lat="43.80703" lon="6.83561">
        <ele>1209</ele>
        <time>2012-05-03T02:37:50Z</time>
      </trkpt>
      <trkpt lat="43.8076" lon="6.83426">
        <ele>1219</ele>
        <time>2012-05-03T02:38:28Z</time>
      </trkpt>
      <trkpt lat="43.80766" lon="6.8334">
        <ele>1225</ele>
        <time>2012-05-03T02:38:51Z</time>
      </trkpt>
      <trkpt lat="43.80767" lon="6.83255">
        <ele>1231</ele>
        <time>2012-05-03T02:39:13Z</time>
      </trkpt>
      <trkpt lat="43.80765" lon="6.8322">
        <ele>1231</ele>
        <time>2012-05-03T02:39:17Z</time>
      </trkpt>
      <trkpt lat="43.80759" lon="6.83191">
        <ele>1231</ele>
        <time>2012-05-03T02:39:21Z</time>
      </trkpt>
      <trkpt lat="43.80723" lon="6.83092">
        <ele>1232</ele>
        <time>2012-05-03T02:39:33Z</time>
      </trkpt>
      <trkpt lat="43.80712" lon="6.83072">
        <ele>1229</ele>
        <time>2012-05-03T02:39:35Z</time>
      </trkpt>
      <trkpt lat="43.80641" lon="6.82979">
        <ele>1214</ele>
        <time>2012-05-03T02:39:48Z</time>
      </trkpt>
      <trkpt lat="43.80632" lon="6.82957">
        <ele>1217</ele>
        <time>2012-05-03T02:39:59Z</time>
      </trkpt>
      <trkpt lat="43.80632" lon="6.82936">
        <ele>1220</ele>
        <time>2012-05-03T02:40:09Z</time>
      </trkpt>
      <trkpt lat="43.80661" lon="6.82864">
        <ele>1232</ele>
        <time>2012-05-03T02:40:45Z</time>
      </trkpt>
      <trkpt lat="43.80679" lon="6.82803">
        <ele>1242</ele>
        <time>2012-05-03T02:41:14Z</time>
      </trkpt>
      <trkpt lat="43.80704" lon="6.82762">
        <ele>1248</ele>
        <time>2012-05-03T02:41:34Z</time>
      </trkpt>
      <trkpt lat="43.80724" lon="6.82716">
        <ele>1254</ele>
        <time>2012-05-03T02:41:54Z</time>
      </trkpt>
      <trkpt lat="43.80763" lon="6.82675">
        <ele>1262</ele>
        <time>2012-05-03T02:42:19Z</time>
      </trkpt>
      <trkpt lat="43.80786" lon="6.82671">
        <ele>1265</ele>
        <time>2012-05-03T02:42:32Z</time>
      </trkpt>
      <trkpt lat="43.80799" lon="6.82678">
        <ele>1268</ele>
        <time>2012-05-03T02:42:39Z</time>
      </trkpt>
      <trkpt lat="43.80808" lon="6.82693">
        <ele>1270</ele>
        <time>2012-05-03T02:42:47Z</time>
      </trkpt>
      <trkpt lat="43.80821" lon="6.82747">
        <ele>1277</ele>
        <time>2012-05-03T02:43:09Z</time>
      </trkpt>
      <trkpt lat="43.80836" lon="6.82765">
        <ele>1281</ele>
        <time>2012-05-03T02:43:20Z</time>
      </trkpt>
      <trkpt lat="43.80852" lon="6.8277">
        <ele>1281</ele>
        <time>2012-05-03T02:43:22Z</time>
      </trkpt>
      <trkpt lat="43.80874" lon="6.8277">
        <ele>1281</ele>
        <time>2012-05-03T02:43:25Z</time>
      </trkpt>
      <trkpt lat="43.80883" lon="6.82764">
        <ele>1281</ele>
        <time>2012-05-03T02:43:26Z</time>
      </trkpt>
      <trkpt lat="43.80943" lon="6.82693">
        <ele>1281</ele>
        <time>2012-05-03T02:43:37Z</time>
      </trkpt>
      <trkpt lat="43.80959" lon="6.82657">
        <ele>1281</ele>
        <time>2012-05-03T02:43:43Z</time>
      </trkpt>
      <trkpt lat="43.8097" lon="6.82618">
        <ele>1282</ele>
        <time>2012-05-03T02:43:49Z</time>
      </trkpt>
      <trkpt lat="43.80994" lon="6.82559">
        <ele>1284</ele>
        <time>2012-05-03T02:43:59Z</time>
      </trkpt>
      <trkpt lat="43.80997" lon="6.82542">
        <ele>1282</ele>
        <time>2012-05-03T02:44:00Z</time>
      </trkpt>
      <trkpt lat="43.80977" lon="6.82373">
        <ele>1273</ele>
        <time>2012-05-03T02:44:17Z</time>
      </trkpt>
      <trkpt lat="43.8098" lon="6.82339">
        <ele>1276</ele>
        <time>2012-05-03T02:44:28Z</time>
      </trkpt>
      <trkpt lat="43.81006" lon="6.82305">
        <ele>1280</ele>
        <time>2012-05-03T02:44:44Z</time>
      </trkpt>
      <trkpt lat="43.8104" lon="6.82247">
        <ele>1288</ele>
        <time>2012-05-03T02:45:08Z</time>
      </trkpt>
      <trkpt lat="43.81068" lon="6.82174">
        <ele>1296</ele>
        <time>2012-05-03T02:45:35Z</time>
      </trkpt>
      <trkpt lat="43.81093" lon="6.82136">
        <ele>1301</ele>
        <time>2012-05-03T02:45:52Z</time>
      </trkpt>
      <trkpt lat="43.81152" lon="6.82015">
        <ele>1323</ele>
        <time>2012-05-03T02:46:59Z</time>
      </trkpt>
      <trkpt lat="43.81169" lon="6.81972">
        <ele>1326</ele>
        <time>2012-05-03T02:47:13Z</time>
      </trkpt>
      <trkpt lat="43.81171" lon="6.81955">
        <ele>1328</ele>
        <time>2012-05-03T02:47:18Z</time>
      </trkpt>
      <trkpt lat="43.81167" lon="6.81927">
        <ele>1330</ele>
        <time>2012-05-03T02:47:26Z</time>
      </trkpt>
      <trkpt lat="43.81158" lon="6.81884">
        <ele>1334</ele>
        <time>2012-05-03T02:47:39Z</time>
      </trkpt>
      <trkpt lat="43.81138" lon="6.81822">
        <ele>1333</ele>
        <time>2012-05-03T02:47:45Z</time>
      </trkpt>
      <trkpt lat="43.81112" lon="6.81673">
        <ele>1333</ele>
        <time>2012-05-03T02:48:00Z</time>
      </trkpt>
      <trkpt lat="43.81102" lon="6.81593">
        <ele>1332</ele>
        <time>2012-05-03T02:48:08Z</time>
      </trkpt>
      <trkpt lat="43.81088" lon="6.81533">
        <ele>1332</ele>
        <time>2012-05-03T02:48:14Z</time>
      </trkpt>
      <trkpt lat="43.81093" lon="6.81419">
        <ele>1336</ele>
        <time>2012-05-03T02:48:36Z</time>
      </trkpt>
      <trkpt lat="43.81086" lon="6.81358">
        <ele>1339</ele>
        <time>2012-05-03T02:48:48Z</time>
      </trkpt>
      <trkpt lat="43.8109" lon="6.81281">
        <ele>1343</ele>
        <time>2012-05-03T02:49:05Z</time>
      </trkpt>
      <trkpt lat="43.81085" lon="6.81229">
        <ele>1346</ele>
        <time>2012-05-03T02:49:17Z</time>
      </trkpt>
      <trkpt lat="43.811" lon="6.81152">
        <ele>1358</ele>
        <time>2012-05-03T02:49:55Z</time>
      </trkpt>
      <trkpt lat="43.81118" lon="6.8111">
        <ele>1366</ele>
        <time>2012-05-03T02:50:18Z</time>
      </trkpt>
      <trkpt lat="43.81122" lon="6.81071">
        <ele>1369</ele>
        <time>2012-05-03T02:50:30Z</time>
      </trkpt>
      <trkpt lat="43.8114" lon="6.8099">
        <ele>1377</ele>
        <time>2012-05-03T02:50:57Z</time>
      </trkpt>
      <trkpt lat="43.81166" lon="6.8081">
        <ele>1394</ele>
        <time>2012-05-03T02:51:54Z</time>
      </trkpt>
      <trkpt lat="43.81179" lon="6.80693">
        <ele>1397</ele>
        <time>2012-05-03T02:52:14Z</time>
      </trkpt>
      <trkpt lat="43.81178" lon="6.80546">
        <ele>1402</ele>
        <time>2012-05-03T02:52:39Z</time>
      </trkpt>
      <trkpt lat="43.81183" lon="6.80447">
        <ele>1406</ele>
        <time>2012-05-03T02:52:59Z</time>
      </trkpt>
      <trkpt lat="43.81191" lon="6.8038">
        <ele>1409</ele>
        <time>2012-05-03T02:53:12Z</time>
      </trkpt>
      <trkpt lat="43.81201" lon="6.80344">
        <ele>1411</ele>
        <time>2012-05-03T02:53:22Z</time>
      </trkpt>
      <trkpt lat="43.81227" lon="6.80287">
        <ele>1416</ele>
        <time>2012-05-03T02:53:40Z</time>
      </trkpt>
      <trkpt lat="43.81221" lon="6.80263">
        <ele>1418</ele>
        <time>2012-05-03T02:53:47Z</time>
      </trkpt>
      <trkpt lat="43.81195" lon="6.8025">
        <ele>1421</ele>
        <time>2012-05-03T02:53:57Z</time>
      </trkpt>
      <trkpt lat="43.81187" lon="6.8024">
        <ele>1421</ele>
        <time>2012-05-03T02:54:01Z</time>
      </trkpt>
      <trkpt lat="43.81188" lon="6.80232">
        <ele>1422</ele>
        <time>2012-05-03T02:54:03Z</time>
      </trkpt>
      <trkpt lat="43.81205" lon="6.80229">
        <ele>1423</ele>
        <time>2012-05-03T02:54:09Z</time>
      </trkpt>
      <trkpt lat="43.81227" lon="6.80238">
        <ele>1425</ele>
        <time>2012-05-03T02:54:16Z</time>
      </trkpt>
      <trkpt lat="43.81263" lon="6.80268">
        <ele>1429</ele>
        <time>2012-05-03T02:54:31Z</time>
      </trkpt>
      <trkpt lat="43.81292" lon="6.8031">
        <ele>1433</ele>
        <time>2012-05-03T02:54:45Z</time>
      </trkpt>
      <trkpt lat="43.81342" lon="6.80336">
        <ele>1436</ele>
        <time>2012-05-03T02:55:01Z</time>
      </trkpt>
      <trkpt lat="43.81366" lon="6.80339">
        <ele>1438</ele>
        <time>2012-05-03T02:55:08Z</time>
      </trkpt>
      <trkpt lat="43.8139" lon="6.80319">
        <ele>1440</ele>
        <time>2012-05-03T02:55:16Z</time>
      </trkpt>
      <trkpt lat="43.81408" lon="6.80316">
        <ele>1440</ele>
        <time>2012-05-03T02:55:19Z</time>
      </trkpt>
      <trkpt lat="43.81429" lon="6.80319">
        <ele>1440</ele>
        <time>2012-05-03T02:55:22Z</time>
      </trkpt>
      <trkpt lat="43.81457" lon="6.80335">
        <ele>1440</ele>
        <time>2012-05-03T02:55:27Z</time>
      </trkpt>
      <trkpt lat="43.81532" lon="6.80412">
        <ele>1442</ele>
        <time>2012-05-03T02:55:42Z</time>
      </trkpt>
      <trkpt lat="43.81631" lon="6.80528">
        <ele>1438</ele>
        <time>2012-05-03T02:56:00Z</time>
      </trkpt>
      <trkpt lat="43.81642" lon="6.80539">
        <ele>1437</ele>
        <time>2012-05-03T02:56:01Z</time>
      </trkpt>
      <trkpt lat="43.81688" lon="6.80566">
        <ele>1437</ele>
        <time>2012-05-03T02:56:08Z</time>
      </trkpt>
      <trkpt lat="43.81697" lon="6.80586">
        <ele>1437</ele>
        <time>2012-05-03T02:56:10Z</time>
      </trkpt>
      <trkpt lat="43.81704" lon="6.80654">
        <ele>1437</ele>
        <time>2012-05-03T02:56:17Z</time>
      </trkpt>
      <trkpt lat="43.81711" lon="6.8068">
        <ele>1436</ele>
        <time>2012-05-03T02:56:20Z</time>
      </trkpt>
      <trkpt lat="43.81719" lon="6.80692">
        <ele>1435</ele>
        <time>2012-05-03T02:56:21Z</time>
      </trkpt>
      <trkpt lat="43.81724" lon="6.8069">
        <ele>1435</ele>
        <time>2012-05-03T02:56:22Z</time>
      </trkpt>
      <trkpt lat="43.81725" lon="6.80682">
        <ele>1434</ele>
        <time>2012-05-03T02:56:23Z</time>
      </trkpt>
      <trkpt lat="43.81711" lon="6.80641">
        <ele>1433</ele>
        <time>2012-05-03T02:56:27Z</time>
      </trkpt>
      <trkpt lat="43.81729" lon="6.80497">
        <ele>1428</ele>
        <time>2012-05-03T02:56:41Z</time>
      </trkpt>
      <trkpt lat="43.81759" lon="6.80415">
        <ele>1428</ele>
        <time>2012-05-03T02:56:51Z</time>
      </trkpt>
      <trkpt lat="43.81764" lon="6.8039">
        <ele>1428</ele>
        <time>2012-05-03T02:56:54Z</time>
      </trkpt>
      <trkpt lat="43.8176" lon="6.80304">
        <ele>1429</ele>
        <time>2012-05-03T02:57:03Z</time>
      </trkpt>
      <trkpt lat="43.81765" lon="6.8027">
        <ele>1426</ele>
        <time>2012-05-03T02:57:07Z</time>
      </trkpt>
      <trkpt lat="43.81776" lon="6.80347">
        <ele>1419</ele>
        <time>2012-05-03T02:57:14Z</time>
      </trkpt>
      <trkpt lat="43.81787" lon="6.80386">
        <ele>1415</ele>
        <time>2012-05-03T02:57:18Z</time>
      </trkpt>
      <trkpt lat="43.81792" lon="6.80444">
        <ele>1411</ele>
        <time>2012-05-03T02:57:24Z</time>
      </trkpt>
      <trkpt lat="43.81793" lon="6.8049">
        <ele>1413</ele>
        <time>2012-05-03T02:57:33Z</time>
      </trkpt>
      <trkpt lat="43.81787" lon="6.8052">
        <ele>1414</ele>
        <time>2012-05-03T02:57:39Z</time>
      </trkpt>
      <trkpt lat="43.81788" lon="6.80563">
        <ele>1416</ele>
        <time>2012-05-03T02:57:48Z</time>
      </trkpt>
      <trkpt lat="43.81782" lon="6.80601">
        <ele>1418</ele>
        <time>2012-05-03T02:57:56Z</time>
      </trkpt>
      <trkpt lat="43.81787" lon="6.80615">
        <ele>1416</ele>
        <time>2012-05-03T02:57:58Z</time>
      </trkpt>
      <trkpt lat="43.81793" lon="6.80608">
        <ele>1414</ele>
        <time>2012-05-03T02:57:59Z</time>
      </trkpt>
      <trkpt lat="43.81805" lon="6.80526">
        <ele>1405</ele>
        <time>2012-05-03T02:58:07Z</time>
      </trkpt>
      <trkpt lat="43.8182" lon="6.80477">
        <ele>1399</ele>
        <time>2012-05-03T02:58:12Z</time>
      </trkpt>
      <trkpt lat="43.81823" lon="6.80439">
        <ele>1400</ele>
        <time>2012-05-03T02:58:18Z</time>
      </trkpt>
      <trkpt lat="43.8183" lon="6.80412">
        <ele>1400</ele>
        <time>2012-05-03T02:58:23Z</time>
      </trkpt>
      <trkpt lat="43.81828" lon="6.80296">
        <ele>1404</ele>
        <time>2012-05-03T02:58:41Z</time>
      </trkpt>
      <trkpt lat="43.81836" lon="6.80176">
        <ele>1401</ele>
        <time>2012-05-03T02:58:53Z</time>
      </trkpt>
      <trkpt lat="43.81838" lon="6.80166">
        <ele>1401</ele>
        <time>2012-05-03T02:58:54Z</time>
      </trkpt>
      <trkpt lat="43.81842" lon="6.80164">
        <ele>1400</ele>
        <time>2012-05-03T02:58:55Z</time>
      </trkpt>
      <trkpt lat="43.81845" lon="6.8017">
        <ele>1399</ele>
        <time>2012-05-03T02:58:55Z</time>
      </trkpt>
      <trkpt lat="43.81845" lon="6.80235">
        <ele>1390</ele>
        <time>2012-05-03T02:59:02Z</time>
      </trkpt>
      <trkpt lat="43.81853" lon="6.80284">
        <ele>1383</ele>
        <time>2012-05-03T02:59:06Z</time>
      </trkpt>
      <trkpt lat="43.8189" lon="6.80426">
        <ele>1364</ele>
        <time>2012-05-03T02:59:21Z</time>
      </trkpt>
      <trkpt lat="43.81884" lon="6.80596">
        <ele>1374</ele>
        <time>2012-05-03T03:00:01Z</time>
      </trkpt>
      <trkpt lat="43.81929" lon="6.80724">
        <ele>1364</ele>
        <time>2012-05-03T03:00:15Z</time>
      </trkpt>
      <trkpt lat="43.81933" lon="6.80763">
        <ele>1362</ele>
        <time>2012-05-03T03:00:19Z</time>
      </trkpt>
      <trkpt lat="43.81928" lon="6.80785">
        <ele>1362</ele>
        <time>2012-05-03T03:00:21Z</time>
      </trkpt>
      <trkpt lat="43.81931" lon="6.80788">
        <ele>1362</ele>
        <time>2012-05-03T03:00:22Z</time>
      </trkpt>
      <trkpt lat="43.81937" lon="6.80784">
        <ele>1361</ele>
        <time>2012-05-03T03:00:22Z</time>
      </trkpt>
      <trkpt lat="43.8194" lon="6.80761">
        <ele>1361</ele>
        <time>2012-05-03T03:00:25Z</time>
      </trkpt>
      <trkpt lat="43.81939" lon="6.80711">
        <ele>1359</ele>
        <time>2012-05-03T03:00:30Z</time>
      </trkpt>
      <trkpt lat="43.81923" lon="6.80633">
        <ele>1357</ele>
        <time>2012-05-03T03:00:37Z</time>
      </trkpt>
      <trkpt lat="43.81918" lon="6.80584">
        <ele>1356</ele>
        <time>2012-05-03T03:00:42Z</time>
      </trkpt>
      <trkpt lat="43.81932" lon="6.80487">
        <ele>1350</ele>
        <time>2012-05-03T03:00:52Z</time>
      </trkpt>
      <trkpt lat="43.81944" lon="6.8026">
        <ele>1339</ele>
        <time>2012-05-03T03:01:14Z</time>
      </trkpt>
      <trkpt lat="43.81945" lon="6.80069">
        <ele>1342</ele>
        <time>2012-05-03T03:01:39Z</time>
      </trkpt>
      <trkpt lat="43.81936" lon="6.79882">
        <ele>1347</ele>
        <time>2012-05-03T03:02:09Z</time>
      </trkpt>
      <trkpt lat="43.81949" lon="6.7967">
        <ele>1329</ele>
        <time>2012-05-03T03:02:30Z</time>
      </trkpt>
      <trkpt lat="43.81948" lon="6.79552">
        <ele>1324</ele>
        <time>2012-05-03T03:02:41Z</time>
      </trkpt>
      <trkpt lat="43.81951" lon="6.79546">
        <ele>1324</ele>
        <time>2012-05-03T03:02:42Z</time>
      </trkpt>
      <trkpt lat="43.81958" lon="6.79553">
        <ele>1324</ele>
        <time>2012-05-03T03:02:43Z</time>
      </trkpt>
      <trkpt lat="43.81984" lon="6.79691">
        <ele>1319</ele>
        <time>2012-05-03T03:02:57Z</time>
      </trkpt>
      <trkpt lat="43.81988" lon="6.79731">
        <ele>1318</ele>
        <time>2012-05-03T03:03:01Z</time>
      </trkpt>
      <trkpt lat="43.81987" lon="6.79768">
        <ele>1316</ele>
        <time>2012-05-03T03:03:04Z</time>
      </trkpt>
      <trkpt lat="43.81995" lon="6.7982">
        <ele>1315</ele>
        <time>2012-05-03T03:03:09Z</time>
      </trkpt>
      <trkpt lat="43.82002" lon="6.7984">
        <ele>1312</ele>
        <time>2012-05-03T03:03:11Z</time>
      </trkpt>
      <trkpt lat="43.82032" lon="6.79883">
        <ele>1305</ele>
        <time>2012-05-03T03:03:17Z</time>
      </trkpt>
      <trkpt lat="43.82066" lon="6.80051">
        <ele>1284</ele>
        <time>2012-05-03T03:03:34Z</time>
      </trkpt>
      <trkpt lat="43.82104" lon="6.80356">
        <ele>1256</ele>
        <time>2012-05-03T03:04:04Z</time>
      </trkpt>
      <trkpt lat="43.8211" lon="6.80515">
        <ele>1257</ele>
        <time>2012-05-03T03:04:22Z</time>
      </trkpt>
      <trkpt lat="43.82115" lon="6.80519">
        <ele>1256</ele>
        <time>2012-05-03T03:04:22Z</time>
      </trkpt>
      <trkpt lat="43.82121" lon="6.80509">
        <ele>1254</ele>
        <time>2012-05-03T03:04:24Z</time>
      </trkpt>
      <trkpt lat="43.82119" lon="6.80482">
        <ele>1252</ele>
        <time>2012-05-03T03:04:26Z</time>
      </trkpt>
      <trkpt lat="43.82126" lon="6.80418">
        <ele>1245</ele>
        <time>2012-05-03T03:04:32Z</time>
      </trkpt>
      <trkpt lat="43.82151" lon="6.80271">
        <ele>1230</ele>
        <time>2012-05-03T03:04:47Z</time>
      </trkpt>
      <trkpt lat="43.82177" lon="6.80214">
        <ele>1223</ele>
        <time>2012-05-03T03:04:54Z</time>
      </trkpt>
      <trkpt lat="43.82188" lon="6.80206">
        <ele>1221</ele>
        <time>2012-05-03T03:04:55Z</time>
      </trkpt>
      <trkpt lat="43.822" lon="6.80214">
        <ele>1219</ele>
        <time>2012-05-03T03:04:57Z</time>
      </trkpt>
      <trkpt lat="43.82217" lon="6.80251">
        <ele>1215</ele>
        <time>2012-05-03T03:05:01Z</time>
      </trkpt>
      <trkpt lat="43.82253" lon="6.80309">
        <ele>1208</ele>
        <time>2012-05-03T03:05:09Z</time>
      </trkpt>
      <trkpt lat="43.8226" lon="6.80348">
        <ele>1203</ele>
        <time>2012-05-03T03:05:12Z</time>
      </trkpt>
      <trkpt lat="43.8226" lon="6.80424">
        <ele>1195</ele>
        <time>2012-05-03T03:05:20Z</time>
      </trkpt>
      <trkpt lat="43.82263" lon="6.80442">
        <ele>1193</ele>
        <time>2012-05-03T03:05:22Z</time>
      </trkpt>
      <trkpt lat="43.82267" lon="6.80456">
        <ele>1192</ele>
        <time>2012-05-03T03:05:23Z</time>
      </trkpt>
      <trkpt lat="43.82304" lon="6.80523">
        <ele>1186</ele>
        <time>2012-05-03T03:05:31Z</time>
      </trkpt>
      <trkpt lat="43.82314" lon="6.80526">
        <ele>1185</ele>
        <time>2012-05-03T03:05:33Z</time>
      </trkpt>
      <trkpt lat="43.82325" lon="6.8052">
        <ele>1184</ele>
        <time>2012-05-03T03:05:34Z</time>
      </trkpt>
      <trkpt lat="43.82337" lon="6.80494">
        <ele>1182</ele>
        <time>2012-05-03T03:05:37Z</time>
      </trkpt>
      <trkpt lat="43.82346" lon="6.80484">
        <ele>1181</ele>
        <time>2012-05-03T03:05:39Z</time>
      </trkpt>
      <trkpt lat="43.82378" lon="6.80476">
        <ele>1179</ele>
        <time>2012-05-03T03:05:43Z</time>
      </trkpt>
      <trkpt lat="43.82409" lon="6.80482">
        <ele>1174</ele>
        <time>2012-05-03T03:05:47Z</time>
      </trkpt>
      <trkpt lat="43.82446" lon="6.8052">
        <ele>1166</ele>
        <time>2012-05-03T03:05:53Z</time>
      </trkpt>
      <trkpt lat="43.82455" lon="6.80519">
        <ele>1165</ele>
        <time>2012-05-03T03:05:54Z</time>
      </trkpt>
      <trkpt lat="43.82461" lon="6.80508">
        <ele>1163</ele>
        <time>2012-05-03T03:05:56Z</time>
      </trkpt>
      <trkpt lat="43.82468" lon="6.80448">
        <ele>1157</ele>
        <time>2012-05-03T03:06:02Z</time>
      </trkpt>
      <trkpt lat="43.82479" lon="6.80206">
        <ele>1163</ele>
        <time>2012-05-03T03:06:39Z</time>
      </trkpt>
      <trkpt lat="43.82486" lon="6.80146">
        <ele>1156</ele>
        <time>2012-05-03T03:06:45Z</time>
      </trkpt>
      <trkpt lat="43.82514" lon="6.80077">
        <ele>1149</ele>
        <time>2012-05-03T03:06:53Z</time>
      </trkpt>
      <trkpt lat="43.82536" lon="6.79979">
        <ele>1140</ele>
        <time>2012-05-03T03:07:03Z</time>
      </trkpt>
      <trkpt lat="43.82544" lon="6.79962">
        <ele>1138</ele>
        <time>2012-05-03T03:07:05Z</time>
      </trkpt>
      <trkpt lat="43.82555" lon="6.79951">
        <ele>1137</ele>
        <time>2012-05-03T03:07:07Z</time>
      </trkpt>
      <trkpt lat="43.82601" lon="6.79929">
        <ele>1134</ele>
        <time>2012-05-03T03:07:13Z</time>
      </trkpt>
      <trkpt lat="43.82605" lon="6.79922">
        <ele>1134</ele>
        <time>2012-05-03T03:07:14Z</time>
      </trkpt>
      <trkpt lat="43.82597" lon="6.79713">
        <ele>1128</ele>
        <time>2012-05-03T03:07:34Z</time>
      </trkpt>
      <trkpt lat="43.82597" lon="6.79713">
        <ele>1128</ele>
        <time>2012-05-03T03:07:35Z</time>
      </trkpt>
      <trkpt lat="43.82588" lon="6.79505">
        <ele>1120</ele>
        <time>2012-05-03T03:07:55Z</time>
      </trkpt>
      <trkpt lat="43.8258" lon="6.79449">
        <ele>1118</ele>
        <time>2012-05-03T03:08:01Z</time>
      </trkpt>
      <trkpt lat="43.82514" lon="6.7915">
        <ele>1113</ele>
        <time>2012-05-03T03:08:31Z</time>
      </trkpt>
      <trkpt lat="43.82478" lon="6.7903">
        <ele>1110</ele>
        <time>2012-05-03T03:08:43Z</time>
      </trkpt>
      <trkpt lat="43.82481" lon="6.78955">
        <ele>1106</ele>
        <time>2012-05-03T03:08:51Z</time>
      </trkpt>
      <trkpt lat="43.82519" lon="6.78769">
        <ele>1099</ele>
        <time>2012-05-03T03:09:09Z</time>
      </trkpt>
      <trkpt lat="43.82541" lon="6.78701">
        <ele>1098</ele>
        <time>2012-05-03T03:09:16Z</time>
      </trkpt>
      <trkpt lat="43.82547" lon="6.78624">
        <ele>1097</ele>
        <time>2012-05-03T03:09:24Z</time>
      </trkpt>
      <trkpt lat="43.82542" lon="6.78412">
        <ele>1094</ele>
        <time>2012-05-03T03:09:44Z</time>
      </trkpt>
      <trkpt lat="43.82526" lon="6.78184">
        <ele>1090</ele>
        <time>2012-05-03T03:10:06Z</time>
      </trkpt>
      <trkpt lat="43.82537" lon="6.78145">
        <ele>1090</ele>
        <time>2012-05-03T03:10:10Z</time>
      </trkpt>
      <trkpt lat="43.82554" lon="6.78111">
        <ele>1090</ele>
        <time>2012-05-03T03:10:14Z</time>
      </trkpt>
      <trkpt lat="43.82562" lon="6.78054">
        <ele>1090</ele>
        <time>2012-05-03T03:10:20Z</time>
      </trkpt>
      <trkpt lat="43.8256" lon="6.78023">
        <ele>1089</ele>
        <time>2012-05-03T03:10:23Z</time>
      </trkpt>
      <trkpt lat="43.82543" lon="6.77924">
        <ele>1087</ele>
        <time>2012-05-03T03:10:33Z</time>
      </trkpt>
      <trkpt lat="43.82557" lon="6.77705">
        <ele>1086</ele>
        <time>2012-05-03T03:10:54Z</time>
      </trkpt>
      <trkpt lat="43.82543" lon="6.77475">
        <ele>1083</ele>
        <time>2012-05-03T03:11:16Z</time>
      </trkpt>
      <trkpt lat="43.82552" lon="6.77346">
        <ele>1081</ele>
        <time>2012-05-03T03:11:29Z</time>
      </trkpt>
      <trkpt lat="43.82556" lon="6.77184">
        <ele>1080</ele>
        <time>2012-05-03T03:11:44Z</time>
      </trkpt>
      <trkpt lat="43.82581" lon="6.769">
        <ele>1080</ele>
        <time>2012-05-03T03:12:12Z</time>
      </trkpt>
      <trkpt lat="43.82617" lon="6.76814">
        <ele>1080</ele>
        <time>2012-05-03T03:12:22Z</time>
      </trkpt>
      <trkpt lat="43.82715" lon="6.76668">
        <ele>1080</ele>
        <time>2012-05-03T03:12:41Z</time>
      </trkpt>
      <trkpt lat="43.82749" lon="6.76576">
        <ele>1080</ele>
        <time>2012-05-03T03:12:51Z</time>
      </trkpt>
      <trkpt lat="43.82765" lon="6.76548">
        <ele>1080</ele>
        <time>2012-05-03T03:12:54Z</time>
      </trkpt>
      <trkpt lat="43.82888" lon="6.76428">
        <ele>1079</ele>
        <time>2012-05-03T03:13:14Z</time>
      </trkpt>
      <trkpt lat="43.82997" lon="6.76306">
        <ele>1078</ele>
        <time>2012-05-03T03:13:33Z</time>
      </trkpt>
      <trkpt lat="43.83054" lon="6.76281">
        <ele>1076</ele>
        <time>2012-05-03T03:13:41Z</time>
      </trkpt>
      <trkpt lat="43.83084" lon="6.76245">
        <ele>1076</ele>
        <time>2012-05-03T03:13:46Z</time>
      </trkpt>
      <trkpt lat="43.8311" lon="6.76228">
        <ele>1074</ele>
        <time>2012-05-03T03:13:50Z</time>
      </trkpt>
      <trkpt lat="43.83188" lon="6.76216">
        <ele>1070</ele>
        <time>2012-05-03T03:14:01Z</time>
      </trkpt>
      <trkpt lat="43.83215" lon="6.76195">
        <ele>1068</ele>
        <time>2012-05-03T03:14:05Z</time>
      </trkpt>
      <trkpt lat="43.83286" lon="6.76116">
        <ele>1066</ele>
        <time>2012-05-03T03:14:17Z</time>
      </trkpt>
      <trkpt lat="43.83339" lon="6.76041">
        <ele>1061</ele>
        <time>2012-05-03T03:14:27Z</time>
      </trkpt>
      <trkpt lat="43.83373" lon="6.75984">
        <ele>1058</ele>
        <time>2012-05-03T03:14:34Z</time>
      </trkpt>
      <trkpt lat="43.83418" lon="6.75862">
        <ele>1058</ele>
        <time>2012-05-03T03:14:47Z</time>
      </trkpt>
      <trkpt lat="43.83431" lon="6.7581">
        <ele>1058</ele>
        <time>2012-05-03T03:14:53Z</time>
      </trkpt>
      <trkpt lat="43.83444" lon="6.75739">
        <ele>1058</ele>
        <time>2012-05-03T03:15:00Z</time>
      </trkpt>
      <trkpt lat="43.83452" lon="6.7565">
        <ele>1056</ele>
        <time>2012-05-03T03:15:08Z</time>
      </trkpt>
      <trkpt lat="43.83477" lon="6.75556">
        <ele>1055</ele>
        <time>2012-05-03T03:15:18Z</time>
      </trkpt>
      <trkpt lat="43.83484" lon="6.75482">
        <ele>1054</ele>
        <time>2012-05-03T03:15:25Z</time>
      </trkpt>
      <trkpt lat="43.83516" lon="6.75378">
        <ele>1054</ele>
        <time>2012-05-03T03:15:36Z</time>
      </trkpt>
      <trkpt lat="43.83545" lon="6.75262">
        <ele>1049</ele>
        <time>2012-05-03T03:15:48Z</time>
      </trkpt>
      <trkpt lat="43.83582" lon="6.75069">
        <ele>1041</ele>
        <time>2012-05-03T03:16:07Z</time>
      </trkpt>
      <trkpt lat="43.83582" lon="6.75069">
        <ele>1041</ele>
        <time>2012-05-03T03:16:08Z</time>
      </trkpt>
      <trkpt lat="43.83621" lon="6.74838">
        <ele>1040</ele>
        <time>2012-05-03T03:16:31Z</time>
      </trkpt>
      <trkpt lat="43.83638" lon="6.74767">
        <ele>1040</ele>
        <time>2012-05-03T03:16:40Z</time>
      </trkpt>
      <trkpt lat="43.83656" lon="6.74722">
        <ele>1041</ele>
        <time>2012-05-03T03:16:46Z</time>
      </trkpt>
      <trkpt lat="43.83688" lon="6.7468">
        <ele>1040</ele>
        <time>2012-05-03T03:16:51Z</time>
      </trkpt>
      <trkpt lat="43.8371" lon="6.74638">
        <ele>1040</ele>
        <time>2012-05-03T03:16:56Z</time>
      </trkpt>
      <trkpt lat="43.83725" lon="6.74561">
        <ele>1040</ele>
        <time>2012-05-03T03:17:04Z</time>
      </trkpt>
      <trkpt lat="43.83735" lon="6.74528">
        <ele>1040</ele>
        <time>2012-05-03T03:17:09Z</time>
      </trkpt>
      <trkpt lat="43.83747" lon="6.74509">
        <ele>1040</ele>
        <time>2012-05-03T03:17:12Z</time>
      </trkpt>
      <trkpt lat="43.8377" lon="6.74495">
        <ele>1041</ele>
        <time>2012-05-03T03:17:16Z</time>
      </trkpt>
      <trkpt lat="43.83822" lon="6.74491">
        <ele>1042</ele>
        <time>2012-05-03T03:17:25Z</time>
      </trkpt>
      <trkpt lat="43.83918" lon="6.74518">
        <ele>1047</ele>
        <time>2012-05-03T03:17:50Z</time>
      </trkpt>
      <trkpt lat="43.83957" lon="6.74521">
        <ele>1044</ele>
        <time>2012-05-03T03:17:55Z</time>
      </trkpt>
      <trkpt lat="43.84048" lon="6.74484">
        <ele>1040</ele>
        <time>2012-05-03T03:18:08Z</time>
      </trkpt>
      <trkpt lat="43.84159" lon="6.74421">
        <ele>1040</ele>
        <time>2012-05-03T03:18:24Z</time>
      </trkpt>
      <trkpt lat="43.84254" lon="6.74384">
        <ele>1040</ele>
        <time>2012-05-03T03:18:37Z</time>
      </trkpt>
      <trkpt lat="43.84269" lon="6.7437">
        <ele>1039</ele>
        <time>2012-05-03T03:18:40Z</time>
      </trkpt>
      <trkpt lat="43.84292" lon="6.74326">
        <ele>1039</ele>
        <time>2012-05-03T03:18:45Z</time>
      </trkpt>
      <trkpt lat="43.84339" lon="6.74276">
        <ele>1039</ele>
        <time>2012-05-03T03:18:53Z</time>
      </trkpt>
      <trkpt lat="43.84387" lon="6.74205">
        <ele>1037</ele>
        <time>2012-05-03T03:19:02Z</time>
      </trkpt>
      <trkpt lat="43.84401" lon="6.74159">
        <ele>1037</ele>
        <time>2012-05-03T03:19:07Z</time>
      </trkpt>
      <trkpt lat="43.84407" lon="6.741">
        <ele>1036</ele>
        <time>2012-05-03T03:19:13Z</time>
      </trkpt>
      <trkpt lat="43.84422" lon="6.7403">
        <ele>1036</ele>
        <time>2012-05-03T03:19:20Z</time>
      </trkpt>
      <trkpt lat="43.84422" lon="6.7403">
        <ele>1036</ele>
        <time>2012-05-03T03:19:21Z</time>
      </trkpt>
      <trkpt lat="43.84436" lon="6.73965">
        <ele>1032</ele>
        <time>2012-05-03T03:19:27Z</time>
      </trkpt>
      <trkpt lat="43.84468" lon="6.73885">
        <ele>1028</ele>
        <time>2012-05-03T03:19:36Z</time>
      </trkpt>
      <trkpt lat="43.84475" lon="6.73849">
        <ele>1029</ele>
        <time>2012-05-03T03:19:43Z</time>
      </trkpt>
      <trkpt lat="43.84469" lon="6.73724">
        <ele>1033</ele>
        <time>2012-05-03T03:20:04Z</time>
      </trkpt>
      <trkpt lat="43.84472" lon="6.73623">
        <ele>1035</ele>
        <time>2012-05-03T03:20:18Z</time>
      </trkpt>
      <trkpt lat="43.84489" lon="6.73372">
        <ele>1040</ele>
        <time>2012-05-03T03:20:55Z</time>
      </trkpt>
      <trkpt lat="43.84481" lon="6.73345">
        <ele>1040</ele>
        <time>2012-05-03T03:20:59Z</time>
      </trkpt>
      <trkpt lat="43.84473" lon="6.73457">
        <ele>1043</ele>
        <time>2012-05-03T03:21:17Z</time>
      </trkpt>
      <trkpt lat="43.84459" lon="6.7352">
        <ele>1045</ele>
        <time>2012-05-03T03:21:27Z</time>
      </trkpt>
      <trkpt lat="43.84404" lon="6.73706">
        <ele>1053</ele>
        <time>2012-05-03T03:22:05Z</time>
      </trkpt>
      <trkpt lat="43.84336" lon="6.73857">
        <ele>1065</ele>
        <time>2012-05-03T03:22:51Z</time>
      </trkpt>
      <trkpt lat="43.84303" lon="6.73982">
        <ele>1062</ele>
        <time>2012-05-03T03:23:04Z</time>
      </trkpt>
      <trkpt lat="43.84286" lon="6.74067">
        <ele>1055</ele>
        <time>2012-05-03T03:23:13Z</time>
      </trkpt>
      <trkpt lat="43.84274" lon="6.74085">
        <ele>1053</ele>
        <time>2012-05-03T03:23:15Z</time>
      </trkpt>
      <trkpt lat="43.84263" lon="6.74088">
        <ele>1052</ele>
        <time>2012-05-03T03:23:16Z</time>
      </trkpt>
      <trkpt lat="43.84246" lon="6.7408">
        <ele>1051</ele>
        <time>2012-05-03T03:23:19Z</time>
      </trkpt>
      <trkpt lat="43.84193" lon="6.74033">
        <ele>1058</ele>
        <time>2012-05-03T03:23:45Z</time>
      </trkpt>
      <trkpt lat="43.84182" lon="6.74005">
        <ele>1061</ele>
        <time>2012-05-03T03:23:54Z</time>
      </trkpt>
      <trkpt lat="43.84175" lon="6.73947">
        <ele>1066</ele>
        <time>2012-05-03T03:24:12Z</time>
      </trkpt>
      <trkpt lat="43.84162" lon="6.73927">
        <ele>1067</ele>
        <time>2012-05-03T03:24:18Z</time>
      </trkpt>
      <trkpt lat="43.84144" lon="6.73917">
        <ele>1069</ele>
        <time>2012-05-03T03:24:25Z</time>
      </trkpt>
      <trkpt lat="43.84097" lon="6.73909">
        <ele>1072</ele>
        <time>2012-05-03T03:24:40Z</time>
      </trkpt>
      <trkpt lat="43.84023" lon="6.7384">
        <ele>1080</ele>
        <time>2012-05-03T03:25:09Z</time>
      </trkpt>
      <trkpt lat="43.84001" lon="6.73828">
        <ele>1079</ele>
        <time>2012-05-03T03:25:12Z</time>
      </trkpt>
      <trkpt lat="43.83985" lon="6.73826">
        <ele>1079</ele>
        <time>2012-05-03T03:25:14Z</time>
      </trkpt>
      <trkpt lat="43.83904" lon="6.73846">
        <ele>1079</ele>
        <time>2012-05-03T03:25:25Z</time>
      </trkpt>
      <trkpt lat="43.83827" lon="6.73884">
        <ele>1078</ele>
        <time>2012-05-03T03:25:36Z</time>
      </trkpt>
      <trkpt lat="43.83808" lon="6.739">
        <ele>1078</ele>
        <time>2012-05-03T03:25:39Z</time>
      </trkpt>
      <trkpt lat="43.83798" lon="6.7393">
        <ele>1077</ele>
        <time>2012-05-03T03:25:42Z</time>
      </trkpt>
      <trkpt lat="43.83795" lon="6.73963">
        <ele>1076</ele>
        <time>2012-05-03T03:25:45Z</time>
      </trkpt>
      <trkpt lat="43.83804" lon="6.74061">
        <ele>1074</ele>
        <time>2012-05-03T03:25:55Z</time>
      </trkpt>
      <trkpt lat="43.83804" lon="6.7413">
        <ele>1068</ele>
        <time>2012-05-03T03:26:02Z</time>
      </trkpt>
      <trkpt lat="43.83791" lon="6.74212">
        <ele>1062</ele>
        <time>2012-05-03T03:26:10Z</time>
      </trkpt>
      <trkpt lat="43.83781" lon="6.74231">
        <ele>1062</ele>
        <time>2012-05-03T03:26:12Z</time>
      </trkpt>
      <trkpt lat="43.83735" lon="6.74255">
        <ele>1062</ele>
        <time>2012-05-03T03:26:20Z</time>
      </trkpt>
      <trkpt lat="43.83704" lon="6.74292">
        <ele>1063</ele>
        <time>2012-05-03T03:26:26Z</time>
      </trkpt>
      <trkpt lat="43.83675" lon="6.7431">
        <ele>1064</ele>
        <time>2012-05-03T03:26:34Z</time>
      </trkpt>
      <trkpt lat="43.83652" lon="6.74308">
        <ele>1065</ele>
        <time>2012-05-03T03:26:39Z</time>
      </trkpt>
      <trkpt lat="43.83629" lon="6.74297">
        <ele>1065</ele>
        <time>2012-05-03T03:26:44Z</time>
      </trkpt>
      <trkpt lat="43.83584" lon="6.74258">
        <ele>1068</ele>
        <time>2012-05-03T03:26:56Z</time>
      </trkpt>
      <trkpt lat="43.8357" lon="6.74236">
        <ele>1069</ele>
        <time>2012-05-03T03:27:02Z</time>
      </trkpt>
      <trkpt lat="43.83548" lon="6.74164">
        <ele>1071</ele>
        <time>2012-05-03T03:27:16Z</time>
      </trkpt>
      <trkpt lat="43.8354" lon="6.7415">
        <ele>1072</ele>
        <time>2012-05-03T03:27:19Z</time>
      </trkpt>
      <trkpt lat="43.83517" lon="6.7413">
        <ele>1074</ele>
        <time>2012-05-03T03:27:26Z</time>
      </trkpt>
      <trkpt lat="43.83382" lon="6.74094">
        <ele>1057</ele>
        <time>2012-05-03T03:27:45Z</time>
      </trkpt>
      <trkpt lat="43.8336" lon="6.74097">
        <ele>1057</ele>
        <time>2012-05-03T03:27:49Z</time>
      </trkpt>
      <trkpt lat="43.83316" lon="6.74118">
        <ele>1058</ele>
        <time>2012-05-03T03:27:58Z</time>
      </trkpt>
      <trkpt lat="43.833" lon="6.74117">
        <ele>1059</ele>
        <time>2012-05-03T03:28:01Z</time>
      </trkpt>
      <trkpt lat="43.83185" lon="6.74002">
        <ele>1063</ele>
        <time>2012-05-03T03:28:29Z</time>
      </trkpt>
      <trkpt lat="43.83144" lon="6.73977">
        <ele>1066</ele>
        <time>2012-05-03T03:28:45Z</time>
      </trkpt>
      <trkpt lat="43.83121" lon="6.73979">
        <ele>1068</ele>
        <time>2012-05-03T03:28:52Z</time>
      </trkpt>
      <trkpt lat="43.83042" lon="6.74007">
        <ele>1076</ele>
        <time>2012-05-03T03:29:20Z</time>
      </trkpt>
      <trkpt lat="43.82963" lon="6.7402">
        <ele>1075</ele>
        <time>2012-05-03T03:29:31Z</time>
      </trkpt>
      <trkpt lat="43.82936" lon="6.74034">
        <ele>1075</ele>
        <time>2012-05-03T03:29:35Z</time>
      </trkpt>
      <trkpt lat="43.8287" lon="6.74089">
        <ele>1074</ele>
        <time>2012-05-03T03:29:45Z</time>
      </trkpt>
      <trkpt lat="43.82834" lon="6.74102">
        <ele>1074</ele>
        <time>2012-05-03T03:29:50Z</time>
      </trkpt>
      <trkpt lat="43.82834" lon="6.74102">
        <ele>1074</ele>
        <time>2012-05-03T03:29:51Z</time>
      </trkpt>
      <trkpt lat="43.82803" lon="6.74104">
        <ele>1074</ele>
        <time>2012-05-03T03:29:56Z</time>
      </trkpt>
      <trkpt lat="43.82752" lon="6.74117">
        <ele>1074</ele>
        <time>2012-05-03T03:30:04Z</time>
      </trkpt>
      <trkpt lat="43.82682" lon="6.74116">
        <ele>1075</ele>
        <time>2012-05-03T03:30:14Z</time>
      </trkpt>
      <trkpt lat="43.82539" lon="6.74169">
        <ele>1076</ele>
        <time>2012-05-03T03:30:36Z</time>
      </trkpt>
      <trkpt lat="43.82505" lon="6.74162">
        <ele>1076</ele>
        <time>2012-05-03T03:30:42Z</time>
      </trkpt>
      <trkpt lat="43.82483" lon="6.74144">
        <ele>1076</ele>
        <time>2012-05-03T03:30:46Z</time>
      </trkpt>
      <trkpt lat="43.82463" lon="6.74117">
        <ele>1077</ele>
        <time>2012-05-03T03:30:51Z</time>
      </trkpt>
      <trkpt lat="43.82401" lon="6.73994">
        <ele>1079</ele>
        <time>2012-05-03T03:31:10Z</time>
      </trkpt>
      <trkpt lat="43.82382" lon="6.73969">
        <ele>1079</ele>
        <time>2012-05-03T03:31:15Z</time>
      </trkpt>
      <trkpt lat="43.82335" lon="6.73924">
        <ele>1081</ele>
        <time>2012-05-03T03:31:26Z</time>
      </trkpt>
      <trkpt lat="43.82322" lon="6.73899">
        <ele>1082</ele>
        <time>2012-05-03T03:31:31Z</time>
      </trkpt>
      <trkpt lat="43.82294" lon="6.73753">
        <ele>1089</ele>
        <time>2012-05-03T03:32:02Z</time>
      </trkpt>
      <trkpt lat="43.82241" lon="6.73645">
        <ele>1090</ele>
        <time>2012-05-03T03:32:17Z</time>
      </trkpt>
      <trkpt lat="43.82218" lon="6.73503">
        <ele>1094</ele>
        <time>2012-05-03T03:32:41Z</time>
      </trkpt>
      <trkpt lat="43.8224" lon="6.73278">
        <ele>1106</ele>
        <time>2012-05-03T03:33:31Z</time>
      </trkpt>
      <trkpt lat="43.82258" lon="6.73192">
        <ele>1111</ele>
        <time>2012-05-03T03:33:54Z</time>
      </trkpt>
      <trkpt lat="43.82267" lon="6.73132">
        <ele>1116</ele>
        <time>2012-05-03T03:34:10Z</time>
      </trkpt>
      <trkpt lat="43.82267" lon="6.73105">
        <ele>1116</ele>
        <time>2012-05-03T03:34:13Z</time>
      </trkpt>
      <trkpt lat="43.82182" lon="6.72817">
        <ele>1118</ele>
        <time>2012-05-03T03:34:47Z</time>
      </trkpt>
      <trkpt lat="43.82163" lon="6.72747">
        <ele>1119</ele>
        <time>2012-05-03T03:34:58Z</time>
      </trkpt>
      <trkpt lat="43.82156" lon="6.72705">
        <ele>1120</ele>
        <time>2012-05-03T03:35:04Z</time>
      </trkpt>
      <trkpt lat="43.82158" lon="6.72614">
        <ele>1122</ele>
        <time>2012-05-03T03:35:17Z</time>
      </trkpt>
      <trkpt lat="43.82179" lon="6.72508">
        <ele>1129</ele>
        <time>2012-05-03T03:35:47Z</time>
      </trkpt>
      <trkpt lat="43.82175" lon="6.72466">
        <ele>1133</ele>
        <time>2012-05-03T03:35:58Z</time>
      </trkpt>
      <trkpt lat="43.82135" lon="6.72395">
        <ele>1134</ele>
        <time>2012-05-03T03:36:09Z</time>
      </trkpt>
      <trkpt lat="43.8212" lon="6.72311">
        <ele>1135</ele>
        <time>2012-05-03T03:36:20Z</time>
      </trkpt>
      <trkpt lat="43.82075" lon="6.72199">
        <ele>1137</ele>
        <time>2012-05-03T03:36:37Z</time>
      </trkpt>
      <trkpt lat="43.82044" lon="6.72137">
        <ele>1135</ele>
        <time>2012-05-03T03:36:45Z</time>
      </trkpt>
      <trkpt lat="43.82005" lon="6.72088">
        <ele>1135</ele>
        <time>2012-05-03T03:36:52Z</time>
      </trkpt>
      <trkpt lat="43.81992" lon="6.72062">
        <ele>1136</ele>
        <time>2012-05-03T03:36:57Z</time>
      </trkpt>
      <trkpt lat="43.8197" lon="6.71995">
        <ele>1138</ele>
        <time>2012-05-03T03:37:11Z</time>
      </trkpt>
      <trkpt lat="43.81956" lon="6.71891">
        <ele>1143</ele>
        <time>2012-05-03T03:37:31Z</time>
      </trkpt>
      <trkpt lat="43.81935" lon="6.71834">
        <ele>1144</ele>
        <time>2012-05-03T03:37:41Z</time>
      </trkpt>
      <trkpt lat="43.81843" lon="6.71639">
        <ele>1151</ele>
        <time>2012-05-03T03:38:19Z</time>
      </trkpt>
      <trkpt lat="43.81807" lon="6.71582">
        <ele>1150</ele>
        <time>2012-05-03T03:38:26Z</time>
      </trkpt>
      <trkpt lat="43.81756" lon="6.71516">
        <ele>1150</ele>
        <time>2012-05-03T03:38:36Z</time>
      </trkpt>
      <trkpt lat="43.81745" lon="6.7149">
        <ele>1150</ele>
        <time>2012-05-03T03:38:40Z</time>
      </trkpt>
      <trkpt lat="43.81698" lon="6.71332">
        <ele>1155</ele>
        <time>2012-05-03T03:39:07Z</time>
      </trkpt>
      <trkpt lat="43.81688" lon="6.71315">
        <ele>1154</ele>
        <time>2012-05-03T03:39:09Z</time>
      </trkpt>
      <trkpt lat="43.81673" lon="6.71301">
        <ele>1154</ele>
        <time>2012-05-03T03:39:11Z</time>
      </trkpt>
      <trkpt lat="43.816" lon="6.71249">
        <ele>1152</ele>
        <time>2012-05-03T03:39:22Z</time>
      </trkpt>
      <trkpt lat="43.81579" lon="6.7122">
        <ele>1154</ele>
        <time>2012-05-03T03:39:32Z</time>
      </trkpt>
      <trkpt lat="43.81573" lon="6.712">
        <ele>1155</ele>
        <time>2012-05-03T03:39:36Z</time>
      </trkpt>
      <trkpt lat="43.8157" lon="6.71172">
        <ele>1156</ele>
        <time>2012-05-03T03:39:43Z</time>
      </trkpt>
      <trkpt lat="43.81576" lon="6.71093">
        <ele>1161</ele>
        <time>2012-05-03T03:40:00Z</time>
      </trkpt>
      <trkpt lat="43.81572" lon="6.71054">
        <ele>1164</ele>
        <time>2012-05-03T03:40:12Z</time>
      </trkpt>
      <trkpt lat="43.81557" lon="6.71006">
        <ele>1168</ele>
        <time>2012-05-03T03:40:28Z</time>
      </trkpt>
      <trkpt lat="43.81523" lon="6.70927">
        <ele>1177</ele>
        <time>2012-05-03T03:40:57Z</time>
      </trkpt>
      <trkpt lat="43.81506" lon="6.70845">
        <ele>1179</ele>
        <time>2012-05-03T03:41:10Z</time>
      </trkpt>
      <trkpt lat="43.81504" lon="6.70809">
        <ele>1180</ele>
        <time>2012-05-03T03:41:16Z</time>
      </trkpt>
      <trkpt lat="43.81508" lon="6.70734">
        <ele>1182</ele>
        <time>2012-05-03T03:41:27Z</time>
      </trkpt>
      <trkpt lat="43.81515" lon="6.70684">
        <ele>1181</ele>
        <time>2012-05-03T03:41:32Z</time>
      </trkpt>
      <trkpt lat="43.81533" lon="6.70604">
        <ele>1180</ele>
        <time>2012-05-03T03:41:40Z</time>
      </trkpt>
      <trkpt lat="43.8154" lon="6.70516">
        <ele>1174</ele>
        <time>2012-05-03T03:41:49Z</time>
      </trkpt>
      <trkpt lat="43.8153" lon="6.7039">
        <ele>1167</ele>
        <time>2012-05-03T03:42:01Z</time>
      </trkpt>
      <trkpt lat="43.81507" lon="6.70247">
        <ele>1159</ele>
        <time>2012-05-03T03:42:15Z</time>
      </trkpt>
      <trkpt lat="43.81499" lon="6.70125">
        <ele>1153</ele>
        <time>2012-05-03T03:42:27Z</time>
      </trkpt>
      <trkpt lat="43.81469" lon="6.69943">
        <ele>1146</ele>
        <time>2012-05-03T03:42:45Z</time>
      </trkpt>
      <trkpt lat="43.81469" lon="6.69943">
        <ele>1146</ele>
        <time>2012-05-03T03:42:46Z</time>
      </trkpt>
      <trkpt lat="43.81452" lon="6.69794">
        <ele>1141</ele>
        <time>2012-05-03T03:43:01Z</time>
      </trkpt>
      <trkpt lat="43.81452" lon="6.69727">
        <ele>1139</ele>
        <time>2012-05-03T03:43:07Z</time>
      </trkpt>
      <trkpt lat="43.81458" lon="6.69667">
        <ele>1139</ele>
        <time>2012-05-03T03:43:13Z</time>
      </trkpt>
      <trkpt lat="43.81482" lon="6.69586">
        <ele>1138</ele>
        <time>2012-05-03T03:43:21Z</time>
      </trkpt>
      <trkpt lat="43.81489" lon="6.69519">
        <ele>1138</ele>
        <time>2012-05-03T03:43:28Z</time>
      </trkpt>
      <trkpt lat="43.81469" lon="6.69424">
        <ele>1136</ele>
        <time>2012-05-03T03:43:37Z</time>
      </trkpt>
      <trkpt lat="43.81461" lon="6.6931">
        <ele>1134</ele>
        <time>2012-05-03T03:43:49Z</time>
      </trkpt>
      <trkpt lat="43.81465" lon="6.69276">
        <ele>1133</ele>
        <time>2012-05-03T03:43:52Z</time>
      </trkpt>
      <trkpt lat="43.81488" lon="6.69182">
        <ele>1133</ele>
        <time>2012-05-03T03:44:01Z</time>
      </trkpt>
      <trkpt lat="43.81497" lon="6.69102">
        <ele>1132</ele>
        <time>2012-05-03T03:44:09Z</time>
      </trkpt>
      <trkpt lat="43.81509" lon="6.68934">
        <ele>1132</ele>
        <time>2012-05-03T03:44:25Z</time>
      </trkpt>
      <trkpt lat="43.81513" lon="6.68817">
        <ele>1130</ele>
        <time>2012-05-03T03:44:37Z</time>
      </trkpt>
      <trkpt lat="43.81494" lon="6.68437">
        <ele>1124</ele>
        <time>2012-05-03T03:45:14Z</time>
      </trkpt>
      <trkpt lat="43.81492" lon="6.68305">
        <ele>1122</ele>
        <time>2012-05-03T03:45:26Z</time>
      </trkpt>
      <trkpt lat="43.815" lon="6.68263">
        <ele>1121</ele>
        <time>2012-05-03T03:45:30Z</time>
      </trkpt>
      <trkpt lat="43.8153" lon="6.6818">
        <ele>1121</ele>
        <time>2012-05-03T03:45:39Z</time>
      </trkpt>
      <trkpt lat="43.81555" lon="6.68142">
        <ele>1121</ele>
        <time>2012-05-03T03:45:46Z</time>
      </trkpt>
      <trkpt lat="43.81623" lon="6.68062">
        <ele>1123</ele>
        <time>2012-05-03T03:46:01Z</time>
      </trkpt>
      <trkpt lat="43.81629" lon="6.68049">
        <ele>1122</ele>
        <time>2012-05-03T03:46:03Z</time>
      </trkpt>
      <trkpt lat="43.81631" lon="6.68029">
        <ele>1122</ele>
        <time>2012-05-03T03:46:04Z</time>
      </trkpt>
      <trkpt lat="43.81612" lon="6.67958">
        <ele>1122</ele>
        <time>2012-05-03T03:46:12Z</time>
      </trkpt>
      <trkpt lat="43.81623" lon="6.67815">
        <ele>1121</ele>
        <time>2012-05-03T03:46:26Z</time>
      </trkpt>
      <trkpt lat="43.81615" lon="6.67791">
        <ele>1120</ele>
        <time>2012-05-03T03:46:28Z</time>
      </trkpt>
      <trkpt lat="43.81603" lon="6.67782">
        <ele>1120</ele>
        <time>2012-05-03T03:46:30Z</time>
      </trkpt>
      <trkpt lat="43.81593" lon="6.67783">
        <ele>1120</ele>
        <time>2012-05-03T03:46:31Z</time>
      </trkpt>
      <trkpt lat="43.8155" lon="6.67805">
        <ele>1120</ele>
        <time>2012-05-03T03:46:37Z</time>
      </trkpt>
      <trkpt lat="43.81516" lon="6.67832">
        <ele>1120</ele>
        <time>2012-05-03T03:46:43Z</time>
      </trkpt>
      <trkpt lat="43.81469" lon="6.67859">
        <ele>1120</ele>
        <time>2012-05-03T03:46:50Z</time>
      </trkpt>
      <trkpt lat="43.81448" lon="6.67864">
        <ele>1120</ele>
        <time>2012-05-03T03:46:52Z</time>
      </trkpt>
      <trkpt lat="43.81435" lon="6.67858">
        <ele>1120</ele>
        <time>2012-05-03T03:46:54Z</time>
      </trkpt>
      <trkpt lat="43.81207" lon="6.67588">
        <ele>1120</ele>
        <time>2012-05-03T03:47:34Z</time>
      </trkpt>
      <trkpt lat="43.81182" lon="6.67554">
        <ele>1120</ele>
        <time>2012-05-03T03:47:39Z</time>
      </trkpt>
      <trkpt lat="43.81155" lon="6.67507">
        <ele>1120</ele>
        <time>2012-05-03T03:47:45Z</time>
      </trkpt>
      <trkpt lat="43.81155" lon="6.67507">
        <ele>1120</ele>
        <time>2012-05-03T03:47:46Z</time>
      </trkpt>
      <trkpt lat="43.81121" lon="6.67432">
        <ele>1120</ele>
        <time>2012-05-03T03:47:54Z</time>
      </trkpt>
      <trkpt lat="43.81089" lon="6.67284">
        <ele>1120</ele>
        <time>2012-05-03T03:48:09Z</time>
      </trkpt>
      <trkpt lat="43.81059" lon="6.67224">
        <ele>1120</ele>
        <time>2012-05-03T03:48:16Z</time>
      </trkpt>
      <trkpt lat="43.81028" lon="6.67183">
        <ele>1120</ele>
        <time>2012-05-03T03:48:22Z</time>
      </trkpt>
      <trkpt lat="43.80994" lon="6.67163">
        <ele>1120</ele>
        <time>2012-05-03T03:48:27Z</time>
      </trkpt>
      <trkpt lat="43.80935" lon="6.67147">
        <ele>1120</ele>
        <time>2012-05-03T03:48:35Z</time>
      </trkpt>
      <trkpt lat="43.80915" lon="6.67146">
        <ele>1120</ele>
        <time>2012-05-03T03:48:38Z</time>
      </trkpt>
      <trkpt lat="43.80874" lon="6.67154">
        <ele>1120</ele>
        <time>2012-05-03T03:48:43Z</time>
      </trkpt>
      <trkpt lat="43.80857" lon="6.67151">
        <ele>1120</ele>
        <time>2012-05-03T03:48:45Z</time>
      </trkpt>
      <trkpt lat="43.808" lon="6.67114">
        <ele>1120</ele>
        <time>2012-05-03T03:48:54Z</time>
      </trkpt>
      <trkpt lat="43.80787" lon="6.67087">
        <ele>1120</ele>
        <time>2012-05-03T03:48:57Z</time>
      </trkpt>
      <trkpt lat="43.80786" lon="6.67029">
        <ele>1120</ele>
        <time>2012-05-03T03:49:02Z</time>
      </trkpt>
      <trkpt lat="43.8078" lon="6.67008">
        <ele>1120</ele>
        <time>2012-05-03T03:49:05Z</time>
      </trkpt>
      <trkpt lat="43.80769" lon="6.66994">
        <ele>1120</ele>
        <time>2012-05-03T03:49:07Z</time>
      </trkpt>
      <trkpt lat="43.80734" lon="6.6697">
        <ele>1119</ele>
        <time>2012-05-03T03:49:12Z</time>
      </trkpt>
      <trkpt lat="43.80727" lon="6.66959">
        <ele>1118</ele>
        <time>2012-05-03T03:49:13Z</time>
      </trkpt>
      <trkpt lat="43.80706" lon="6.66905">
        <ele>1118</ele>
        <time>2012-05-03T03:49:19Z</time>
      </trkpt>
      <trkpt lat="43.80674" lon="6.66798">
        <ele>1118</ele>
        <time>2012-05-03T03:49:32Z</time>
      </trkpt>
      <trkpt lat="43.80644" lon="6.66751">
        <ele>1119</ele>
        <time>2012-05-03T03:49:39Z</time>
      </trkpt>
      <trkpt lat="43.80622" lon="6.66728">
        <ele>1119</ele>
        <time>2012-05-03T03:49:43Z</time>
      </trkpt>
      <trkpt lat="43.8057" lon="6.667">
        <ele>1119</ele>
        <time>2012-05-03T03:49:51Z</time>
      </trkpt>
      <trkpt lat="43.80485" lon="6.66676">
        <ele>1120</ele>
        <time>2012-05-03T03:50:04Z</time>
      </trkpt>
      <trkpt lat="43.80387" lon="6.6669">
        <ele>1108</ele>
        <time>2012-05-03T03:50:17Z</time>
      </trkpt>
      <trkpt lat="43.80306" lon="6.66694">
        <ele>1102</ele>
        <time>2012-05-03T03:50:28Z</time>
      </trkpt>
      <trkpt lat="43.80189" lon="6.66646">
        <ele>1094</ele>
        <time>2012-05-03T03:50:44Z</time>
      </trkpt>
      <trkpt lat="43.80116" lon="6.66594">
        <ele>1092</ele>
        <time>2012-05-03T03:50:55Z</time>
      </trkpt>
      <trkpt lat="43.8" lon="6.6653">
        <ele>1091</ele>
        <time>2012-05-03T03:51:12Z</time>
      </trkpt>
      <trkpt lat="43.79978" lon="6.66523">
        <ele>1086</ele>
        <time>2012-05-03T03:51:15Z</time>
      </trkpt>
      <trkpt lat="43.7993" lon="6.66522">
        <ele>1075</ele>
        <time>2012-05-03T03:51:21Z</time>
      </trkpt>
      <trkpt lat="43.79911" lon="6.66513">
        <ele>1071</ele>
        <time>2012-05-03T03:51:24Z</time>
      </trkpt>
      <trkpt lat="43.79897" lon="6.66492">
        <ele>1074</ele>
        <time>2012-05-03T03:51:35Z</time>
      </trkpt>
      <trkpt lat="43.79891" lon="6.66469">
        <ele>1077</ele>
        <time>2012-05-03T03:51:44Z</time>
      </trkpt>
      <trkpt lat="43.79892" lon="6.66424">
        <ele>1082</ele>
        <time>2012-05-03T03:52:01Z</time>
      </trkpt>
      <trkpt lat="43.79898" lon="6.66378">
        <ele>1088</ele>
        <time>2012-05-03T03:52:19Z</time>
      </trkpt>
      <trkpt lat="43.79889" lon="6.66353">
        <ele>1085</ele>
        <time>2012-05-03T03:52:21Z</time>
      </trkpt>
      <trkpt lat="43.79875" lon="6.66338">
        <ele>1082</ele>
        <time>2012-05-03T03:52:24Z</time>
      </trkpt>
      <trkpt lat="43.79865" lon="6.66336">
        <ele>1081</ele>
        <time>2012-05-03T03:52:25Z</time>
      </trkpt>
      <trkpt lat="43.79826" lon="6.66341">
        <ele>1076</ele>
        <time>2012-05-03T03:52:30Z</time>
      </trkpt>
      <trkpt lat="43.79786" lon="6.66333">
        <ele>1071</ele>
        <time>2012-05-03T03:52:36Z</time>
      </trkpt>
      <trkpt lat="43.7977" lon="6.66318">
        <ele>1072</ele>
        <time>2012-05-03T03:52:41Z</time>
      </trkpt>
      <trkpt lat="43.79762" lon="6.66297">
        <ele>1073</ele>
        <time>2012-05-03T03:52:46Z</time>
      </trkpt>
      <trkpt lat="43.79753" lon="6.66187">
        <ele>1078</ele>
        <time>2012-05-03T03:53:08Z</time>
      </trkpt>
      <trkpt lat="43.79759" lon="6.6612">
        <ele>1078</ele>
        <time>2012-05-03T03:53:16Z</time>
      </trkpt>
      <trkpt lat="43.79757" lon="6.66095">
        <ele>1078</ele>
        <time>2012-05-03T03:53:19Z</time>
      </trkpt>
      <trkpt lat="43.79744" lon="6.66045">
        <ele>1079</ele>
        <time>2012-05-03T03:53:25Z</time>
      </trkpt>
      <trkpt lat="43.79744" lon="6.6593">
        <ele>1071</ele>
        <time>2012-05-03T03:53:36Z</time>
      </trkpt>
      <trkpt lat="43.79719" lon="6.65759">
        <ele>1061</ele>
        <time>2012-05-03T03:53:52Z</time>
      </trkpt>
      <trkpt lat="43.79705" lon="6.65713">
        <ele>1062</ele>
        <time>2012-05-03T03:54:00Z</time>
      </trkpt>
      <trkpt lat="43.7969" lon="6.65691">
        <ele>1062</ele>
        <time>2012-05-03T03:54:04Z</time>
      </trkpt>
      <trkpt lat="43.79658" lon="6.65672">
        <ele>1063</ele>
        <time>2012-05-03T03:54:12Z</time>
      </trkpt>
      <trkpt lat="43.79618" lon="6.65675">
        <ele>1065</ele>
        <time>2012-05-03T03:54:20Z</time>
      </trkpt>
      <trkpt lat="43.79551" lon="6.65717">
        <ele>1066</ele>
        <time>2012-05-03T03:54:34Z</time>
      </trkpt>
      <trkpt lat="43.79463" lon="6.65781">
        <ele>1069</ele>
        <time>2012-05-03T03:54:53Z</time>
      </trkpt>
      <trkpt lat="43.79409" lon="6.65799">
        <ele>1066</ele>
        <time>2012-05-03T03:55:00Z</time>
      </trkpt>
      <trkpt lat="43.79419" lon="6.65815">
        <ele>1065</ele>
        <time>2012-05-03T03:55:02Z</time>
      </trkpt>
      <trkpt lat="43.79465" lon="6.65807">
        <ele>1064</ele>
        <time>2012-05-03T03:55:08Z</time>
      </trkpt>
      <trkpt lat="43.79482" lon="6.65813">
        <ele>1063</ele>
        <time>2012-05-03T03:55:11Z</time>
      </trkpt>
      <trkpt lat="43.79493" lon="6.6583">
        <ele>1062</ele>
        <time>2012-05-03T03:55:13Z</time>
      </trkpt>
      <trkpt lat="43.79494" lon="6.65854">
        <ele>1061</ele>
        <time>2012-05-03T03:55:15Z</time>
      </trkpt>
      <trkpt lat="43.79482" lon="6.65874">
        <ele>1061</ele>
        <time>2012-05-03T03:55:18Z</time>
      </trkpt>
      <trkpt lat="43.79387" lon="6.6597">
        <ele>1056</ele>
        <time>2012-05-03T03:55:33Z</time>
      </trkpt>
      <trkpt lat="43.79353" lon="6.66018">
        <ele>1054</ele>
        <time>2012-05-03T03:55:40Z</time>
      </trkpt>
      <trkpt lat="43.79212" lon="6.6632">
        <ele>1044</ele>
        <time>2012-05-03T03:56:14Z</time>
      </trkpt>
      <trkpt lat="43.79194" lon="6.66373">
        <ele>1044</ele>
        <time>2012-05-03T03:56:22Z</time>
      </trkpt>
      <trkpt lat="43.79148" lon="6.66646">
        <ele>1048</ele>
        <time>2012-05-03T03:56:57Z</time>
      </trkpt>
      <trkpt lat="43.79145" lon="6.66691">
        <ele>1048</ele>
        <time>2012-05-03T03:57:02Z</time>
      </trkpt>
      <trkpt lat="43.79146" lon="6.6676">
        <ele>1048</ele>
        <time>2012-05-03T03:57:09Z</time>
      </trkpt>
      <trkpt lat="43.79153" lon="6.6685">
        <ele>1049</ele>
        <time>2012-05-03T03:57:19Z</time>
      </trkpt>
      <trkpt lat="43.79168" lon="6.6695">
        <ele>1049</ele>
        <time>2012-05-03T03:57:30Z</time>
      </trkpt>
      <trkpt lat="43.79178" lon="6.66991">
        <ele>1050</ele>
        <time>2012-05-03T03:57:35Z</time>
      </trkpt>
      <trkpt lat="43.79178" lon="6.66991">
        <ele>1050</ele>
        <time>2012-05-03T03:57:36Z</time>
      </trkpt>
      <trkpt lat="43.79192" lon="6.67048">
        <ele>1050</ele>
        <time>2012-05-03T03:57:43Z</time>
      </trkpt>
      <trkpt lat="43.79261" lon="6.6754">
        <ele>1055</ele>
        <time>2012-05-03T03:58:42Z</time>
      </trkpt>
      <trkpt lat="43.79328" lon="6.67774">
        <ele>1058</ele>
        <time>2012-05-03T03:59:14Z</time>
      </trkpt>
      <trkpt lat="43.79373" lon="6.67894">
        <ele>1061</ele>
        <time>2012-05-03T03:59:34Z</time>
      </trkpt>
      <trkpt lat="43.79389" lon="6.67971">
        <ele>1061</ele>
        <time>2012-05-03T03:59:44Z</time>
      </trkpt>
      <trkpt lat="43.79392" lon="6.68217">
        <ele>1065</ele>
        <time>2012-05-03T04:00:15Z</time>
      </trkpt>
      <trkpt lat="43.79387" lon="6.68393">
        <ele>1066</ele>
        <time>2012-05-03T04:00:35Z</time>
      </trkpt>
      <trkpt lat="43.79377" lon="6.68488">
        <ele>1066</ele>
        <time>2012-05-03T04:00:45Z</time>
      </trkpt>
      <trkpt lat="43.79374" lon="6.68627">
        <ele>1067</ele>
        <time>2012-05-03T04:01:00Z</time>
      </trkpt>
      <trkpt lat="43.79362" lon="6.68724">
        <ele>1065</ele>
        <time>2012-05-03T04:01:09Z</time>
      </trkpt>
      <trkpt lat="43.79327" lon="6.68848">
        <ele>1063</ele>
        <time>2012-05-03T04:01:22Z</time>
      </trkpt>
      <trkpt lat="43.7932" lon="6.68904">
        <ele>1063</ele>
        <time>2012-05-03T04:01:28Z</time>
      </trkpt>
      <trkpt lat="43.79319" lon="6.68963">
        <ele>1063</ele>
        <time>2012-05-03T04:01:34Z</time>
      </trkpt>
      <trkpt lat="43.79351" lon="6.69182">
        <ele>1064</ele>
        <time>2012-05-03T04:01:57Z</time>
      </trkpt>
      <trkpt lat="43.79402" lon="6.69332">
        <ele>1069</ele>
        <time>2012-05-03T04:02:25Z</time>
      </trkpt>
      <trkpt lat="43.79414" lon="6.69415">
        <ele>1069</ele>
        <time>2012-05-03T04:02:34Z</time>
      </trkpt>
      <trkpt lat="43.79416" lon="6.69502">
        <ele>1070</ele>
        <time>2012-05-03T04:02:44Z</time>
      </trkpt>
      <trkpt lat="43.79428" lon="6.69591">
        <ele>1070</ele>
        <time>2012-05-03T04:02:55Z</time>
      </trkpt>
      <trkpt lat="43.79438" lon="6.69716">
        <ele>1072</ele>
        <time>2012-05-03T04:03:10Z</time>
      </trkpt>
      <trkpt lat="43.79435" lon="6.69837">
        <ele>1072</ele>
        <time>2012-05-03T04:03:21Z</time>
      </trkpt>
      <trkpt lat="43.79444" lon="6.69955">
        <ele>1072</ele>
        <time>2012-05-03T04:03:33Z</time>
      </trkpt>
      <trkpt lat="43.79444" lon="6.70138">
        <ele>1072</ele>
        <time>2012-05-03T04:03:50Z</time>
      </trkpt>
      <trkpt lat="43.79456" lon="6.7025">
        <ele>1073</ele>
        <time>2012-05-03T04:04:04Z</time>
      </trkpt>
      <trkpt lat="43.79479" lon="6.7035">
        <ele>1074</ele>
        <time>2012-05-03T04:04:16Z</time>
      </trkpt>
      <trkpt lat="43.79488" lon="6.70429">
        <ele>1074</ele>
        <time>2012-05-03T04:04:24Z</time>
      </trkpt>
      <trkpt lat="43.79492" lon="6.70583">
        <ele>1074</ele>
        <time>2012-05-03T04:04:39Z</time>
      </trkpt>
      <trkpt lat="43.79483" lon="6.70673">
        <ele>1073</ele>
        <time>2012-05-03T04:04:48Z</time>
      </trkpt>
      <trkpt lat="43.79482" lon="6.70771">
        <ele>1072</ele>
        <time>2012-05-03T04:04:57Z</time>
      </trkpt>
      <trkpt lat="43.79491" lon="6.70918">
        <ele>1072</ele>
        <time>2012-05-03T04:05:11Z</time>
      </trkpt>
      <trkpt lat="43.79501" lon="6.70958">
        <ele>1072</ele>
        <time>2012-05-03T04:05:17Z</time>
      </trkpt>
      <trkpt lat="43.79553" lon="6.71068">
        <ele>1075</ele>
        <time>2012-05-03T04:05:35Z</time>
      </trkpt>
      <trkpt lat="43.79591" lon="6.7126">
        <ele>1076</ele>
        <time>2012-05-03T04:05:57Z</time>
      </trkpt>
      <trkpt lat="43.79618" lon="6.71366">
        <ele>1076</ele>
        <time>2012-05-03T04:06:09Z</time>
      </trkpt>
      <trkpt lat="43.79625" lon="6.7143">
        <ele>1077</ele>
        <time>2012-05-03T04:06:16Z</time>
      </trkpt>
      <trkpt lat="43.79631" lon="6.71422">
        <ele>1077</ele>
        <time>2012-05-03T04:06:18Z</time>
      </trkpt>
      <trkpt lat="43.79644" lon="6.71371">
        <ele>1078</ele>
        <time>2012-05-03T04:06:25Z</time>
      </trkpt>
      <trkpt lat="43.79644" lon="6.71371">
        <ele>1078</ele>
        <time>2012-05-03T04:06:26Z</time>
      </trkpt>
      <trkpt lat="43.79631" lon="6.71422">
        <ele>1077</ele>
        <time>2012-05-03T04:06:31Z</time>
      </trkpt>
      <trkpt lat="43.79625" lon="6.7143">
        <ele>1077</ele>
        <time>2012-05-03T04:06:32Z</time>
      </trkpt>
      <trkpt lat="43.79632" lon="6.71741">
        <ele>1077</ele>
        <time>2012-05-03T04:07:02Z</time>
      </trkpt>
      <trkpt lat="43.79645" lon="6.71804">
        <ele>1077</ele>
        <time>2012-05-03T04:07:11Z</time>
      </trkpt>
      <trkpt lat="43.79684" lon="6.71942">
        <ele>1080</ele>
        <time>2012-05-03T04:07:30Z</time>
      </trkpt>
      <trkpt lat="43.79702" lon="6.72213">
        <ele>1084</ele>
        <time>2012-05-03T04:08:06Z</time>
      </trkpt>
      <trkpt lat="43.79736" lon="6.72408">
        <ele>1084</ele>
        <time>2012-05-03T04:08:25Z</time>
      </trkpt>
      <trkpt lat="43.7975" lon="6.72549">
        <ele>1083</ele>
        <time>2012-05-03T04:08:39Z</time>
      </trkpt>
      <trkpt lat="43.79773" lon="6.72666">
        <ele>1084</ele>
        <time>2012-05-03T04:08:54Z</time>
      </trkpt>
      <trkpt lat="43.7977" lon="6.7292">
        <ele>1087</ele>
        <time>2012-05-03T04:09:25Z</time>
      </trkpt>
      <trkpt lat="43.79764" lon="6.73022">
        <ele>1086</ele>
        <time>2012-05-03T04:09:35Z</time>
      </trkpt>
      <trkpt lat="43.79751" lon="6.73156">
        <ele>1086</ele>
        <time>2012-05-03T04:09:48Z</time>
      </trkpt>
      <trkpt lat="43.79721" lon="6.733">
        <ele>1084</ele>
        <time>2012-05-03T04:10:02Z</time>
      </trkpt>
      <trkpt lat="43.79708" lon="6.73406">
        <ele>1082</ele>
        <time>2012-05-03T04:10:13Z</time>
      </trkpt>
      <trkpt lat="43.79658" lon="6.73429">
        <ele>1082</ele>
        <time>2012-05-03T04:10:20Z</time>
      </trkpt>
      <trkpt lat="43.79612" lon="6.7346">
        <ele>1079</ele>
        <time>2012-05-03T04:10:26Z</time>
      </trkpt>
      <trkpt lat="43.7954" lon="6.73529">
        <ele>1075</ele>
        <time>2012-05-03T04:10:38Z</time>
      </trkpt>
      <trkpt lat="43.79501" lon="6.73575">
        <ele>1073</ele>
        <time>2012-05-03T04:10:45Z</time>
      </trkpt>
      <trkpt lat="43.79476" lon="6.73594">
        <ele>1072</ele>
        <time>2012-05-03T04:10:49Z</time>
      </trkpt>
      <trkpt lat="43.79408" lon="6.73621">
        <ele>1070</ele>
        <time>2012-05-03T04:10:58Z</time>
      </trkpt>
      <trkpt lat="43.7932" lon="6.73632">
        <ele>1074</ele>
        <time>2012-05-03T04:11:20Z</time>
      </trkpt>
      <trkpt lat="43.79305" lon="6.7363">
        <ele>1075</ele>
        <time>2012-05-03T04:11:24Z</time>
      </trkpt>
      <trkpt lat="43.7927" lon="6.73609">
        <ele>1080</ele>
        <time>2012-05-03T04:11:43Z</time>
      </trkpt>
      <trkpt lat="43.79244" lon="6.73614">
        <ele>1084</ele>
        <time>2012-05-03T04:11:56Z</time>
      </trkpt>
      <trkpt lat="43.79197" lon="6.73613">
        <ele>1092</ele>
        <time>2012-05-03T04:12:20Z</time>
      </trkpt>
      <trkpt lat="43.79171" lon="6.73596">
        <ele>1095</ele>
        <time>2012-05-03T04:12:33Z</time>
      </trkpt>
      <trkpt lat="43.79095" lon="6.73525">
        <ele>1108</ele>
        <time>2012-05-03T04:13:14Z</time>
      </trkpt>
      <trkpt lat="43.79075" lon="6.73478">
        <ele>1109</ele>
        <time>2012-05-03T04:13:24Z</time>
      </trkpt>
      <trkpt lat="43.79065" lon="6.73438">
        <ele>1111</ele>
        <time>2012-05-03T04:13:31Z</time>
      </trkpt>
      <trkpt lat="43.7906" lon="6.73429">
        <ele>1111</ele>
        <time>2012-05-03T04:13:33Z</time>
      </trkpt>
      <trkpt lat="43.79055" lon="6.73428">
        <ele>1111</ele>
        <time>2012-05-03T04:13:34Z</time>
      </trkpt>
      <trkpt lat="43.7905" lon="6.73439">
        <ele>1112</ele>
        <time>2012-05-03T04:13:37Z</time>
      </trkpt>
      <trkpt lat="43.79061" lon="6.73485">
        <ele>1113</ele>
        <time>2012-05-03T04:13:45Z</time>
      </trkpt>
      <trkpt lat="43.79071" lon="6.73559">
        <ele>1116</ele>
        <time>2012-05-03T04:13:58Z</time>
      </trkpt>
      <trkpt lat="43.7913" lon="6.73715">
        <ele>1122</ele>
        <time>2012-05-03T04:14:29Z</time>
      </trkpt>
      <trkpt lat="43.79153" lon="6.7376">
        <ele>1125</ele>
        <time>2012-05-03T04:14:44Z</time>
      </trkpt>
      <trkpt lat="43.79153" lon="6.73773">
        <ele>1126</ele>
        <time>2012-05-03T04:14:47Z</time>
      </trkpt>
      <trkpt lat="43.79147" lon="6.73777">
        <ele>1127</ele>
        <time>2012-05-03T04:14:50Z</time>
      </trkpt>
      <trkpt lat="43.79093" lon="6.73695">
        <ele>1135</ele>
        <time>2012-05-03T04:15:19Z</time>
      </trkpt>
      <trkpt lat="43.79015" lon="6.73611">
        <ele>1145</ele>
        <time>2012-05-03T04:15:56Z</time>
      </trkpt>
      <trkpt lat="43.78999" lon="6.73584">
        <ele>1146</ele>
        <time>2012-05-03T04:16:02Z</time>
      </trkpt>
      <trkpt lat="43.78961" lon="6.73503">
        <ele>1149</ele>
        <time>2012-05-03T04:16:18Z</time>
      </trkpt>
      <trkpt lat="43.7895" lon="6.73469">
        <ele>1151</ele>
        <time>2012-05-03T04:16:27Z</time>
      </trkpt>
      <trkpt lat="43.78942" lon="6.73422">
        <ele>1154</ele>
        <time>2012-05-03T04:16:39Z</time>
      </trkpt>
      <trkpt lat="43.78935" lon="6.73406">
        <ele>1155</ele>
        <time>2012-05-03T04:16:43Z</time>
      </trkpt>
      <trkpt lat="43.78924" lon="6.73396">
        <ele>1156</ele>
        <time>2012-05-03T04:16:48Z</time>
      </trkpt>
      <trkpt lat="43.78863" lon="6.73364">
        <ele>1162</ele>
        <time>2012-05-03T04:17:10Z</time>
      </trkpt>
      <trkpt lat="43.78863" lon="6.73364">
        <ele>1162</ele>
        <time>2012-05-03T04:17:11Z</time>
      </trkpt>
      <trkpt lat="43.78823" lon="6.73325">
        <ele>1168</ele>
        <time>2012-05-03T04:17:32Z</time>
      </trkpt>
      <trkpt lat="43.7879" lon="6.7328">
        <ele>1174</ele>
        <time>2012-05-03T04:17:52Z</time>
      </trkpt>
      <trkpt lat="43.78777" lon="6.73255">
        <ele>1174</ele>
        <time>2012-05-03T04:17:56Z</time>
      </trkpt>
      <trkpt lat="43.78763" lon="6.73184">
        <ele>1175</ele>
        <time>2012-05-03T04:18:07Z</time>
      </trkpt>
      <trkpt lat="43.78763" lon="6.7311">
        <ele>1177</ele>
        <time>2012-05-03T04:18:17Z</time>
      </trkpt>
      <trkpt lat="43.78759" lon="6.73098">
        <ele>1177</ele>
        <time>2012-05-03T04:18:19Z</time>
      </trkpt>
      <trkpt lat="43.7875" lon="6.73104">
        <ele>1177</ele>
        <time>2012-05-03T04:18:21Z</time>
      </trkpt>
      <trkpt lat="43.78744" lon="6.7318">
        <ele>1179</ele>
        <time>2012-05-03T04:18:33Z</time>
      </trkpt>
      <trkpt lat="43.78757" lon="6.73302">
        <ele>1183</ele>
        <time>2012-05-03T04:18:53Z</time>
      </trkpt>
      <trkpt lat="43.7876" lon="6.73374">
        <ele>1185</ele>
        <time>2012-05-03T04:19:07Z</time>
      </trkpt>
      <trkpt lat="43.78775" lon="6.73426">
        <ele>1188</ele>
        <time>2012-05-03T04:19:17Z</time>
      </trkpt>
      <trkpt lat="43.78774" lon="6.73433">
        <ele>1187</ele>
        <time>2012-05-03T04:19:18Z</time>
      </trkpt>
      <trkpt lat="43.78768" lon="6.73438">
        <ele>1187</ele>
        <time>2012-05-03T04:19:19Z</time>
      </trkpt>
      <trkpt lat="43.78741" lon="6.7343">
        <ele>1187</ele>
        <time>2012-05-03T04:19:23Z</time>
      </trkpt>
      <trkpt lat="43.78721" lon="6.73416">
        <ele>1186</ele>
        <time>2012-05-03T04:19:26Z</time>
      </trkpt>
      <trkpt lat="43.78551" lon="6.73226">
        <ele>1183</ele>
        <time>2012-05-03T04:19:55Z</time>
      </trkpt>
      <trkpt lat="43.78472" lon="6.73127">
        <ele>1187</ele>
        <time>2012-05-03T04:20:19Z</time>
      </trkpt>
      <trkpt lat="43.78393" lon="6.73079">
        <ele>1188</ele>
        <time>2012-05-03T04:20:33Z</time>
      </trkpt>
      <trkpt lat="43.783" lon="6.7301">
        <ele>1190</ele>
        <time>2012-05-03T04:20:51Z</time>
      </trkpt>
      <trkpt lat="43.78109" lon="6.72934">
        <ele>1190</ele>
        <time>2012-05-03T04:21:18Z</time>
      </trkpt>
      <trkpt lat="43.7804" lon="6.72954">
        <ele>1179</ele>
        <time>2012-05-03T04:21:27Z</time>
      </trkpt>
      <trkpt lat="43.77959" lon="6.72953">
        <ele>1167</ele>
        <time>2012-05-03T04:21:38Z</time>
      </trkpt>
      <trkpt lat="43.77916" lon="6.72936">
        <ele>1167</ele>
        <time>2012-05-03T04:21:45Z</time>
      </trkpt>
      <trkpt lat="43.77896" lon="6.72908">
        <ele>1167</ele>
        <time>2012-05-03T04:21:49Z</time>
      </trkpt>
      <trkpt lat="43.77867" lon="6.72847">
        <ele>1168</ele>
        <time>2012-05-03T04:21:57Z</time>
      </trkpt>
      <trkpt lat="43.77814" lon="6.72801">
        <ele>1169</ele>
        <time>2012-05-03T04:22:08Z</time>
      </trkpt>
      <trkpt lat="43.7778" lon="6.72754">
        <ele>1170</ele>
        <time>2012-05-03T04:22:17Z</time>
      </trkpt>
      <trkpt lat="43.77756" lon="6.72737">
        <ele>1168</ele>
        <time>2012-05-03T04:22:21Z</time>
      </trkpt>
      <trkpt lat="43.77708" lon="6.72721">
        <ele>1164</ele>
        <time>2012-05-03T04:22:27Z</time>
      </trkpt>
      <trkpt lat="43.77679" lon="6.727">
        <ele>1162</ele>
        <time>2012-05-03T04:22:32Z</time>
      </trkpt>
      <trkpt lat="43.77661" lon="6.72676">
        <ele>1162</ele>
        <time>2012-05-03T04:22:37Z</time>
      </trkpt>
      <trkpt lat="43.77604" lon="6.72579">
        <ele>1166</ele>
        <time>2012-05-03T04:22:57Z</time>
      </trkpt>
      <trkpt lat="43.77561" lon="6.72532">
        <ele>1164</ele>
        <time>2012-05-03T04:23:04Z</time>
      </trkpt>
      <trkpt lat="43.77561" lon="6.72532">
        <ele>1164</ele>
        <time>2012-05-03T04:23:05Z</time>
      </trkpt>
      <trkpt lat="43.77524" lon="6.72488">
        <ele>1164</ele>
        <time>2012-05-03T04:23:12Z</time>
      </trkpt>
      <trkpt lat="43.77429" lon="6.72309">
        <ele>1165</ele>
        <time>2012-05-03T04:23:35Z</time>
      </trkpt>
      <trkpt lat="43.77406" lon="6.72286">
        <ele>1165</ele>
        <time>2012-05-03T04:23:39Z</time>
      </trkpt>
      <trkpt lat="43.77309" lon="6.7221">
        <ele>1165</ele>
        <time>2012-05-03T04:23:54Z</time>
      </trkpt>
      <trkpt lat="43.77268" lon="6.72195">
        <ele>1163</ele>
        <time>2012-05-03T04:24:00Z</time>
      </trkpt>
      <trkpt lat="43.77194" lon="6.72079">
        <ele>1161</ele>
        <time>2012-05-03T04:24:14Z</time>
      </trkpt>
      <trkpt lat="43.7717" lon="6.72028">
        <ele>1161</ele>
        <time>2012-05-03T04:24:20Z</time>
      </trkpt>
      <trkpt lat="43.7716" lon="6.71976">
        <ele>1161</ele>
        <time>2012-05-03T04:24:26Z</time>
      </trkpt>
      <trkpt lat="43.77162" lon="6.71948">
        <ele>1161</ele>
        <time>2012-05-03T04:24:28Z</time>
      </trkpt>
      <trkpt lat="43.77172" lon="6.71911">
        <ele>1162</ele>
        <time>2012-05-03T04:24:36Z</time>
      </trkpt>
      <trkpt lat="43.77198" lon="6.71866">
        <ele>1165</ele>
        <time>2012-05-03T04:24:48Z</time>
      </trkpt>
      <trkpt lat="43.7719" lon="6.71863">
        <ele>1165</ele>
        <time>2012-05-03T04:24:50Z</time>
      </trkpt>
      <trkpt lat="43.77172" lon="6.71893">
        <ele>1167</ele>
        <time>2012-05-03T04:24:58Z</time>
      </trkpt>
      <trkpt lat="43.77126" lon="6.72014">
        <ele>1173</ele>
        <time>2012-05-03T04:25:25Z</time>
      </trkpt>
      <trkpt lat="43.77077" lon="6.72094">
        <ele>1178</ele>
        <time>2012-05-03T04:25:47Z</time>
      </trkpt>
      <trkpt lat="43.77072" lon="6.72127">
        <ele>1179</ele>
        <time>2012-05-03T04:25:54Z</time>
      </trkpt>
      <trkpt lat="43.77075" lon="6.7215">
        <ele>1180</ele>
        <time>2012-05-03T04:25:58Z</time>
      </trkpt>
      <trkpt lat="43.77111" lon="6.72255">
        <ele>1186</ele>
        <time>2012-05-03T04:26:22Z</time>
      </trkpt>
      <trkpt lat="43.77118" lon="6.72309">
        <ele>1191</ele>
        <time>2012-05-03T04:26:42Z</time>
      </trkpt>
      <trkpt lat="43.77111" lon="6.72502">
        <ele>1212</ele>
        <time>2012-05-03T04:27:49Z</time>
      </trkpt>
      <trkpt lat="43.77115" lon="6.72563">
        <ele>1213</ele>
        <time>2012-05-03T04:27:57Z</time>
      </trkpt>
      <trkpt lat="43.77131" lon="6.7266">
        <ele>1215</ele>
        <time>2012-05-03T04:28:12Z</time>
      </trkpt>
      <trkpt lat="43.77132" lon="6.7272">
        <ele>1218</ele>
        <time>2012-05-03T04:28:26Z</time>
      </trkpt>
      <trkpt lat="43.77128" lon="6.72767">
        <ele>1221</ele>
        <time>2012-05-03T04:28:37Z</time>
      </trkpt>
      <trkpt lat="43.77147" lon="6.72842">
        <ele>1226</ele>
        <time>2012-05-03T04:28:56Z</time>
      </trkpt>
      <trkpt lat="43.77148" lon="6.72911">
        <ele>1234</ele>
        <time>2012-05-03T04:29:23Z</time>
      </trkpt>
      <trkpt lat="43.77154" lon="6.72953">
        <ele>1239</ele>
        <time>2012-05-03T04:29:40Z</time>
      </trkpt>
      <trkpt lat="43.77151" lon="6.72994">
        <ele>1245</ele>
        <time>2012-05-03T04:29:56Z</time>
      </trkpt>
      <trkpt lat="43.77164" lon="6.73045">
        <ele>1249</ele>
        <time>2012-05-03T04:30:13Z</time>
      </trkpt>
      <trkpt lat="43.77169" lon="6.73161">
        <ele>1260</ele>
        <time>2012-05-03T04:30:49Z</time>
      </trkpt>
      <trkpt lat="43.77184" lon="6.73223">
        <ele>1264</ele>
        <time>2012-05-03T04:31:05Z</time>
      </trkpt>
      <trkpt lat="43.772" lon="6.73382">
        <ele>1275</ele>
        <time>2012-05-03T04:31:47Z</time>
      </trkpt>
      <trkpt lat="43.77207" lon="6.73513">
        <ele>1287</ele>
        <time>2012-05-03T04:32:28Z</time>
      </trkpt>
      <trkpt lat="43.77224" lon="6.73682">
        <ele>1297</ele>
        <time>2012-05-03T04:33:08Z</time>
      </trkpt>
      <trkpt lat="43.77223" lon="6.73708">
        <ele>1298</ele>
        <time>2012-05-03T04:33:14Z</time>
      </trkpt>
      <trkpt lat="43.77212" lon="6.73768">
        <ele>1301</ele>
        <time>2012-05-03T04:33:27Z</time>
      </trkpt>
      <trkpt lat="43.77217" lon="6.73798">
        <ele>1302</ele>
        <time>2012-05-03T04:33:34Z</time>
      </trkpt>
      <trkpt lat="43.77226" lon="6.73822">
        <ele>1304</ele>
        <time>2012-05-03T04:33:39Z</time>
      </trkpt>
      <trkpt lat="43.77224" lon="6.73829">
        <ele>1304</ele>
        <time>2012-05-03T04:33:41Z</time>
      </trkpt>
      <trkpt lat="43.77218" lon="6.73832">
        <ele>1304</ele>
        <time>2012-05-03T04:33:43Z</time>
      </trkpt>
      <trkpt lat="43.77213" lon="6.73828">
        <ele>1305</ele>
        <time>2012-05-03T04:33:44Z</time>
      </trkpt>
      <trkpt lat="43.77201" lon="6.73787">
        <ele>1307</ele>
        <time>2012-05-03T04:33:54Z</time>
      </trkpt>
      <trkpt lat="43.77189" lon="6.73686">
        <ele>1312</ele>
        <time>2012-05-03T04:34:15Z</time>
      </trkpt>
      <trkpt lat="43.77168" lon="6.73632">
        <ele>1314</ele>
        <time>2012-05-03T04:34:26Z</time>
      </trkpt>
      <trkpt lat="43.77146" lon="6.73559">
        <ele>1317</ele>
        <time>2012-05-03T04:34:41Z</time>
      </trkpt>
      <trkpt lat="43.77104" lon="6.73463">
        <ele>1324</ele>
        <time>2012-05-03T04:35:10Z</time>
      </trkpt>
      <trkpt lat="43.77038" lon="6.73342">
        <ele>1335</ele>
        <time>2012-05-03T04:35:49Z</time>
      </trkpt>
      <trkpt lat="43.76998" lon="6.73298">
        <ele>1339</ele>
        <time>2012-05-03T04:36:08Z</time>
      </trkpt>
      <trkpt lat="43.76925" lon="6.73187">
        <ele>1350</ele>
        <time>2012-05-03T04:36:47Z</time>
      </trkpt>
      <trkpt lat="43.76867" lon="6.73092">
        <ele>1356</ele>
        <time>2012-05-03T04:37:13Z</time>
      </trkpt>
      <trkpt lat="43.76837" lon="6.73032">
        <ele>1363</ele>
        <time>2012-05-03T04:37:38Z</time>
      </trkpt>
      <trkpt lat="43.7682" lon="6.73013">
        <ele>1366</ele>
        <time>2012-05-03T04:37:48Z</time>
      </trkpt>
      <trkpt lat="43.768" lon="6.73015">
        <ele>1369</ele>
        <time>2012-05-03T04:37:58Z</time>
      </trkpt>
      <trkpt lat="43.7679" lon="6.73024">
        <ele>1371</ele>
        <time>2012-05-03T04:38:03Z</time>
      </trkpt>
      <trkpt lat="43.76758" lon="6.73095">
        <ele>1380</ele>
        <time>2012-05-03T04:38:34Z</time>
      </trkpt>
      <trkpt lat="43.76746" lon="6.73111">
        <ele>1382</ele>
        <time>2012-05-03T04:38:42Z</time>
      </trkpt>
      <trkpt lat="43.76726" lon="6.73115">
        <ele>1386</ele>
        <time>2012-05-03T04:38:52Z</time>
      </trkpt>
      <trkpt lat="43.76696" lon="6.73112">
        <ele>1387</ele>
        <time>2012-05-03T04:38:59Z</time>
      </trkpt>
      <trkpt lat="43.7668" lon="6.73106">
        <ele>1387</ele>
        <time>2012-05-03T04:39:03Z</time>
      </trkpt>
      <trkpt lat="43.76661" lon="6.73086">
        <ele>1388</ele>
        <time>2012-05-03T04:39:08Z</time>
      </trkpt>
      <trkpt lat="43.76649" lon="6.73045">
        <ele>1390</ele>
        <time>2012-05-03T04:39:15Z</time>
      </trkpt>
      <trkpt lat="43.76641" lon="6.72996">
        <ele>1388</ele>
        <time>2012-05-03T04:39:20Z</time>
      </trkpt>
      <trkpt lat="43.76632" lon="6.72994">
        <ele>1388</ele>
        <time>2012-05-03T04:39:22Z</time>
      </trkpt>
      <trkpt lat="43.76629" lon="6.73">
        <ele>1388</ele>
        <time>2012-05-03T04:39:22Z</time>
      </trkpt>
      <trkpt lat="43.7663" lon="6.73042">
        <ele>1387</ele>
        <time>2012-05-03T04:39:26Z</time>
      </trkpt>
      <trkpt lat="43.76615" lon="6.73127">
        <ele>1385</ele>
        <time>2012-05-03T04:39:35Z</time>
      </trkpt>
      <trkpt lat="43.76615" lon="6.73145">
        <ele>1384</ele>
        <time>2012-05-03T04:39:36Z</time>
      </trkpt>
      <trkpt lat="43.76629" lon="6.73211">
        <ele>1383</ele>
        <time>2012-05-03T04:39:43Z</time>
      </trkpt>
      <trkpt lat="43.76627" lon="6.73243">
        <ele>1383</ele>
        <time>2012-05-03T04:39:46Z</time>
      </trkpt>
      <trkpt lat="43.76421" lon="6.74106">
        <ele>1383</ele>
        <time>2012-05-03T04:41:14Z</time>
      </trkpt>
      <trkpt lat="43.76421" lon="6.74106">
        <ele>1383</ele>
        <time>2012-05-03T04:41:15Z</time>
      </trkpt>
      <trkpt lat="43.76336" lon="6.74441">
        <ele>1375</ele>
        <time>2012-05-03T04:41:49Z</time>
      </trkpt>
      <trkpt lat="43.76291" lon="6.74643">
        <ele>1371</ele>
        <time>2012-05-03T04:42:10Z</time>
      </trkpt>
      <trkpt lat="43.76287" lon="6.74677">
        <ele>1369</ele>
        <time>2012-05-03T04:42:13Z</time>
      </trkpt>
      <trkpt lat="43.76262" lon="6.75361">
        <ele>1333</ele>
        <time>2012-05-03T04:43:19Z</time>
      </trkpt>
      <trkpt lat="43.76255" lon="6.75412">
        <ele>1331</ele>
        <time>2012-05-03T04:43:24Z</time>
      </trkpt>
      <trkpt lat="43.76154" lon="6.75843">
        <ele>1318</ele>
        <time>2012-05-03T04:44:08Z</time>
      </trkpt>
      <trkpt lat="43.76144" lon="6.75905">
        <ele>1317</ele>
        <time>2012-05-03T04:44:14Z</time>
      </trkpt>
      <trkpt lat="43.76141" lon="6.75977">
        <ele>1317</ele>
        <time>2012-05-03T04:44:21Z</time>
      </trkpt>
      <trkpt lat="43.76152" lon="6.76066">
        <ele>1316</ele>
        <time>2012-05-03T04:44:29Z</time>
      </trkpt>
      <trkpt lat="43.76188" lon="6.76249">
        <ele>1315</ele>
        <time>2012-05-03T04:44:48Z</time>
      </trkpt>
      <trkpt lat="43.76215" lon="6.76317">
        <ele>1312</ele>
        <time>2012-05-03T04:44:55Z</time>
      </trkpt>
      <trkpt lat="43.76253" lon="6.76385">
        <ele>1309</ele>
        <time>2012-05-03T04:45:04Z</time>
      </trkpt>
      <trkpt lat="43.76301" lon="6.76572">
        <ele>1303</ele>
        <time>2012-05-03T04:45:23Z</time>
      </trkpt>
      <trkpt lat="43.76393" lon="6.76757">
        <ele>1299</ele>
        <time>2012-05-03T04:45:44Z</time>
      </trkpt>
      <trkpt lat="43.76407" lon="6.76822">
        <ele>1296</ele>
        <time>2012-05-03T04:45:51Z</time>
      </trkpt>
      <trkpt lat="43.76437" lon="6.77012">
        <ele>1289</ele>
        <time>2012-05-03T04:46:10Z</time>
      </trkpt>
      <trkpt lat="43.76448" lon="6.77153">
        <ele>1282</ele>
        <time>2012-05-03T04:46:23Z</time>
      </trkpt>
      <trkpt lat="43.76458" lon="6.77227">
        <ele>1277</ele>
        <time>2012-05-03T04:46:31Z</time>
      </trkpt>
      <trkpt lat="43.76477" lon="6.77275">
        <ele>1274</ele>
        <time>2012-05-03T04:46:36Z</time>
      </trkpt>
      <trkpt lat="43.76488" lon="6.77319">
        <ele>1271</ele>
        <time>2012-05-03T04:46:40Z</time>
      </trkpt>
      <trkpt lat="43.76485" lon="6.77463">
        <ele>1264</ele>
        <time>2012-05-03T04:46:54Z</time>
      </trkpt>
      <trkpt lat="43.7649" lon="6.77502">
        <ele>1260</ele>
        <time>2012-05-03T04:46:58Z</time>
      </trkpt>
      <trkpt lat="43.76498" lon="6.77529">
        <ele>1258</ele>
        <time>2012-05-03T04:47:01Z</time>
      </trkpt>
      <trkpt lat="43.76524" lon="6.77569">
        <ele>1254</ele>
        <time>2012-05-03T04:47:06Z</time>
      </trkpt>
      <trkpt lat="43.76544" lon="6.77613">
        <ele>1250</ele>
        <time>2012-05-03T04:47:11Z</time>
      </trkpt>
      <trkpt lat="43.76589" lon="6.77787">
        <ele>1238</ele>
        <time>2012-05-03T04:47:29Z</time>
      </trkpt>
      <trkpt lat="43.76616" lon="6.77862">
        <ele>1232</ele>
        <time>2012-05-03T04:47:37Z</time>
      </trkpt>
      <trkpt lat="43.76637" lon="6.77988">
        <ele>1223</ele>
        <time>2012-05-03T04:47:49Z</time>
      </trkpt>
      <trkpt lat="43.76705" lon="6.78242">
        <ele>1208</ele>
        <time>2012-05-03T04:48:16Z</time>
      </trkpt>
      <trkpt lat="43.76705" lon="6.78242">
        <ele>1208</ele>
        <time>2012-05-03T04:48:17Z</time>
      </trkpt>
      <trkpt lat="43.76723" lon="6.78307">
        <ele>1202</ele>
        <time>2012-05-03T04:48:23Z</time>
      </trkpt>
      <trkpt lat="43.76756" lon="6.78502">
        <ele>1188</ele>
        <time>2012-05-03T04:48:43Z</time>
      </trkpt>
      <trkpt lat="43.76769" lon="6.78557">
        <ele>1187</ele>
        <time>2012-05-03T04:48:48Z</time>
      </trkpt>
      <trkpt lat="43.76788" lon="6.78603">
        <ele>1187</ele>
        <time>2012-05-03T04:48:53Z</time>
      </trkpt>
      <trkpt lat="43.76802" lon="6.7865">
        <ele>1187</ele>
        <time>2012-05-03T04:48:58Z</time>
      </trkpt>
      <trkpt lat="43.76812" lon="6.78719">
        <ele>1184</ele>
        <time>2012-05-03T04:49:05Z</time>
      </trkpt>
      <trkpt lat="43.76854" lon="6.78889">
        <ele>1179</ele>
        <time>2012-05-03T04:49:22Z</time>
      </trkpt>
      <trkpt lat="43.76865" lon="6.78918">
        <ele>1178</ele>
        <time>2012-05-03T04:49:26Z</time>
      </trkpt>
      <trkpt lat="43.76906" lon="6.78992">
        <ele>1177</ele>
        <time>2012-05-03T04:49:35Z</time>
      </trkpt>
      <trkpt lat="43.76993" lon="6.79238">
        <ele>1159</ele>
        <time>2012-05-03T04:50:01Z</time>
      </trkpt>
      <trkpt lat="43.77017" lon="6.79265">
        <ele>1161</ele>
        <time>2012-05-03T04:50:10Z</time>
      </trkpt>
      <trkpt lat="43.77062" lon="6.79284">
        <ele>1164</ele>
        <time>2012-05-03T04:50:25Z</time>
      </trkpt>
      <trkpt lat="43.77097" lon="6.79287">
        <ele>1167</ele>
        <time>2012-05-03T04:50:35Z</time>
      </trkpt>
      <trkpt lat="43.77123" lon="6.79278">
        <ele>1169</ele>
        <time>2012-05-03T04:50:46Z</time>
      </trkpt>
      <trkpt lat="43.77158" lon="6.79249">
        <ele>1174</ele>
        <time>2012-05-03T04:51:02Z</time>
      </trkpt>
      <trkpt lat="43.77176" lon="6.7921">
        <ele>1178</ele>
        <time>2012-05-03T04:51:15Z</time>
      </trkpt>
      <trkpt lat="43.7721" lon="6.7909">
        <ele>1189</ele>
        <time>2012-05-03T04:51:54Z</time>
      </trkpt>
      <trkpt lat="43.77228" lon="6.79">
        <ele>1191</ele>
        <time>2012-05-03T04:52:08Z</time>
      </trkpt>
      <trkpt lat="43.7724" lon="6.78873">
        <ele>1194</ele>
        <time>2012-05-03T04:52:27Z</time>
      </trkpt>
      <trkpt lat="43.77268" lon="6.78721">
        <ele>1193</ele>
        <time>2012-05-03T04:52:42Z</time>
      </trkpt>
      <trkpt lat="43.77281" lon="6.78505">
        <ele>1196</ele>
        <time>2012-05-03T04:53:11Z</time>
      </trkpt>
      <trkpt lat="43.77288" lon="6.78458">
        <ele>1192</ele>
        <time>2012-05-03T04:53:15Z</time>
      </trkpt>
      <trkpt lat="43.77306" lon="6.78427">
        <ele>1190</ele>
        <time>2012-05-03T04:53:19Z</time>
      </trkpt>
      <trkpt lat="43.77324" lon="6.78417">
        <ele>1188</ele>
        <time>2012-05-03T04:53:22Z</time>
      </trkpt>
      <trkpt lat="43.7734" lon="6.78415">
        <ele>1186</ele>
        <time>2012-05-03T04:53:24Z</time>
      </trkpt>
      <trkpt lat="43.77358" lon="6.78421">
        <ele>1185</ele>
        <time>2012-05-03T04:53:26Z</time>
      </trkpt>
      <trkpt lat="43.77371" lon="6.78432">
        <ele>1184</ele>
        <time>2012-05-03T04:53:28Z</time>
      </trkpt>
      <trkpt lat="43.77377" lon="6.7844">
        <ele>1184</ele>
        <time>2012-05-03T04:53:29Z</time>
      </trkpt>
      <trkpt lat="43.77383" lon="6.78466">
        <ele>1184</ele>
        <time>2012-05-03T04:53:32Z</time>
      </trkpt>
      <trkpt lat="43.77386" lon="6.78475">
        <ele>1184</ele>
        <time>2012-05-03T04:53:33Z</time>
      </trkpt>
      <trkpt lat="43.77382" lon="6.78502">
        <ele>1184</ele>
        <time>2012-05-03T04:53:36Z</time>
      </trkpt>
      <trkpt lat="43.77384" lon="6.78519">
        <ele>1184</ele>
        <time>2012-05-03T04:53:37Z</time>
      </trkpt>
      <trkpt lat="43.77362" lon="6.78712">
        <ele>1183</ele>
        <time>2012-05-03T04:53:56Z</time>
      </trkpt>
      <trkpt lat="43.77369" lon="6.78772">
        <ele>1182</ele>
        <time>2012-05-03T04:54:02Z</time>
      </trkpt>
      <trkpt lat="43.77383" lon="6.7885">
        <ele>1181</ele>
        <time>2012-05-03T04:54:10Z</time>
      </trkpt>
      <trkpt lat="43.77414" lon="6.78971">
        <ele>1181</ele>
        <time>2012-05-03T04:54:22Z</time>
      </trkpt>
      <trkpt lat="43.77431" lon="6.78996">
        <ele>1183</ele>
        <time>2012-05-03T04:54:30Z</time>
      </trkpt>
      <trkpt lat="43.77468" lon="6.79013">
        <ele>1186</ele>
        <time>2012-05-03T04:54:43Z</time>
      </trkpt>
      <trkpt lat="43.77488" lon="6.79034">
        <ele>1188</ele>
        <time>2012-05-03T04:54:52Z</time>
      </trkpt>
      <trkpt lat="43.77495" lon="6.79059">
        <ele>1190</ele>
        <time>2012-05-03T04:54:58Z</time>
      </trkpt>
      <trkpt lat="43.77499" lon="6.7914">
        <ele>1190</ele>
        <time>2012-05-03T04:55:07Z</time>
      </trkpt>
      <trkpt lat="43.77483" lon="6.79272">
        <ele>1191</ele>
        <time>2012-05-03T04:55:21Z</time>
      </trkpt>
      <trkpt lat="43.77478" lon="6.79296">
        <ele>1189</ele>
        <time>2012-05-03T04:55:24Z</time>
      </trkpt>
      <trkpt lat="43.77471" lon="6.79309">
        <ele>1188</ele>
        <time>2012-05-03T04:55:25Z</time>
      </trkpt>
      <trkpt lat="43.77454" lon="6.79326">
        <ele>1186</ele>
        <time>2012-05-03T04:55:28Z</time>
      </trkpt>
      <trkpt lat="43.77313" lon="6.79425">
        <ele>1171</ele>
        <time>2012-05-03T04:55:49Z</time>
      </trkpt>
      <trkpt lat="43.77303" lon="6.79437">
        <ele>1169</ele>
        <time>2012-05-03T04:55:51Z</time>
      </trkpt>
      <trkpt lat="43.77275" lon="6.79505">
        <ele>1165</ele>
        <time>2012-05-03T04:55:59Z</time>
      </trkpt>
      <trkpt lat="43.77246" lon="6.7952">
        <ele>1163</ele>
        <time>2012-05-03T04:56:03Z</time>
      </trkpt>
      <trkpt lat="43.77231" lon="6.79536">
        <ele>1161</ele>
        <time>2012-05-03T04:56:05Z</time>
      </trkpt>
      <trkpt lat="43.77221" lon="6.79577">
        <ele>1159</ele>
        <time>2012-05-03T04:56:09Z</time>
      </trkpt>
      <trkpt lat="43.77198" lon="6.79727">
        <ele>1151</ele>
        <time>2012-05-03T04:56:24Z</time>
      </trkpt>
      <trkpt lat="43.77198" lon="6.79751">
        <ele>1151</ele>
        <time>2012-05-03T04:56:29Z</time>
      </trkpt>
      <trkpt lat="43.77206" lon="6.79776">
        <ele>1152</ele>
        <time>2012-05-03T04:56:34Z</time>
      </trkpt>
      <trkpt lat="43.77251" lon="6.79832">
        <ele>1156</ele>
        <time>2012-05-03T04:56:49Z</time>
      </trkpt>
      <trkpt lat="43.77282" lon="6.79894">
        <ele>1153</ele>
        <time>2012-05-03T04:56:56Z</time>
      </trkpt>
      <trkpt lat="43.77283" lon="6.79913">
        <ele>1152</ele>
        <time>2012-05-03T04:56:58Z</time>
      </trkpt>
      <trkpt lat="43.77268" lon="6.79962">
        <ele>1151</ele>
        <time>2012-05-03T04:57:03Z</time>
      </trkpt>
      <trkpt lat="43.7727" lon="6.80039">
        <ele>1146</ele>
        <time>2012-05-03T04:57:11Z</time>
      </trkpt>
      <trkpt lat="43.77285" lon="6.80131">
        <ele>1141</ele>
        <time>2012-05-03T04:57:20Z</time>
      </trkpt>
      <trkpt lat="43.77316" lon="6.80185">
        <ele>1140</ele>
        <time>2012-05-03T04:57:27Z</time>
      </trkpt>
      <trkpt lat="43.77323" lon="6.80204">
        <ele>1139</ele>
        <time>2012-05-03T04:57:29Z</time>
      </trkpt>
      <trkpt lat="43.77325" lon="6.80222">
        <ele>1139</ele>
        <time>2012-05-03T04:57:30Z</time>
      </trkpt>
      <trkpt lat="43.77316" lon="6.80292">
        <ele>1139</ele>
        <time>2012-05-03T04:57:37Z</time>
      </trkpt>
      <trkpt lat="43.77318" lon="6.80328">
        <ele>1139</ele>
        <time>2012-05-03T04:57:42Z</time>
      </trkpt>
      <trkpt lat="43.77345" lon="6.80444">
        <ele>1141</ele>
        <time>2012-05-03T04:57:57Z</time>
      </trkpt>
      <trkpt lat="43.77338" lon="6.80468">
        <ele>1136</ele>
        <time>2012-05-03T04:58:00Z</time>
      </trkpt>
      <trkpt lat="43.77322" lon="6.80487">
        <ele>1131</ele>
        <time>2012-05-03T04:58:03Z</time>
      </trkpt>
      <trkpt lat="43.77311" lon="6.80493">
        <ele>1128</ele>
        <time>2012-05-03T04:58:04Z</time>
      </trkpt>
      <trkpt lat="43.77277" lon="6.80492">
        <ele>1119</ele>
        <time>2012-05-03T04:58:09Z</time>
      </trkpt>
      <trkpt lat="43.77219" lon="6.80477">
        <ele>1105</ele>
        <time>2012-05-03T04:58:17Z</time>
      </trkpt>
      <trkpt lat="43.77186" lon="6.80486">
        <ele>1103</ele>
        <time>2012-05-03T04:58:21Z</time>
      </trkpt>
      <trkpt lat="43.77176" lon="6.80496">
        <ele>1102</ele>
        <time>2012-05-03T04:58:23Z</time>
      </trkpt>
      <trkpt lat="43.7717" lon="6.80532">
        <ele>1101</ele>
        <time>2012-05-03T04:58:26Z</time>
      </trkpt>
      <trkpt lat="43.7718" lon="6.80589">
        <ele>1099</ele>
        <time>2012-05-03T04:58:32Z</time>
      </trkpt>
      <trkpt lat="43.77205" lon="6.80652">
        <ele>1097</ele>
        <time>2012-05-03T04:58:39Z</time>
      </trkpt>
      <trkpt lat="43.77212" lon="6.80687">
        <ele>1096</ele>
        <time>2012-05-03T04:58:42Z</time>
      </trkpt>
      <trkpt lat="43.7721" lon="6.80735">
        <ele>1095</ele>
        <time>2012-05-03T04:58:47Z</time>
      </trkpt>
      <trkpt lat="43.77198" lon="6.80821">
        <ele>1093</ele>
        <time>2012-05-03T04:58:56Z</time>
      </trkpt>
      <trkpt lat="43.77202" lon="6.80847">
        <ele>1093</ele>
        <time>2012-05-03T04:58:59Z</time>
      </trkpt>
      <trkpt lat="43.77241" lon="6.80928">
        <ele>1095</ele>
        <time>2012-05-03T04:59:13Z</time>
      </trkpt>
      <trkpt lat="43.77282" lon="6.81027">
        <ele>1097</ele>
        <time>2012-05-03T04:59:28Z</time>
      </trkpt>
      <trkpt lat="43.77314" lon="6.81083">
        <ele>1097</ele>
        <time>2012-05-03T04:59:36Z</time>
      </trkpt>
      <trkpt lat="43.7732" lon="6.811">
        <ele>1097</ele>
        <time>2012-05-03T04:59:38Z</time>
      </trkpt>
      <trkpt lat="43.77321" lon="6.8112">
        <ele>1097</ele>
        <time>2012-05-03T04:59:40Z</time>
      </trkpt>
      <trkpt lat="43.77313" lon="6.81162">
        <ele>1098</ele>
        <time>2012-05-03T04:59:45Z</time>
      </trkpt>
      <trkpt lat="43.77307" lon="6.81176">
        <ele>1096</ele>
        <time>2012-05-03T04:59:47Z</time>
      </trkpt>
      <trkpt lat="43.77293" lon="6.8119">
        <ele>1094</ele>
        <time>2012-05-03T04:59:49Z</time>
      </trkpt>
      <trkpt lat="43.77266" lon="6.81203">
        <ele>1091</ele>
        <time>2012-05-03T04:59:53Z</time>
      </trkpt>
      <trkpt lat="43.7723" lon="6.81204">
        <ele>1087</ele>
        <time>2012-05-03T04:59:58Z</time>
      </trkpt>
      <trkpt lat="43.77201" lon="6.81215">
        <ele>1084</ele>
        <time>2012-05-03T05:00:02Z</time>
      </trkpt>
      <trkpt lat="43.77183" lon="6.81233">
        <ele>1082</ele>
        <time>2012-05-03T05:00:05Z</time>
      </trkpt>
      <trkpt lat="43.7715" lon="6.8129">
        <ele>1078</ele>
        <time>2012-05-03T05:00:12Z</time>
      </trkpt>
      <trkpt lat="43.7715" lon="6.8129">
        <ele>1078</ele>
        <time>2012-05-03T05:00:13Z</time>
      </trkpt>
      <trkpt lat="43.77117" lon="6.81359">
        <ele>1075</ele>
        <time>2012-05-03T05:00:21Z</time>
      </trkpt>
      <trkpt lat="43.77106" lon="6.81418">
        <ele>1073</ele>
        <time>2012-05-03T05:00:27Z</time>
      </trkpt>
      <trkpt lat="43.77078" lon="6.81487">
        <ele>1070</ele>
        <time>2012-05-03T05:00:34Z</time>
      </trkpt>
      <trkpt lat="43.77071" lon="6.81538">
        <ele>1069</ele>
        <time>2012-05-03T05:00:39Z</time>
      </trkpt>
      <trkpt lat="43.77069" lon="6.81648">
        <ele>1069</ele>
        <time>2012-05-03T05:00:50Z</time>
      </trkpt>
      <trkpt lat="43.77058" lon="6.81659">
        <ele>1069</ele>
        <time>2012-05-03T05:00:52Z</time>
      </trkpt>
      <trkpt lat="43.77051" lon="6.81682">
        <ele>1069</ele>
        <time>2012-05-03T05:00:54Z</time>
      </trkpt>
      <trkpt lat="43.77052" lon="6.81691">
        <ele>1069</ele>
        <time>2012-05-03T05:00:56Z</time>
      </trkpt>
      <trkpt lat="43.77071" lon="6.81724">
        <ele>1070</ele>
        <time>2012-05-03T05:01:03Z</time>
      </trkpt>
      <trkpt lat="43.77159" lon="6.81838">
        <ele>1075</ele>
        <time>2012-05-03T05:01:30Z</time>
      </trkpt>
      <trkpt lat="43.77204" lon="6.81859">
        <ele>1076</ele>
        <time>2012-05-03T05:01:39Z</time>
      </trkpt>
      <trkpt lat="43.77224" lon="6.81875">
        <ele>1076</ele>
        <time>2012-05-03T05:01:44Z</time>
      </trkpt>
      <trkpt lat="43.7728" lon="6.81936">
        <ele>1079</ele>
        <time>2012-05-03T05:01:58Z</time>
      </trkpt>
      <trkpt lat="43.77332" lon="6.82014">
        <ele>1079</ele>
        <time>2012-05-03T05:02:10Z</time>
      </trkpt>
      <trkpt lat="43.77341" lon="6.82042">
        <ele>1080</ele>
        <time>2012-05-03T05:02:14Z</time>
      </trkpt>
      <trkpt lat="43.77345" lon="6.82075">
        <ele>1081</ele>
        <time>2012-05-03T05:02:20Z</time>
      </trkpt>
      <trkpt lat="43.77354" lon="6.82452">
        <ele>1095</ele>
        <time>2012-05-03T05:03:29Z</time>
      </trkpt>
      <trkpt lat="43.77338" lon="6.82537">
        <ele>1094</ele>
        <time>2012-05-03T05:03:38Z</time>
      </trkpt>
      <trkpt lat="43.77363" lon="6.8262">
        <ele>1094</ele>
        <time>2012-05-03T05:03:47Z</time>
      </trkpt>
      <trkpt lat="43.7739" lon="6.82857">
        <ele>1101</ele>
        <time>2012-05-03T05:04:27Z</time>
      </trkpt>
      <trkpt lat="43.77398" lon="6.83032">
        <ele>1110</ele>
        <time>2012-05-03T05:05:05Z</time>
      </trkpt>
      <trkpt lat="43.77422" lon="6.83202">
        <ele>1113</ele>
        <time>2012-05-03T05:05:29Z</time>
      </trkpt>
      <trkpt lat="43.77433" lon="6.83308">
        <ele>1114</ele>
        <time>2012-05-03T05:05:42Z</time>
      </trkpt>
      <trkpt lat="43.77447" lon="6.83505">
        <ele>1116</ele>
        <time>2012-05-03T05:06:06Z</time>
      </trkpt>
      <trkpt lat="43.77445" lon="6.83567">
        <ele>1116</ele>
        <time>2012-05-03T05:06:12Z</time>
      </trkpt>
      <trkpt lat="43.7745" lon="6.83673">
        <ele>1116</ele>
        <time>2012-05-03T05:06:22Z</time>
      </trkpt>
      <trkpt lat="43.77444" lon="6.83701">
        <ele>1118</ele>
        <time>2012-05-03T05:06:31Z</time>
      </trkpt>
      <trkpt lat="43.77436" lon="6.8371">
        <ele>1120</ele>
        <time>2012-05-03T05:06:36Z</time>
      </trkpt>
      <trkpt lat="43.77425" lon="6.83717">
        <ele>1121</ele>
        <time>2012-05-03T05:06:42Z</time>
      </trkpt>
      <trkpt lat="43.77364" lon="6.8373">
        <ele>1130</ele>
        <time>2012-05-03T05:07:09Z</time>
      </trkpt>
      <trkpt lat="43.77352" lon="6.8374">
        <ele>1129</ele>
        <time>2012-05-03T05:07:11Z</time>
      </trkpt>
      <trkpt lat="43.77346" lon="6.83758">
        <ele>1129</ele>
        <time>2012-05-03T05:07:13Z</time>
      </trkpt>
      <trkpt lat="43.77347" lon="6.83778">
        <ele>1129</ele>
        <time>2012-05-03T05:07:15Z</time>
      </trkpt>
      <trkpt lat="43.7736" lon="6.83809">
        <ele>1128</ele>
        <time>2012-05-03T05:07:19Z</time>
      </trkpt>
      <trkpt lat="43.77379" lon="6.83839">
        <ele>1127</ele>
        <time>2012-05-03T05:07:22Z</time>
      </trkpt>
      <trkpt lat="43.77447" lon="6.83904">
        <ele>1126</ele>
        <time>2012-05-03T05:07:34Z</time>
      </trkpt>
      <trkpt lat="43.77486" lon="6.8398">
        <ele>1124</ele>
        <time>2012-05-03T05:07:43Z</time>
      </trkpt>
      <trkpt lat="43.77502" lon="6.84023">
        <ele>1124</ele>
        <time>2012-05-03T05:07:47Z</time>
      </trkpt>
      <trkpt lat="43.77508" lon="6.84072">
        <ele>1126</ele>
        <time>2012-05-03T05:07:58Z</time>
      </trkpt>
      <trkpt lat="43.7749" lon="6.84183">
        <ele>1132</ele>
        <time>2012-05-03T05:08:22Z</time>
      </trkpt>
      <trkpt lat="43.77489" lon="6.8421">
        <ele>1130</ele>
        <time>2012-05-03T05:08:25Z</time>
      </trkpt>
      <trkpt lat="43.77494" lon="6.84229">
        <ele>1129</ele>
        <time>2012-05-03T05:08:27Z</time>
      </trkpt>
      <trkpt lat="43.77518" lon="6.84248">
        <ele>1127</ele>
        <time>2012-05-03T05:08:30Z</time>
      </trkpt>
      <trkpt lat="43.77583" lon="6.8425">
        <ele>1123</ele>
        <time>2012-05-03T05:08:39Z</time>
      </trkpt>
      <trkpt lat="43.77594" lon="6.84256">
        <ele>1122</ele>
        <time>2012-05-03T05:08:41Z</time>
      </trkpt>
      <trkpt lat="43.77604" lon="6.84269">
        <ele>1122</ele>
        <time>2012-05-03T05:08:43Z</time>
      </trkpt>
      <trkpt lat="43.7762" lon="6.84305">
        <ele>1121</ele>
        <time>2012-05-03T05:08:47Z</time>
      </trkpt>
      <trkpt lat="43.77645" lon="6.84407">
        <ele>1120</ele>
        <time>2012-05-03T05:08:57Z</time>
      </trkpt>
      <trkpt lat="43.77658" lon="6.84446">
        <ele>1118</ele>
        <time>2012-05-03T05:09:01Z</time>
      </trkpt>
      <trkpt lat="43.77696" lon="6.84523">
        <ele>1114</ele>
        <time>2012-05-03T05:09:10Z</time>
      </trkpt>
      <trkpt lat="43.77738" lon="6.8483">
        <ele>1115</ele>
        <time>2012-05-03T05:09:43Z</time>
      </trkpt>
      <trkpt lat="43.77733" lon="6.84874">
        <ele>1117</ele>
        <time>2012-05-03T05:09:53Z</time>
      </trkpt>
      <trkpt lat="43.77708" lon="6.84978">
        <ele>1124</ele>
        <time>2012-05-03T05:10:19Z</time>
      </trkpt>
      <trkpt lat="43.7767" lon="6.85036">
        <ele>1126</ele>
        <time>2012-05-03T05:10:33Z</time>
      </trkpt>
      <trkpt lat="43.77647" lon="6.85105">
        <ele>1129</ele>
        <time>2012-05-03T05:10:46Z</time>
      </trkpt>
      <trkpt lat="43.77621" lon="6.8516">
        <ele>1125</ele>
        <time>2012-05-03T05:10:52Z</time>
      </trkpt>
      <trkpt lat="43.77607" lon="6.8525">
        <ele>1121</ele>
        <time>2012-05-03T05:11:01Z</time>
      </trkpt>
      <trkpt lat="43.77596" lon="6.85276">
        <ele>1121</ele>
        <time>2012-05-03T05:11:05Z</time>
      </trkpt>
      <trkpt lat="43.77572" lon="6.85305">
        <ele>1122</ele>
        <time>2012-05-03T05:11:11Z</time>
      </trkpt>
      <trkpt lat="43.77541" lon="6.85326">
        <ele>1122</ele>
        <time>2012-05-03T05:11:17Z</time>
      </trkpt>
      <trkpt lat="43.77498" lon="6.85379">
        <ele>1124</ele>
        <time>2012-05-03T05:11:28Z</time>
      </trkpt>
      <trkpt lat="43.7747" lon="6.85422">
        <ele>1118</ele>
        <time>2012-05-03T05:11:33Z</time>
      </trkpt>
      <trkpt lat="43.77446" lon="6.85478">
        <ele>1113</ele>
        <time>2012-05-03T05:11:40Z</time>
      </trkpt>
      <trkpt lat="43.77397" lon="6.85545">
        <ele>1105</ele>
        <time>2012-05-03T05:11:49Z</time>
      </trkpt>
      <trkpt lat="43.77384" lon="6.8555">
        <ele>1106</ele>
        <time>2012-05-03T05:11:55Z</time>
      </trkpt>
      <trkpt lat="43.77344" lon="6.85547">
        <ele>1112</ele>
        <time>2012-05-03T05:12:14Z</time>
      </trkpt>
      <trkpt lat="43.77272" lon="6.85523">
        <ele>1123</ele>
        <time>2012-05-03T05:12:49Z</time>
      </trkpt>
      <trkpt lat="43.77225" lon="6.85523">
        <ele>1123</ele>
        <time>2012-05-03T05:12:57Z</time>
      </trkpt>
      <trkpt lat="43.77041" lon="6.85574">
        <ele>1126</ele>
        <time>2012-05-03T05:13:28Z</time>
      </trkpt>
      <trkpt lat="43.76877" lon="6.8564">
        <ele>1110</ele>
        <time>2012-05-03T05:13:51Z</time>
      </trkpt>
      <trkpt lat="43.76758" lon="6.85674">
        <ele>1102</ele>
        <time>2012-05-03T05:14:07Z</time>
      </trkpt>
      <trkpt lat="43.76721" lon="6.85669">
        <ele>1105</ele>
        <time>2012-05-03T05:14:21Z</time>
      </trkpt>
      <trkpt lat="43.76569" lon="6.8559">
        <ele>1123</ele>
        <time>2012-05-03T05:15:24Z</time>
      </trkpt>
      <trkpt lat="43.76505" lon="6.85574">
        <ele>1134</ele>
        <time>2012-05-03T05:16:00Z</time>
      </trkpt>
      <trkpt lat="43.76466" lon="6.85578">
        <ele>1141</ele>
        <time>2012-05-03T05:16:21Z</time>
      </trkpt>
      <trkpt lat="43.76407" lon="6.85607">
        <ele>1143</ele>
        <time>2012-05-03T05:16:35Z</time>
      </trkpt>
      <trkpt lat="43.76373" lon="6.85632">
        <ele>1145</ele>
        <time>2012-05-03T05:16:44Z</time>
      </trkpt>
      <trkpt lat="43.76319" lon="6.85716">
        <ele>1132</ele>
        <time>2012-05-03T05:16:55Z</time>
      </trkpt>
      <trkpt lat="43.76276" lon="6.85798">
        <ele>1122</ele>
        <time>2012-05-03T05:17:05Z</time>
      </trkpt>
      <trkpt lat="43.76262" lon="6.85811">
        <ele>1124</ele>
        <time>2012-05-03T05:17:13Z</time>
      </trkpt>
      <trkpt lat="43.76232" lon="6.85824">
        <ele>1128</ele>
        <time>2012-05-03T05:17:27Z</time>
      </trkpt>
      <trkpt lat="43.76193" lon="6.8583">
        <ele>1134</ele>
        <time>2012-05-03T05:17:46Z</time>
      </trkpt>
      <trkpt lat="43.76174" lon="6.85841">
        <ele>1137</ele>
        <time>2012-05-03T05:17:55Z</time>
      </trkpt>
      <trkpt lat="43.76162" lon="6.85859">
        <ele>1134</ele>
        <time>2012-05-03T05:17:58Z</time>
      </trkpt>
      <trkpt lat="43.76121" lon="6.85967">
        <ele>1123</ele>
        <time>2012-05-03T05:18:09Z</time>
      </trkpt>
      <trkpt lat="43.76105" lon="6.85991">
        <ele>1127</ele>
        <time>2012-05-03T05:18:23Z</time>
      </trkpt>
      <trkpt lat="43.76081" lon="6.85991">
        <ele>1131</ele>
        <time>2012-05-03T05:18:37Z</time>
      </trkpt>
      <trkpt lat="43.76029" lon="6.85953">
        <ele>1143</ele>
        <time>2012-05-03T05:19:11Z</time>
      </trkpt>
      <trkpt lat="43.76005" lon="6.85953">
        <ele>1141</ele>
        <time>2012-05-03T05:19:15Z</time>
      </trkpt>
      <trkpt lat="43.75991" lon="6.8596">
        <ele>1140</ele>
        <time>2012-05-03T05:19:17Z</time>
      </trkpt>
      <trkpt lat="43.75978" lon="6.85972">
        <ele>1139</ele>
        <time>2012-05-03T05:19:19Z</time>
      </trkpt>
      <trkpt lat="43.75967" lon="6.85991">
        <ele>1138</ele>
        <time>2012-05-03T05:19:21Z</time>
      </trkpt>
      <trkpt lat="43.75956" lon="6.86036">
        <ele>1137</ele>
        <time>2012-05-03T05:19:26Z</time>
      </trkpt>
      <trkpt lat="43.75955" lon="6.86092">
        <ele>1130</ele>
        <time>2012-05-03T05:19:31Z</time>
      </trkpt>
      <trkpt lat="43.75944" lon="6.86136">
        <ele>1124</ele>
        <time>2012-05-03T05:19:36Z</time>
      </trkpt>
      <trkpt lat="43.75919" lon="6.86201">
        <ele>1115</ele>
        <time>2012-05-03T05:19:43Z</time>
      </trkpt>
      <trkpt lat="43.75894" lon="6.86306">
        <ele>1111</ele>
        <time>2012-05-03T05:19:53Z</time>
      </trkpt>
      <trkpt lat="43.75874" lon="6.86342">
        <ele>1110</ele>
        <time>2012-05-03T05:19:58Z</time>
      </trkpt>
      <trkpt lat="43.75818" lon="6.86412">
        <ele>1103</ele>
        <time>2012-05-03T05:20:08Z</time>
      </trkpt>
      <trkpt lat="43.7576" lon="6.86463">
        <ele>1098</ele>
        <time>2012-05-03T05:20:17Z</time>
      </trkpt>
      <trkpt lat="43.75745" lon="6.86483">
        <ele>1099</ele>
        <time>2012-05-03T05:20:23Z</time>
      </trkpt>
      <trkpt lat="43.75732" lon="6.86506">
        <ele>1100</ele>
        <time>2012-05-03T05:20:29Z</time>
      </trkpt>
      <trkpt lat="43.75708" lon="6.86567">
        <ele>1104</ele>
        <time>2012-05-03T05:20:44Z</time>
      </trkpt>
      <trkpt lat="43.75631" lon="6.86685">
        <ele>1105</ele>
        <time>2012-05-03T05:21:01Z</time>
      </trkpt>
      <trkpt lat="43.75555" lon="6.86744">
        <ele>1091</ele>
        <time>2012-05-03T05:21:13Z</time>
      </trkpt>
      <trkpt lat="43.75543" lon="6.86759">
        <ele>1089</ele>
        <time>2012-05-03T05:21:15Z</time>
      </trkpt>
      <trkpt lat="43.75522" lon="6.86807">
        <ele>1093</ele>
        <time>2012-05-03T05:21:32Z</time>
      </trkpt>
      <trkpt lat="43.75508" lon="6.86851">
        <ele>1097</ele>
        <time>2012-05-03T05:21:46Z</time>
      </trkpt>
      <trkpt lat="43.75491" lon="6.86885">
        <ele>1101</ele>
        <time>2012-05-03T05:21:58Z</time>
      </trkpt>
      <trkpt lat="43.75439" lon="6.8695">
        <ele>1094</ele>
        <time>2012-05-03T05:22:07Z</time>
      </trkpt>
      <trkpt lat="43.75411" lon="6.86979">
        <ele>1092</ele>
        <time>2012-05-03T05:22:12Z</time>
      </trkpt>
      <trkpt lat="43.75379" lon="6.86999">
        <ele>1085</ele>
        <time>2012-05-03T05:22:17Z</time>
      </trkpt>
      <trkpt lat="43.75365" lon="6.87003">
        <ele>1082</ele>
        <time>2012-05-03T05:22:19Z</time>
      </trkpt>
      <trkpt lat="43.75312" lon="6.87001">
        <ele>1072</ele>
        <time>2012-05-03T05:22:26Z</time>
      </trkpt>
      <trkpt lat="43.75203" lon="6.87038">
        <ele>1068</ele>
        <time>2012-05-03T05:22:41Z</time>
      </trkpt>
      <trkpt lat="43.75193" lon="6.87051">
        <ele>1068</ele>
        <time>2012-05-03T05:22:45Z</time>
      </trkpt>
      <trkpt lat="43.75154" lon="6.87135">
        <ele>1074</ele>
        <time>2012-05-03T05:23:07Z</time>
      </trkpt>
      <trkpt lat="43.75108" lon="6.8721">
        <ele>1079</ele>
        <time>2012-05-03T05:23:28Z</time>
      </trkpt>
      <trkpt lat="43.75086" lon="6.87255">
        <ele>1077</ele>
        <time>2012-05-03T05:23:33Z</time>
      </trkpt>
      <trkpt lat="43.75076" lon="6.8726">
        <ele>1077</ele>
        <time>2012-05-03T05:23:35Z</time>
      </trkpt>
      <trkpt lat="43.75065" lon="6.87254">
        <ele>1076</ele>
        <time>2012-05-03T05:23:36Z</time>
      </trkpt>
      <trkpt lat="43.75058" lon="6.87242">
        <ele>1076</ele>
        <time>2012-05-03T05:23:38Z</time>
      </trkpt>
      <trkpt lat="43.75058" lon="6.87221">
        <ele>1075</ele>
        <time>2012-05-03T05:23:40Z</time>
      </trkpt>
      <trkpt lat="43.75091" lon="6.87103">
        <ele>1072</ele>
        <time>2012-05-03T05:23:52Z</time>
      </trkpt>
      <trkpt lat="43.75116" lon="6.87">
        <ele>1070</ele>
        <time>2012-05-03T05:24:03Z</time>
      </trkpt>
      <trkpt lat="43.75117" lon="6.86984">
        <ele>1068</ele>
        <time>2012-05-03T05:24:04Z</time>
      </trkpt>
      <trkpt lat="43.75117" lon="6.86965">
        <ele>1066</ele>
        <time>2012-05-03T05:24:06Z</time>
      </trkpt>
      <trkpt lat="43.75112" lon="6.86945">
        <ele>1065</ele>
        <time>2012-05-03T05:24:08Z</time>
      </trkpt>
      <trkpt lat="43.75102" lon="6.8693">
        <ele>1063</ele>
        <time>2012-05-03T05:24:10Z</time>
      </trkpt>
      <trkpt lat="43.75087" lon="6.8692">
        <ele>1061</ele>
        <time>2012-05-03T05:24:12Z</time>
      </trkpt>
      <trkpt lat="43.75061" lon="6.86922">
        <ele>1058</ele>
        <time>2012-05-03T05:24:16Z</time>
      </trkpt>
      <trkpt lat="43.75027" lon="6.86942">
        <ele>1054</ele>
        <time>2012-05-03T05:24:21Z</time>
      </trkpt>
      <trkpt lat="43.7499" lon="6.86979">
        <ele>1056</ele>
        <time>2012-05-03T05:24:33Z</time>
      </trkpt>
      <trkpt lat="43.74938" lon="6.87041">
        <ele>1061</ele>
        <time>2012-05-03T05:24:53Z</time>
      </trkpt>
      <trkpt lat="43.74913" lon="6.87058">
        <ele>1058</ele>
        <time>2012-05-03T05:24:56Z</time>
      </trkpt>
      <trkpt lat="43.74822" lon="6.87054">
        <ele>1052</ele>
        <time>2012-05-03T05:25:09Z</time>
      </trkpt>
      <trkpt lat="43.74751" lon="6.87074">
        <ele>1053</ele>
        <time>2012-05-03T05:25:21Z</time>
      </trkpt>
      <trkpt lat="43.74706" lon="6.87065">
        <ele>1054</ele>
        <time>2012-05-03T05:25:29Z</time>
      </trkpt>
      <trkpt lat="43.74648" lon="6.87074">
        <ele>1043</ele>
        <time>2012-05-03T05:25:37Z</time>
      </trkpt>
      <trkpt lat="43.74628" lon="6.87068">
        <ele>1039</ele>
        <time>2012-05-03T05:25:40Z</time>
      </trkpt>
      <trkpt lat="43.74569" lon="6.87022">
        <ele>1027</ele>
        <time>2012-05-03T05:25:49Z</time>
      </trkpt>
      <trkpt lat="43.74553" lon="6.87017">
        <ele>1025</ele>
        <time>2012-05-03T05:25:51Z</time>
      </trkpt>
      <trkpt lat="43.74532" lon="6.87019">
        <ele>1022</ele>
        <time>2012-05-03T05:25:54Z</time>
      </trkpt>
      <trkpt lat="43.7447" lon="6.87046">
        <ele>1015</ele>
        <time>2012-05-03T05:26:02Z</time>
      </trkpt>
      <trkpt lat="43.74457" lon="6.87058">
        <ele>1015</ele>
        <time>2012-05-03T05:26:05Z</time>
      </trkpt>
      <trkpt lat="43.74431" lon="6.87096">
        <ele>1016</ele>
        <time>2012-05-03T05:26:13Z</time>
      </trkpt>
      <trkpt lat="43.74322" lon="6.87157">
        <ele>1019</ele>
        <time>2012-05-03T05:26:35Z</time>
      </trkpt>
      <trkpt lat="43.74252" lon="6.87166">
        <ele>1005</ele>
        <time>2012-05-03T05:26:44Z</time>
      </trkpt>
      <trkpt lat="43.7423" lon="6.87174">
        <ele>1001</ele>
        <time>2012-05-03T05:26:47Z</time>
      </trkpt>
      <trkpt lat="43.74211" lon="6.87201">
        <ele>1002</ele>
        <time>2012-05-03T05:26:55Z</time>
      </trkpt>
      <trkpt lat="43.74157" lon="6.87305">
        <ele>1008</ele>
        <time>2012-05-03T05:27:20Z</time>
      </trkpt>
      <trkpt lat="43.74098" lon="6.8739">
        <ele>1018</ele>
        <time>2012-05-03T05:27:56Z</time>
      </trkpt>
      <trkpt lat="43.74073" lon="6.87447">
        <ele>1024</ele>
        <time>2012-05-03T05:28:16Z</time>
      </trkpt>
      <trkpt lat="43.74049" lon="6.87458">
        <ele>1019</ele>
        <time>2012-05-03T05:28:20Z</time>
      </trkpt>
      <trkpt lat="43.74001" lon="6.87456">
        <ele>1010</ele>
        <time>2012-05-03T05:28:26Z</time>
      </trkpt>
      <trkpt lat="43.73972" lon="6.8746">
        <ele>1005</ele>
        <time>2012-05-03T05:28:30Z</time>
      </trkpt>
      <trkpt lat="43.73937" lon="6.87479">
        <ele>1012</ele>
        <time>2012-05-03T05:28:53Z</time>
      </trkpt>
      <trkpt lat="43.7391" lon="6.87501">
        <ele>1018</ele>
        <time>2012-05-03T05:29:13Z</time>
      </trkpt>
      <trkpt lat="43.73843" lon="6.87583">
        <ele>1037</ele>
        <time>2012-05-03T05:30:08Z</time>
      </trkpt>
      <trkpt lat="43.73807" lon="6.87609">
        <ele>1034</ele>
        <time>2012-05-03T05:30:13Z</time>
      </trkpt>
      <trkpt lat="43.73765" lon="6.87615">
        <ele>1032</ele>
        <time>2012-05-03T05:30:19Z</time>
      </trkpt>
      <trkpt lat="43.73583" lon="6.87579">
        <ele>1023</ele>
        <time>2012-05-03T05:30:44Z</time>
      </trkpt>
      <trkpt lat="43.7354" lon="6.87577">
        <ele>1028</ele>
        <time>2012-05-03T05:31:03Z</time>
      </trkpt>
      <trkpt lat="43.73464" lon="6.87592">
        <ele>1039</ele>
        <time>2012-05-03T05:31:38Z</time>
      </trkpt>
      <trkpt lat="43.73427" lon="6.87593">
        <ele>1041</ele>
        <time>2012-05-03T05:31:48Z</time>
      </trkpt>
      <trkpt lat="43.73318" lon="6.87567">
        <ele>1047</ele>
        <time>2012-05-03T05:32:17Z</time>
      </trkpt>
      <trkpt lat="43.73264" lon="6.87546">
        <ele>1049</ele>
        <time>2012-05-03T05:32:30Z</time>
      </trkpt>
      <trkpt lat="43.73227" lon="6.87524">
        <ele>1051</ele>
        <time>2012-05-03T05:32:39Z</time>
      </trkpt>
      <trkpt lat="43.73034" lon="6.87368">
        <ele>1061</ele>
        <time>2012-05-03T05:33:33Z</time>
      </trkpt>
      <trkpt lat="43.72938" lon="6.87304">
        <ele>1078</ele>
        <time>2012-05-03T05:34:28Z</time>
      </trkpt>
      <trkpt lat="43.72866" lon="6.87248">
        <ele>1082</ele>
        <time>2012-05-03T05:34:50Z</time>
      </trkpt>
      <trkpt lat="43.72798" lon="6.87174">
        <ele>1087</ele>
        <time>2012-05-03T05:35:12Z</time>
      </trkpt>
      <trkpt lat="43.7276" lon="6.8712">
        <ele>1080</ele>
        <time>2012-05-03T05:35:20Z</time>
      </trkpt>
      <trkpt lat="43.72706" lon="6.87024">
        <ele>1071</ele>
        <time>2012-05-03T05:35:31Z</time>
      </trkpt>
      <trkpt lat="43.7267" lon="6.86923">
        <ele>1049</ele>
        <time>2012-05-03T05:35:42Z</time>
      </trkpt>
      <trkpt lat="43.72661" lon="6.8691">
        <ele>1046</ele>
        <time>2012-05-03T05:35:44Z</time>
      </trkpt>
      <trkpt lat="43.72635" lon="6.86891">
        <ele>1046</ele>
        <time>2012-05-03T05:35:49Z</time>
      </trkpt>
      <trkpt lat="43.72619" lon="6.86886">
        <ele>1046</ele>
        <time>2012-05-03T05:35:52Z</time>
      </trkpt>
      <trkpt lat="43.72535" lon="6.86902">
        <ele>1048</ele>
        <time>2012-05-03T05:36:06Z</time>
      </trkpt>
      <trkpt lat="43.72423" lon="6.86902">
        <ele>1050</ele>
        <time>2012-05-03T05:36:26Z</time>
      </trkpt>
      <trkpt lat="43.72339" lon="6.8694">
        <ele>1074</ele>
        <time>2012-05-03T05:37:37Z</time>
      </trkpt>
      <trkpt lat="43.72298" lon="6.86949">
        <ele>1086</ele>
        <time>2012-05-03T05:38:10Z</time>
      </trkpt>
      <trkpt lat="43.72282" lon="6.86943">
        <ele>1082</ele>
        <time>2012-05-03T05:38:12Z</time>
      </trkpt>
      <trkpt lat="43.72275" lon="6.8693">
        <ele>1079</ele>
        <time>2012-05-03T05:38:14Z</time>
      </trkpt>
      <trkpt lat="43.72283" lon="6.8685">
        <ele>1065</ele>
        <time>2012-05-03T05:38:21Z</time>
      </trkpt>
      <trkpt lat="43.72279" lon="6.86738">
        <ele>1047</ele>
        <time>2012-05-03T05:38:32Z</time>
      </trkpt>
      <trkpt lat="43.72269" lon="6.86691">
        <ele>1042</ele>
        <time>2012-05-03T05:38:37Z</time>
      </trkpt>
      <trkpt lat="43.72259" lon="6.86674">
        <ele>1039</ele>
        <time>2012-05-03T05:38:39Z</time>
      </trkpt>
      <trkpt lat="43.72241" lon="6.86658">
        <ele>1036</ele>
        <time>2012-05-03T05:38:42Z</time>
      </trkpt>
      <trkpt lat="43.72142" lon="6.86607">
        <ele>1022</ele>
        <time>2012-05-03T05:38:56Z</time>
      </trkpt>
      <trkpt lat="43.72076" lon="6.86594">
        <ele>1019</ele>
        <time>2012-05-03T05:39:05Z</time>
      </trkpt>
      <trkpt lat="43.7201" lon="6.86594">
        <ele>1017</ele>
        <time>2012-05-03T05:39:14Z</time>
      </trkpt>
      <trkpt lat="43.7198" lon="6.86598">
        <ele>1022</ele>
        <time>2012-05-03T05:39:30Z</time>
      </trkpt>
      <trkpt lat="43.71884" lon="6.86625">
        <ele>1039</ele>
        <time>2012-05-03T05:40:24Z</time>
      </trkpt>
      <trkpt lat="43.71693" lon="6.86574">
        <ele>1031</ele>
        <time>2012-05-03T05:40:50Z</time>
      </trkpt>
      <trkpt lat="43.71608" lon="6.8654">
        <ele>1033</ele>
        <time>2012-05-03T05:41:07Z</time>
      </trkpt>
      <trkpt lat="43.71478" lon="6.86461">
        <ele>1037</ele>
        <time>2012-05-03T05:41:35Z</time>
      </trkpt>
      <trkpt lat="43.71457" lon="6.86443">
        <ele>1038</ele>
        <time>2012-05-03T05:41:41Z</time>
      </trkpt>
      <trkpt lat="43.71416" lon="6.86393">
        <ele>1041</ele>
        <time>2012-05-03T05:41:55Z</time>
      </trkpt>
      <trkpt lat="43.714" lon="6.86386">
        <ele>1042</ele>
        <time>2012-05-03T05:42:00Z</time>
      </trkpt>
      <trkpt lat="43.7134" lon="6.86387">
        <ele>1047</ele>
        <time>2012-05-03T05:42:20Z</time>
      </trkpt>
      <trkpt lat="43.71309" lon="6.86398">
        <ele>1050</ele>
        <time>2012-05-03T05:42:31Z</time>
      </trkpt>
      <trkpt lat="43.711" lon="6.86574">
        <ele>1026</ele>
        <time>2012-05-03T05:43:04Z</time>
      </trkpt>
      <trkpt lat="43.71049" lon="6.86587">
        <ele>1017</ele>
        <time>2012-05-03T05:43:11Z</time>
      </trkpt>
      <trkpt lat="43.70973" lon="6.86581">
        <ele>1004</ele>
        <time>2012-05-03T05:43:21Z</time>
      </trkpt>
      <trkpt lat="43.70959" lon="6.86576">
        <ele>1002</ele>
        <time>2012-05-03T05:43:23Z</time>
      </trkpt>
      <trkpt lat="43.70933" lon="6.86553">
        <ele>999</ele>
        <time>2012-05-03T05:43:27Z</time>
      </trkpt>
      <trkpt lat="43.70924" lon="6.86538">
        <ele>998</ele>
        <time>2012-05-03T05:43:29Z</time>
      </trkpt>
      <trkpt lat="43.70916" lon="6.86511">
        <ele>996</ele>
        <time>2012-05-03T05:43:32Z</time>
      </trkpt>
      <trkpt lat="43.70896" lon="6.86289">
        <ele>981</ele>
        <time>2012-05-03T05:43:53Z</time>
      </trkpt>
      <trkpt lat="43.70895" lon="6.86207">
        <ele>974</ele>
        <time>2012-05-03T05:44:01Z</time>
      </trkpt>
      <trkpt lat="43.70901" lon="6.86126">
        <ele>968</ele>
        <time>2012-05-03T05:44:09Z</time>
      </trkpt>
      <trkpt lat="43.70896" lon="6.85944">
        <ele>948</ele>
        <time>2012-05-03T05:44:27Z</time>
      </trkpt>
      <trkpt lat="43.70886" lon="6.85873">
        <ele>932</ele>
        <time>2012-05-03T05:44:34Z</time>
      </trkpt>
      <trkpt lat="43.70869" lon="6.85818">
        <ele>920</ele>
        <time>2012-05-03T05:44:39Z</time>
      </trkpt>
      <trkpt lat="43.70874" lon="6.85714">
        <ele>922</ele>
        <time>2012-05-03T05:44:55Z</time>
      </trkpt>
      <trkpt lat="43.70901" lon="6.85581">
        <ele>925</ele>
        <time>2012-05-03T05:45:15Z</time>
      </trkpt>
      <trkpt lat="43.70947" lon="6.85448">
        <ele>947</ele>
        <time>2012-05-03T05:46:22Z</time>
      </trkpt>
      <trkpt lat="43.70957" lon="6.85392">
        <ele>950</ele>
        <time>2012-05-03T05:46:37Z</time>
      </trkpt>
      <trkpt lat="43.70956" lon="6.85364">
        <ele>952</ele>
        <time>2012-05-03T05:46:44Z</time>
      </trkpt>
      <trkpt lat="43.70945" lon="6.85315">
        <ele>956</ele>
        <time>2012-05-03T05:46:57Z</time>
      </trkpt>
      <trkpt lat="43.70897" lon="6.85181">
        <ele>937</ele>
        <time>2012-05-03T05:47:11Z</time>
      </trkpt>
      <trkpt lat="43.70893" lon="6.85183">
        <ele>937</ele>
        <time>2012-05-03T05:47:12Z</time>
      </trkpt>
      <trkpt lat="43.70892" lon="6.85191">
        <ele>937</ele>
        <time>2012-05-03T05:47:14Z</time>
      </trkpt>
      <trkpt lat="43.70915" lon="6.8527">
        <ele>941</ele>
        <time>2012-05-03T05:47:32Z</time>
      </trkpt>
      <trkpt lat="43.70926" lon="6.8534">
        <ele>945</ele>
        <time>2012-05-03T05:47:47Z</time>
      </trkpt>
      <trkpt lat="43.70922" lon="6.8539">
        <ele>934</ele>
        <time>2012-05-03T05:47:52Z</time>
      </trkpt>
      <trkpt lat="43.70903" lon="6.85442">
        <ele>921</ele>
        <time>2012-05-03T05:47:57Z</time>
      </trkpt>
      <trkpt lat="43.70843" lon="6.85547">
        <ele>892</ele>
        <time>2012-05-03T05:48:10Z</time>
      </trkpt>
      <trkpt lat="43.70771" lon="6.85758">
        <ele>869</ele>
        <time>2012-05-03T05:48:33Z</time>
      </trkpt>
      <trkpt lat="43.70759" lon="6.8581">
        <ele>871</ele>
        <time>2012-05-03T05:48:45Z</time>
      </trkpt>
      <trkpt lat="43.70739" lon="6.85937">
        <ele>879</ele>
        <time>2012-05-03T05:49:15Z</time>
      </trkpt>
      <trkpt lat="43.70697" lon="6.86071">
        <ele>893</ele>
        <time>2012-05-03T05:50:02Z</time>
      </trkpt>
      <trkpt lat="43.70683" lon="6.86088">
        <ele>892</ele>
        <time>2012-05-03T05:50:05Z</time>
      </trkpt>
      <trkpt lat="43.70665" lon="6.86091">
        <ele>891</ele>
        <time>2012-05-03T05:50:07Z</time>
      </trkpt>
      <trkpt lat="43.70655" lon="6.86078">
        <ele>891</ele>
        <time>2012-05-03T05:50:09Z</time>
      </trkpt>
      <trkpt lat="43.70645" lon="6.86042">
        <ele>890</ele>
        <time>2012-05-03T05:50:13Z</time>
      </trkpt>
      <trkpt lat="43.70632" lon="6.85916">
        <ele>888</ele>
        <time>2012-05-03T05:50:25Z</time>
      </trkpt>
      <trkpt lat="43.706" lon="6.85768">
        <ele>882</ele>
        <time>2012-05-03T05:50:40Z</time>
      </trkpt>
      <trkpt lat="43.70592" lon="6.85684">
        <ele>872</ele>
        <time>2012-05-03T05:50:48Z</time>
      </trkpt>
      <trkpt lat="43.7059" lon="6.85571">
        <ele>860</ele>
        <time>2012-05-03T05:50:59Z</time>
      </trkpt>
      <trkpt lat="43.70564" lon="6.85418">
        <ele>839</ele>
        <time>2012-05-03T05:51:14Z</time>
      </trkpt>
      <trkpt lat="43.7054" lon="6.85355">
        <ele>833</ele>
        <time>2012-05-03T05:51:21Z</time>
      </trkpt>
      <trkpt lat="43.70514" lon="6.85325">
        <ele>830</ele>
        <time>2012-05-03T05:51:26Z</time>
      </trkpt>
      <trkpt lat="43.70448" lon="6.85312">
        <ele>823</ele>
        <time>2012-05-03T05:51:35Z</time>
      </trkpt>
      <trkpt lat="43.70414" lon="6.85317">
        <ele>821</ele>
        <time>2012-05-03T05:51:39Z</time>
      </trkpt>
      <trkpt lat="43.70134" lon="6.85443">
        <ele>805</ele>
        <time>2012-05-03T05:52:18Z</time>
      </trkpt>
      <trkpt lat="43.70061" lon="6.85457">
        <ele>795</ele>
        <time>2012-05-03T05:52:28Z</time>
      </trkpt>
      <trkpt lat="43.70006" lon="6.85487">
        <ele>788</ele>
        <time>2012-05-03T05:52:36Z</time>
      </trkpt>
      <trkpt lat="43.69961" lon="6.85529">
        <ele>788</ele>
        <time>2012-05-03T05:52:45Z</time>
      </trkpt>
      <trkpt lat="43.69922" lon="6.8558">
        <ele>789</ele>
        <time>2012-05-03T05:52:53Z</time>
      </trkpt>
      <trkpt lat="43.69918" lon="6.8558">
        <ele>788</ele>
        <time>2012-05-03T05:52:54Z</time>
      </trkpt>
      <trkpt lat="43.69913" lon="6.85577">
        <ele>788</ele>
        <time>2012-05-03T05:52:54Z</time>
      </trkpt>
      <trkpt lat="43.69915" lon="6.85566">
        <ele>787</ele>
        <time>2012-05-03T05:52:55Z</time>
      </trkpt>
      <trkpt lat="43.70049" lon="6.85347">
        <ele>771</ele>
        <time>2012-05-03T05:53:23Z</time>
      </trkpt>
      <trkpt lat="43.7017" lon="6.85189">
        <ele>764</ele>
        <time>2012-05-03T05:53:45Z</time>
      </trkpt>
      <trkpt lat="43.70262" lon="6.85048">
        <ele>757</ele>
        <time>2012-05-03T05:54:04Z</time>
      </trkpt>
      <trkpt lat="43.7031" lon="6.84993">
        <ele>751</ele>
        <time>2012-05-03T05:54:12Z</time>
      </trkpt>
      <trkpt lat="43.70318" lon="6.84967">
        <ele>750</ele>
        <time>2012-05-03T05:54:15Z</time>
      </trkpt>
      <trkpt lat="43.70317" lon="6.84847">
        <ele>743</ele>
        <time>2012-05-03T05:54:26Z</time>
      </trkpt>
      <trkpt lat="43.70276" lon="6.8484">
        <ele>739</ele>
        <time>2012-05-03T05:54:32Z</time>
      </trkpt>
      <trkpt lat="43.70222" lon="6.84816">
        <ele>735</ele>
        <time>2012-05-03T05:54:39Z</time>
      </trkpt>
      <trkpt lat="43.70203" lon="6.84813">
        <ele>733</ele>
        <time>2012-05-03T05:54:42Z</time>
      </trkpt>
      <trkpt lat="43.70188" lon="6.84819">
        <ele>731</ele>
        <time>2012-05-03T05:54:44Z</time>
      </trkpt>
      <trkpt lat="43.7017" lon="6.84834">
        <ele>729</ele>
        <time>2012-05-03T05:54:47Z</time>
      </trkpt>
      <trkpt lat="43.70127" lon="6.84882">
        <ele>724</ele>
        <time>2012-05-03T05:54:54Z</time>
      </trkpt>
      <trkpt lat="43.70093" lon="6.84893">
        <ele>721</ele>
        <time>2012-05-03T05:54:59Z</time>
      </trkpt>
      <trkpt lat="43.6995" lon="6.84844">
        <ele>713</ele>
        <time>2012-05-03T05:55:19Z</time>
      </trkpt>
      <trkpt lat="43.6995" lon="6.84825">
        <ele>712</ele>
        <time>2012-05-03T05:55:20Z</time>
      </trkpt>
      <trkpt lat="43.69935" lon="6.84792">
        <ele>710</ele>
        <time>2012-05-03T05:55:24Z</time>
      </trkpt>
      <trkpt lat="43.69901" lon="6.8476">
        <ele>708</ele>
        <time>2012-05-03T05:55:30Z</time>
      </trkpt>
      <trkpt lat="43.69882" lon="6.84748">
        <ele>707</ele>
        <time>2012-05-03T05:55:32Z</time>
      </trkpt>
      <trkpt lat="43.69854" lon="6.84697">
        <ele>704</ele>
        <time>2012-05-03T05:55:39Z</time>
      </trkpt>
      <trkpt lat="43.698" lon="6.84567">
        <ele>699</ele>
        <time>2012-05-03T05:55:53Z</time>
      </trkpt>
      <trkpt lat="43.6977" lon="6.84539">
        <ele>698</ele>
        <time>2012-05-03T05:55:58Z</time>
      </trkpt>
      <trkpt lat="43.69732" lon="6.84473">
        <ele>697</ele>
        <time>2012-05-03T05:56:06Z</time>
      </trkpt>
      <trkpt lat="43.69679" lon="6.84413">
        <ele>696</ele>
        <time>2012-05-03T05:56:15Z</time>
      </trkpt>
      <trkpt lat="43.69658" lon="6.84383">
        <ele>696</ele>
        <time>2012-05-03T05:56:19Z</time>
      </trkpt>
      <trkpt lat="43.6964" lon="6.84342">
        <ele>695</ele>
        <time>2012-05-03T05:56:24Z</time>
      </trkpt>
      <trkpt lat="43.69681" lon="6.84351">
        <ele>694</ele>
        <time>2012-05-03T05:56:29Z</time>
      </trkpt>
      <trkpt lat="43.69681" lon="6.84351">
        <ele>694</ele>
        <time>2012-05-03T05:56:30Z</time>
      </trkpt>
      <trkpt lat="43.6964" lon="6.84342">
        <ele>691</ele>
        <time>2012-05-03T05:56:36Z</time>
      </trkpt>
      <trkpt lat="43.69627" lon="6.84303">
        <ele>689</ele>
        <time>2012-05-03T05:56:40Z</time>
      </trkpt>
      <trkpt lat="43.69578" lon="6.84275">
        <ele>687</ele>
        <time>2012-05-03T05:56:47Z</time>
      </trkpt>
      <trkpt lat="43.69561" lon="6.8426">
        <ele>685</ele>
        <time>2012-05-03T05:56:50Z</time>
      </trkpt>
      <trkpt lat="43.69526" lon="6.84226">
        <ele>683</ele>
        <time>2012-05-03T05:56:56Z</time>
      </trkpt>
      <trkpt lat="43.69481" lon="6.8417">
        <ele>680</ele>
        <time>2012-05-03T05:57:04Z</time>
      </trkpt>
      <trkpt lat="43.69463" lon="6.84158">
        <ele>679</ele>
        <time>2012-05-03T05:57:06Z</time>
      </trkpt>
      <trkpt lat="43.69399" lon="6.84151">
        <ele>679</ele>
        <time>2012-05-03T05:57:15Z</time>
      </trkpt>
      <trkpt lat="43.69353" lon="6.84137">
        <ele>679</ele>
        <time>2012-05-03T05:57:21Z</time>
      </trkpt>
      <trkpt lat="43.69328" lon="6.84121">
        <ele>678</ele>
        <time>2012-05-03T05:57:25Z</time>
      </trkpt>
      <trkpt lat="43.69316" lon="6.84101">
        <ele>678</ele>
        <time>2012-05-03T05:57:27Z</time>
      </trkpt>
      <trkpt lat="43.69286" lon="6.83941">
        <ele>678</ele>
        <time>2012-05-03T05:57:43Z</time>
      </trkpt>
      <trkpt lat="43.69217" lon="6.83766">
        <ele>674</ele>
        <time>2012-05-03T05:58:03Z</time>
      </trkpt>
      <trkpt lat="43.69189" lon="6.83718">
        <ele>673</ele>
        <time>2012-05-03T05:58:09Z</time>
      </trkpt>
      <trkpt lat="43.69084" lon="6.83587">
        <ele>672</ele>
        <time>2012-05-03T05:58:28Z</time>
      </trkpt>
      <trkpt lat="43.69048" lon="6.8351">
        <ele>673</ele>
        <time>2012-05-03T05:58:40Z</time>
      </trkpt>
      <trkpt lat="43.69037" lon="6.83474">
        <ele>674</ele>
        <time>2012-05-03T05:58:45Z</time>
      </trkpt>
      <trkpt lat="43.6903" lon="6.83407">
        <ele>675</ele>
        <time>2012-05-03T05:58:55Z</time>
      </trkpt>
      <trkpt lat="43.69018" lon="6.83365">
        <ele>676</ele>
        <time>2012-05-03T05:59:02Z</time>
      </trkpt>
      <trkpt lat="43.68992" lon="6.83298">
        <ele>678</ele>
        <time>2012-05-03T05:59:13Z</time>
      </trkpt>
      <trkpt lat="43.68982" lon="6.83206">
        <ele>676</ele>
        <time>2012-05-03T05:59:22Z</time>
      </trkpt>
      <trkpt lat="43.68956" lon="6.83085">
        <ele>674</ele>
        <time>2012-05-03T05:59:34Z</time>
      </trkpt>
      <trkpt lat="43.68945" lon="6.83047">
        <ele>672</ele>
        <time>2012-05-03T05:59:38Z</time>
      </trkpt>
      <trkpt lat="43.68932" lon="6.8302">
        <ele>671</ele>
        <time>2012-05-03T05:59:41Z</time>
      </trkpt>
      <trkpt lat="43.68894" lon="6.82982">
        <ele>670</ele>
        <time>2012-05-03T05:59:47Z</time>
      </trkpt>
      <trkpt lat="43.68869" lon="6.82969">
        <ele>672</ele>
        <time>2012-05-03T05:59:56Z</time>
      </trkpt>
      <trkpt lat="43.68783" lon="6.82955">
        <ele>679</ele>
        <time>2012-05-03T06:00:24Z</time>
      </trkpt>
      <trkpt lat="43.68765" lon="6.82947">
        <ele>680</ele>
        <time>2012-05-03T06:00:31Z</time>
      </trkpt>
      <trkpt lat="43.68751" lon="6.82933">
        <ele>682</ele>
        <time>2012-05-03T06:00:38Z</time>
      </trkpt>
      <trkpt lat="43.68732" lon="6.82898">
        <ele>685</ele>
        <time>2012-05-03T06:00:49Z</time>
      </trkpt>
      <trkpt lat="43.68725" lon="6.82855">
        <ele>689</ele>
        <time>2012-05-03T06:01:01Z</time>
      </trkpt>
      <trkpt lat="43.68729" lon="6.82833">
        <ele>687</ele>
        <time>2012-05-03T06:01:04Z</time>
      </trkpt>
      <trkpt lat="43.68752" lon="6.82777">
        <ele>683</ele>
        <time>2012-05-03T06:01:10Z</time>
      </trkpt>
      <trkpt lat="43.68783" lon="6.82672">
        <ele>676</ele>
        <time>2012-05-03T06:01:21Z</time>
      </trkpt>
      <trkpt lat="43.68787" lon="6.8264">
        <ele>674</ele>
        <time>2012-05-03T06:01:24Z</time>
      </trkpt>
      <trkpt lat="43.68785" lon="6.82596">
        <ele>673</ele>
        <time>2012-05-03T06:01:28Z</time>
      </trkpt>
      <trkpt lat="43.68765" lon="6.82544">
        <ele>671</ele>
        <time>2012-05-03T06:01:34Z</time>
      </trkpt>
      <trkpt lat="43.68727" lon="6.82499">
        <ele>674</ele>
        <time>2012-05-03T06:01:50Z</time>
      </trkpt>
      <trkpt lat="43.68699" lon="6.82473">
        <ele>677</ele>
        <time>2012-05-03T06:02:01Z</time>
      </trkpt>
      <trkpt lat="43.68617" lon="6.82416">
        <ele>685</ele>
        <time>2012-05-03T06:02:31Z</time>
      </trkpt>
      <trkpt lat="43.68604" lon="6.82396">
        <ele>686</ele>
        <time>2012-05-03T06:02:37Z</time>
      </trkpt>
      <trkpt lat="43.686" lon="6.82378">
        <ele>687</ele>
        <time>2012-05-03T06:02:41Z</time>
      </trkpt>
      <trkpt lat="43.68601" lon="6.8236">
        <ele>688</ele>
        <time>2012-05-03T06:02:45Z</time>
      </trkpt>
      <trkpt lat="43.68625" lon="6.82281">
        <ele>693</ele>
        <time>2012-05-03T06:03:05Z</time>
      </trkpt>
      <trkpt lat="43.68629" lon="6.82238">
        <ele>692</ele>
        <time>2012-05-03T06:03:09Z</time>
      </trkpt>
      <trkpt lat="43.68627" lon="6.82187">
        <ele>691</ele>
        <time>2012-05-03T06:03:14Z</time>
      </trkpt>
      <trkpt lat="43.68608" lon="6.82114">
        <ele>691</ele>
        <time>2012-05-03T06:03:21Z</time>
      </trkpt>
      <trkpt lat="43.68591" lon="6.82076">
        <ele>691</ele>
        <time>2012-05-03T06:03:25Z</time>
      </trkpt>
      <trkpt lat="43.68569" lon="6.82046">
        <ele>691</ele>
        <time>2012-05-03T06:03:30Z</time>
      </trkpt>
      <trkpt lat="43.68544" lon="6.82021">
        <ele>691</ele>
        <time>2012-05-03T06:03:34Z</time>
      </trkpt>
      <trkpt lat="43.68475" lon="6.81971">
        <ele>690</ele>
        <time>2012-05-03T06:03:44Z</time>
      </trkpt>
      <trkpt lat="43.68434" lon="6.81932">
        <ele>690</ele>
        <time>2012-05-03T06:03:51Z</time>
      </trkpt>
      <trkpt lat="43.68334" lon="6.81893">
        <ele>696</ele>
        <time>2012-05-03T06:04:19Z</time>
      </trkpt>
      <trkpt lat="43.68308" lon="6.81867">
        <ele>696</ele>
        <time>2012-05-03T06:04:25Z</time>
      </trkpt>
      <trkpt lat="43.68292" lon="6.81841">
        <ele>697</ele>
        <time>2012-05-03T06:04:30Z</time>
      </trkpt>
      <trkpt lat="43.68244" lon="6.81719">
        <ele>700</ele>
        <time>2012-05-03T06:04:50Z</time>
      </trkpt>
      <trkpt lat="43.68221" lon="6.81641">
        <ele>699</ele>
        <time>2012-05-03T06:04:58Z</time>
      </trkpt>
      <trkpt lat="43.68224" lon="6.81588">
        <ele>699</ele>
        <time>2012-05-03T06:05:03Z</time>
      </trkpt>
      <trkpt lat="43.68237" lon="6.81505">
        <ele>695</ele>
        <time>2012-05-03T06:05:11Z</time>
      </trkpt>
      <trkpt lat="43.68236" lon="6.81479">
        <ele>693</ele>
        <time>2012-05-03T06:05:14Z</time>
      </trkpt>
      <trkpt lat="43.6823" lon="6.81442">
        <ele>692</ele>
        <time>2012-05-03T06:05:17Z</time>
      </trkpt>
      <trkpt lat="43.68209" lon="6.81368">
        <ele>693</ele>
        <time>2012-05-03T06:05:28Z</time>
      </trkpt>
      <trkpt lat="43.68188" lon="6.81315">
        <ele>694</ele>
        <time>2012-05-03T06:05:36Z</time>
      </trkpt>
      <trkpt lat="43.68136" lon="6.81231">
        <ele>694</ele>
        <time>2012-05-03T06:05:46Z</time>
      </trkpt>
      <trkpt lat="43.68108" lon="6.81171">
        <ele>694</ele>
        <time>2012-05-03T06:05:53Z</time>
      </trkpt>
      <trkpt lat="43.68076" lon="6.81132">
        <ele>693</ele>
        <time>2012-05-03T06:05:59Z</time>
      </trkpt>
      <trkpt lat="43.68076" lon="6.81132">
        <ele>693</ele>
        <time>2012-05-03T06:06:00Z</time>
      </trkpt>
      <trkpt lat="43.68054" lon="6.8111">
        <ele>691</ele>
        <time>2012-05-03T06:06:04Z</time>
      </trkpt>
      <trkpt lat="43.68026" lon="6.81061">
        <ele>689</ele>
        <time>2012-05-03T06:06:10Z</time>
      </trkpt>
      <trkpt lat="43.68019" lon="6.8103">
        <ele>689</ele>
        <time>2012-05-03T06:06:13Z</time>
      </trkpt>
      <trkpt lat="43.68017" lon="6.80992">
        <ele>687</ele>
        <time>2012-05-03T06:06:16Z</time>
      </trkpt>
      <trkpt lat="43.68035" lon="6.807">
        <ele>679</ele>
        <time>2012-05-03T06:06:45Z</time>
      </trkpt>
      <trkpt lat="43.68051" lon="6.80606">
        <ele>672</ele>
        <time>2012-05-03T06:06:54Z</time>
      </trkpt>
      <trkpt lat="43.68069" lon="6.80547">
        <ele>669</ele>
        <time>2012-05-03T06:07:00Z</time>
      </trkpt>
      <trkpt lat="43.68065" lon="6.8054">
        <ele>669</ele>
        <time>2012-05-03T06:07:01Z</time>
      </trkpt>
      <trkpt lat="43.68058" lon="6.80539">
        <ele>669</ele>
        <time>2012-05-03T06:07:02Z</time>
      </trkpt>
      <trkpt lat="43.68049" lon="6.80548">
        <ele>669</ele>
        <time>2012-05-03T06:07:04Z</time>
      </trkpt>
      <trkpt lat="43.68029" lon="6.80584">
        <ele>669</ele>
        <time>2012-05-03T06:07:09Z</time>
      </trkpt>
      <trkpt lat="43.68012" lon="6.80599">
        <ele>669</ele>
        <time>2012-05-03T06:07:12Z</time>
      </trkpt>
      <trkpt lat="43.67998" lon="6.80601">
        <ele>669</ele>
        <time>2012-05-03T06:07:14Z</time>
      </trkpt>
      <trkpt lat="43.67981" lon="6.80592">
        <ele>670</ele>
        <time>2012-05-03T06:07:17Z</time>
      </trkpt>
      <trkpt lat="43.67895" lon="6.80496">
        <ele>659</ele>
        <time>2012-05-03T06:07:32Z</time>
      </trkpt>
      <trkpt lat="43.67877" lon="6.80484">
        <ele>655</ele>
        <time>2012-05-03T06:07:35Z</time>
      </trkpt>
      <trkpt lat="43.67864" lon="6.80484">
        <ele>654</ele>
        <time>2012-05-03T06:07:36Z</time>
      </trkpt>
      <trkpt lat="43.67757" lon="6.80556">
        <ele>636</ele>
        <time>2012-05-03T06:07:52Z</time>
      </trkpt>
      <trkpt lat="43.67741" lon="6.80574">
        <ele>633</ele>
        <time>2012-05-03T06:07:55Z</time>
      </trkpt>
      <trkpt lat="43.67726" lon="6.80603">
        <ele>631</ele>
        <time>2012-05-03T06:07:59Z</time>
      </trkpt>
      <trkpt lat="43.67703" lon="6.80654">
        <ele>626</ele>
        <time>2012-05-03T06:08:04Z</time>
      </trkpt>
      <trkpt lat="43.67693" lon="6.80687">
        <ele>624</ele>
        <time>2012-05-03T06:08:08Z</time>
      </trkpt>
      <trkpt lat="43.67687" lon="6.80727">
        <ele>624</ele>
        <time>2012-05-03T06:08:14Z</time>
      </trkpt>
      <trkpt lat="43.67682" lon="6.80844">
        <ele>627</ele>
        <time>2012-05-03T06:08:30Z</time>
      </trkpt>
      <trkpt lat="43.67676" lon="6.80866">
        <ele>624</ele>
        <time>2012-05-03T06:08:33Z</time>
      </trkpt>
      <trkpt lat="43.67627" lon="6.80949">
        <ele>614</ele>
        <time>2012-05-03T06:08:43Z</time>
      </trkpt>
      <trkpt lat="43.67552" lon="6.81123">
        <ele>597</ele>
        <time>2012-05-03T06:09:02Z</time>
      </trkpt>
      <trkpt lat="43.67517" lon="6.81247">
        <ele>595</ele>
        <time>2012-05-03T06:09:15Z</time>
      </trkpt>
      <trkpt lat="43.67508" lon="6.81258">
        <ele>594</ele>
        <time>2012-05-03T06:09:17Z</time>
      </trkpt>
      <trkpt lat="43.675" lon="6.81254">
        <ele>593</ele>
        <time>2012-05-03T06:09:18Z</time>
      </trkpt>
      <trkpt lat="43.67496" lon="6.81243">
        <ele>592</ele>
        <time>2012-05-03T06:09:19Z</time>
      </trkpt>
      <trkpt lat="43.67504" lon="6.81188">
        <ele>589</ele>
        <time>2012-05-03T06:09:25Z</time>
      </trkpt>
      <trkpt lat="43.67503" lon="6.81154">
        <ele>587</ele>
        <time>2012-05-03T06:09:28Z</time>
      </trkpt>
      <trkpt lat="43.67471" lon="6.80931">
        <ele>575</ele>
        <time>2012-05-03T06:09:50Z</time>
      </trkpt>
      <trkpt lat="43.67441" lon="6.80818">
        <ele>568</ele>
        <time>2012-05-03T06:10:02Z</time>
      </trkpt>
      <trkpt lat="43.67432" lon="6.80744">
        <ele>565</ele>
        <time>2012-05-03T06:10:09Z</time>
      </trkpt>
      <trkpt lat="43.67432" lon="6.80687">
        <ele>563</ele>
        <time>2012-05-03T06:10:14Z</time>
      </trkpt>
      <trkpt lat="43.67448" lon="6.80449">
        <ele>557</ele>
        <time>2012-05-03T06:10:37Z</time>
      </trkpt>
      <trkpt lat="43.67471" lon="6.80367">
        <ele>557</ele>
        <time>2012-05-03T06:10:48Z</time>
      </trkpt>
      <trkpt lat="43.67515" lon="6.80277">
        <ele>559</ele>
        <time>2012-05-03T06:11:01Z</time>
      </trkpt>
      <trkpt lat="43.67524" lon="6.80242">
        <ele>557</ele>
        <time>2012-05-03T06:11:05Z</time>
      </trkpt>
      <trkpt lat="43.67547" lon="6.79911">
        <ele>543</ele>
        <time>2012-05-03T06:11:37Z</time>
      </trkpt>
      <trkpt lat="43.67547" lon="6.79869">
        <ele>540</ele>
        <time>2012-05-03T06:11:41Z</time>
      </trkpt>
      <trkpt lat="43.67537" lon="6.79833">
        <ele>537</ele>
        <time>2012-05-03T06:11:45Z</time>
      </trkpt>
      <trkpt lat="43.67521" lon="6.79813">
        <ele>535</ele>
        <time>2012-05-03T06:11:48Z</time>
      </trkpt>
      <trkpt lat="43.67397" lon="6.79739">
        <ele>524</ele>
        <time>2012-05-03T06:12:06Z</time>
      </trkpt>
      <trkpt lat="43.67289" lon="6.79718">
        <ele>516</ele>
        <time>2012-05-03T06:12:20Z</time>
      </trkpt>
      <trkpt lat="43.67092" lon="6.79738">
        <ele>502</ele>
        <time>2012-05-03T06:12:47Z</time>
      </trkpt>
      <trkpt lat="43.67012" lon="6.7978">
        <ele>499</ele>
        <time>2012-05-03T06:12:58Z</time>
      </trkpt>
      <trkpt lat="43.66975" lon="6.7978">
        <ele>499</ele>
        <time>2012-05-03T06:13:03Z</time>
      </trkpt>
      <trkpt lat="43.66939" lon="6.79762">
        <ele>498</ele>
        <time>2012-05-03T06:13:08Z</time>
      </trkpt>
      <trkpt lat="43.66843" lon="6.79682">
        <ele>497</ele>
        <time>2012-05-03T06:13:23Z</time>
      </trkpt>
      <trkpt lat="43.66745" lon="6.79655">
        <ele>496</ele>
        <time>2012-05-03T06:13:36Z</time>
      </trkpt>
      <trkpt lat="43.66551" lon="6.7956">
        <ele>483</ele>
        <time>2012-05-03T06:14:04Z</time>
      </trkpt>
      <trkpt lat="43.66427" lon="6.7951">
        <ele>476</ele>
        <time>2012-05-03T06:14:21Z</time>
      </trkpt>
      <trkpt lat="43.66396" lon="6.79495">
        <ele>475</ele>
        <time>2012-05-03T06:14:26Z</time>
      </trkpt>
      <trkpt lat="43.66343" lon="6.7945">
        <ele>474</ele>
        <time>2012-05-03T06:14:34Z</time>
      </trkpt>
      <trkpt lat="43.66267" lon="6.79414">
        <ele>470</ele>
        <time>2012-05-03T06:14:45Z</time>
      </trkpt>
      <trkpt lat="43.66218" lon="6.79403">
        <ele>469</ele>
        <time>2012-05-03T06:14:51Z</time>
      </trkpt>
      <trkpt lat="43.66087" lon="6.79386">
        <ele>465</ele>
        <time>2012-05-03T06:15:09Z</time>
      </trkpt>
      <trkpt lat="43.66019" lon="6.79341">
        <ele>462</ele>
        <time>2012-05-03T06:15:19Z</time>
      </trkpt>
      <trkpt lat="43.65938" lon="6.79321">
        <ele>460</ele>
        <time>2012-05-03T06:15:30Z</time>
      </trkpt>
      <trkpt lat="43.65881" lon="6.793">
        <ele>459</ele>
        <time>2012-05-03T06:15:38Z</time>
      </trkpt>
      <trkpt lat="43.65856" lon="6.79312">
        <ele>458</ele>
        <time>2012-05-03T06:15:41Z</time>
      </trkpt>
      <trkpt lat="43.65797" lon="6.79383">
        <ele>458</ele>
        <time>2012-05-03T06:15:52Z</time>
      </trkpt>
      <trkpt lat="43.65782" lon="6.79395">
        <ele>457</ele>
        <time>2012-05-03T06:15:54Z</time>
      </trkpt>
      <trkpt lat="43.65746" lon="6.79403">
        <ele>456</ele>
        <time>2012-05-03T06:15:59Z</time>
      </trkpt>
      <trkpt lat="43.65726" lon="6.7939">
        <ele>455</ele>
        <time>2012-05-03T06:16:02Z</time>
      </trkpt>
      <trkpt lat="43.65668" lon="6.79337">
        <ele>454</ele>
        <time>2012-05-03T06:16:11Z</time>
      </trkpt>
      <trkpt lat="43.65626" lon="6.79267">
        <ele>452</ele>
        <time>2012-05-03T06:16:20Z</time>
      </trkpt>
      <trkpt lat="43.65588" lon="6.79231">
        <ele>451</ele>
        <time>2012-05-03T06:16:26Z</time>
      </trkpt>
      <trkpt lat="43.65513" lon="6.79202">
        <ele>446</ele>
        <time>2012-05-03T06:16:37Z</time>
      </trkpt>
      <trkpt lat="43.65255" lon="6.79125">
        <ele>430</ele>
        <time>2012-05-03T06:17:12Z</time>
      </trkpt>
      <trkpt lat="43.65218" lon="6.79125">
        <ele>430</ele>
        <time>2012-05-03T06:17:19Z</time>
      </trkpt>
      <trkpt lat="43.6513" lon="6.79144">
        <ele>433</ele>
        <time>2012-05-03T06:17:36Z</time>
      </trkpt>
      <trkpt lat="43.65055" lon="6.79285">
        <ele>453</ele>
        <time>2012-05-03T06:18:41Z</time>
      </trkpt>
      <trkpt lat="43.65045" lon="6.79295">
        <ele>451</ele>
        <time>2012-05-03T06:18:42Z</time>
      </trkpt>
      <trkpt lat="43.65029" lon="6.79301">
        <ele>449</ele>
        <time>2012-05-03T06:18:45Z</time>
      </trkpt>
      <trkpt lat="43.65014" lon="6.793">
        <ele>447</ele>
        <time>2012-05-03T06:18:47Z</time>
      </trkpt>
      <trkpt lat="43.64984" lon="6.79273">
        <ele>443</ele>
        <time>2012-05-03T06:18:51Z</time>
      </trkpt>
      <trkpt lat="43.64977" lon="6.79259">
        <ele>442</ele>
        <time>2012-05-03T06:18:53Z</time>
      </trkpt>
      <trkpt lat="43.64959" lon="6.79245">
        <ele>440</ele>
        <time>2012-05-03T06:18:56Z</time>
      </trkpt>
      <trkpt lat="43.64951" lon="6.79246">
        <ele>440</ele>
        <time>2012-05-03T06:18:58Z</time>
      </trkpt>
      <trkpt lat="43.64944" lon="6.79254">
        <ele>441</ele>
        <time>2012-05-03T06:19:01Z</time>
      </trkpt>
      <trkpt lat="43.6492" lon="6.7931">
        <ele>444</ele>
        <time>2012-05-03T06:19:16Z</time>
      </trkpt>
      <trkpt lat="43.6485" lon="6.79388">
        <ele>452</ele>
        <time>2012-05-03T06:19:45Z</time>
      </trkpt>
      <trkpt lat="43.64797" lon="6.79431">
        <ele>454</ele>
        <time>2012-05-03T06:19:59Z</time>
      </trkpt>
      <trkpt lat="43.64795" lon="6.79437">
        <ele>454</ele>
        <time>2012-05-03T06:20:00Z</time>
      </trkpt>
      <trkpt lat="43.64939" lon="6.79517">
        <ele>460</ele>
        <time>2012-05-03T06:20:34Z</time>
      </trkpt>
      <trkpt lat="43.64884" lon="6.79758">
        <ele>459</ele>
        <time>2012-05-03T06:20:58Z</time>
      </trkpt>
      <trkpt lat="43.64881" lon="6.79893">
        <ele>456</ele>
        <time>2012-05-03T06:21:11Z</time>
      </trkpt>
      <trkpt lat="43.64831" lon="6.80011">
        <ele>457</ele>
        <time>2012-05-03T06:21:27Z</time>
      </trkpt>
      <trkpt lat="43.64798" lon="6.80075">
        <ele>456</ele>
        <time>2012-05-03T06:21:35Z</time>
      </trkpt>
      <trkpt lat="43.64766" lon="6.80117">
        <ele>456</ele>
        <time>2012-05-03T06:21:41Z</time>
      </trkpt>
      <trkpt lat="43.64736" lon="6.80142">
        <ele>455</ele>
        <time>2012-05-03T06:21:45Z</time>
      </trkpt>
      <trkpt lat="43.64728" lon="6.80154">
        <ele>455</ele>
        <time>2012-05-03T06:21:47Z</time>
      </trkpt>
      <trkpt lat="43.6472" lon="6.80173">
        <ele>455</ele>
        <time>2012-05-03T06:21:49Z</time>
      </trkpt>
      <trkpt lat="43.64716" lon="6.80202">
        <ele>455</ele>
        <time>2012-05-03T06:21:52Z</time>
      </trkpt>
      <trkpt lat="43.64738" lon="6.80348">
        <ele>455</ele>
        <time>2012-05-03T06:22:06Z</time>
      </trkpt>
      <trkpt lat="43.64754" lon="6.80391">
        <ele>455</ele>
        <time>2012-05-03T06:22:12Z</time>
      </trkpt>
      <trkpt lat="43.64769" lon="6.80423">
        <ele>455</ele>
        <time>2012-05-03T06:22:17Z</time>
      </trkpt>
      <trkpt lat="43.64947" lon="6.80733">
        <ele>460</ele>
        <time>2012-05-03T06:23:05Z</time>
      </trkpt>
      <trkpt lat="43.64992" lon="6.80828">
        <ele>459</ele>
        <time>2012-05-03T06:23:16Z</time>
      </trkpt>
      <trkpt lat="43.65006" lon="6.80872">
        <ele>459</ele>
        <time>2012-05-03T06:23:20Z</time>
      </trkpt>
      <trkpt lat="43.65018" lon="6.80943">
        <ele>459</ele>
        <time>2012-05-03T06:23:28Z</time>
      </trkpt>
      <trkpt lat="43.65026" lon="6.81044">
        <ele>460</ele>
        <time>2012-05-03T06:23:40Z</time>
      </trkpt>
      <trkpt lat="43.65049" lon="6.81197">
        <ele>460</ele>
        <time>2012-05-03T06:23:55Z</time>
      </trkpt>
      <trkpt lat="43.65034" lon="6.81373">
        <ele>463</ele>
        <time>2012-05-03T06:24:19Z</time>
      </trkpt>
      <trkpt lat="43.65038" lon="6.81446">
        <ele>462</ele>
        <time>2012-05-03T06:24:26Z</time>
      </trkpt>
      <trkpt lat="43.65036" lon="6.81477">
        <ele>462</ele>
        <time>2012-05-03T06:24:29Z</time>
      </trkpt>
      <trkpt lat="43.65017" lon="6.81636">
        <ele>462</ele>
        <time>2012-05-03T06:24:45Z</time>
      </trkpt>
      <trkpt lat="43.64993" lon="6.81727">
        <ele>459</ele>
        <time>2012-05-03T06:24:54Z</time>
      </trkpt>
      <trkpt lat="43.64853" lon="6.82112">
        <ele>450</ele>
        <time>2012-05-03T06:25:36Z</time>
      </trkpt>
      <trkpt lat="43.64761" lon="6.82349">
        <ele>441</ele>
        <time>2012-05-03T06:26:02Z</time>
      </trkpt>
      <trkpt lat="43.64734" lon="6.82382">
        <ele>439</ele>
        <time>2012-05-03T06:26:07Z</time>
      </trkpt>
      <trkpt lat="43.64596" lon="6.82474">
        <ele>431</ele>
        <time>2012-05-03T06:26:27Z</time>
      </trkpt>
      <trkpt lat="43.64544" lon="6.82521">
        <ele>431</ele>
        <time>2012-05-03T06:26:36Z</time>
      </trkpt>
      <trkpt lat="43.64416" lon="6.82713">
        <ele>432</ele>
        <time>2012-05-03T06:27:03Z</time>
      </trkpt>
      <trkpt lat="43.6436" lon="6.8276">
        <ele>430</ele>
        <time>2012-05-03T06:27:12Z</time>
      </trkpt>
      <trkpt lat="43.64351" lon="6.82708">
        <ele>429</ele>
        <time>2012-05-03T06:27:17Z</time>
      </trkpt>
      <trkpt lat="43.64351" lon="6.82708">
        <ele>429</ele>
        <time>2012-05-03T06:27:18Z</time>
      </trkpt>
      <trkpt lat="43.6436" lon="6.8276">
        <ele>429</ele>
        <time>2012-05-03T06:27:24Z</time>
      </trkpt>
      <trkpt lat="43.64175" lon="6.82906">
        <ele>432</ele>
        <time>2012-05-03T06:27:59Z</time>
      </trkpt>
      <trkpt lat="43.64147" lon="6.8292">
        <ele>430</ele>
        <time>2012-05-03T06:28:03Z</time>
      </trkpt>
      <trkpt lat="43.64125" lon="6.82921">
        <ele>429</ele>
        <time>2012-05-03T06:28:06Z</time>
      </trkpt>
      <trkpt lat="43.64063" lon="6.82912">
        <ele>426</ele>
        <time>2012-05-03T06:28:14Z</time>
      </trkpt>
      <trkpt lat="43.64034" lon="6.82901">
        <ele>425</ele>
        <time>2012-05-03T06:28:18Z</time>
      </trkpt>
      <trkpt lat="43.6401" lon="6.82881">
        <ele>424</ele>
        <time>2012-05-03T06:28:22Z</time>
      </trkpt>
      <trkpt lat="43.63981" lon="6.82837">
        <ele>424</ele>
        <time>2012-05-03T06:28:28Z</time>
      </trkpt>
      <trkpt lat="43.63934" lon="6.82785">
        <ele>422</ele>
        <time>2012-05-03T06:28:36Z</time>
      </trkpt>
      <trkpt lat="43.63876" lon="6.82744">
        <ele>420</ele>
        <time>2012-05-03T06:28:44Z</time>
      </trkpt>
      <trkpt lat="43.63821" lon="6.82734">
        <ele>418</ele>
        <time>2012-05-03T06:28:52Z</time>
      </trkpt>
      <trkpt lat="43.63798" lon="6.82736">
        <ele>417</ele>
        <time>2012-05-03T06:28:55Z</time>
      </trkpt>
      <trkpt lat="43.63724" lon="6.8275">
        <ele>416</ele>
        <time>2012-05-03T06:29:05Z</time>
      </trkpt>
      <trkpt lat="43.63676" lon="6.82772">
        <ele>412</ele>
        <time>2012-05-03T06:29:11Z</time>
      </trkpt>
      <trkpt lat="43.63635" lon="6.82796">
        <ele>409</ele>
        <time>2012-05-03T06:29:17Z</time>
      </trkpt>
      <trkpt lat="43.63612" lon="6.82815">
        <ele>408</ele>
        <time>2012-05-03T06:29:21Z</time>
      </trkpt>
      <trkpt lat="43.63596" lon="6.82838">
        <ele>408</ele>
        <time>2012-05-03T06:29:24Z</time>
      </trkpt>
      <trkpt lat="43.63534" lon="6.82996">
        <ele>407</ele>
        <time>2012-05-03T06:29:41Z</time>
      </trkpt>
      <trkpt lat="43.63516" lon="6.8306">
        <ele>405</ele>
        <time>2012-05-03T06:29:48Z</time>
      </trkpt>
      <trkpt lat="43.635" lon="6.83098">
        <ele>403</ele>
        <time>2012-05-03T06:29:52Z</time>
      </trkpt>
      <trkpt lat="43.63445" lon="6.83201">
        <ele>400</ele>
        <time>2012-05-03T06:30:05Z</time>
      </trkpt>
      <trkpt lat="43.63435" lon="6.83242">
        <ele>398</ele>
        <time>2012-05-03T06:30:09Z</time>
      </trkpt>
      <trkpt lat="43.63434" lon="6.83286">
        <ele>396</ele>
        <time>2012-05-03T06:30:13Z</time>
      </trkpt>
      <trkpt lat="43.63441" lon="6.83312">
        <ele>395</ele>
        <time>2012-05-03T06:30:16Z</time>
      </trkpt>
      <trkpt lat="43.63454" lon="6.83339">
        <ele>394</ele>
        <time>2012-05-03T06:30:19Z</time>
      </trkpt>
      <trkpt lat="43.63536" lon="6.83434">
        <ele>402</ele>
        <time>2012-05-03T06:30:53Z</time>
      </trkpt>
      <trkpt lat="43.63553" lon="6.8351">
        <ele>394</ele>
        <time>2012-05-03T06:31:00Z</time>
      </trkpt>
      <trkpt lat="43.63556" lon="6.83539">
        <ele>391</ele>
        <time>2012-05-03T06:31:03Z</time>
      </trkpt>
      <trkpt lat="43.63571" lon="6.83573">
        <ele>388</ele>
        <time>2012-05-03T06:31:07Z</time>
      </trkpt>
      <trkpt lat="43.63726" lon="6.8369">
        <ele>425</ele>
        <time>2012-05-03T06:32:59Z</time>
      </trkpt>
      <trkpt lat="43.63747" lon="6.83719">
        <ele>420</ele>
        <time>2012-05-03T06:33:03Z</time>
      </trkpt>
      <trkpt lat="43.63759" lon="6.83747">
        <ele>417</ele>
        <time>2012-05-03T06:33:06Z</time>
      </trkpt>
      <trkpt lat="43.63778" lon="6.83829">
        <ele>409</ele>
        <time>2012-05-03T06:33:15Z</time>
      </trkpt>
      <trkpt lat="43.63816" lon="6.83943">
        <ele>397</ele>
        <time>2012-05-03T06:33:27Z</time>
      </trkpt>
      <trkpt lat="43.63831" lon="6.84025">
        <ele>389</ele>
        <time>2012-05-03T06:33:35Z</time>
      </trkpt>
      <trkpt lat="43.63869" lon="6.84143">
        <ele>379</ele>
        <time>2012-05-03T06:33:48Z</time>
      </trkpt>
      <trkpt lat="43.6388" lon="6.842">
        <ele>375</ele>
        <time>2012-05-03T06:33:53Z</time>
      </trkpt>
      <trkpt lat="43.63889" lon="6.84291">
        <ele>369</ele>
        <time>2012-05-03T06:34:02Z</time>
      </trkpt>
      <trkpt lat="43.63896" lon="6.84309">
        <ele>369</ele>
        <time>2012-05-03T06:34:05Z</time>
      </trkpt>
      <trkpt lat="43.63929" lon="6.84358">
        <ele>370</ele>
        <time>2012-05-03T06:34:14Z</time>
      </trkpt>
      <trkpt lat="43.63946" lon="6.84445">
        <ele>372</ele>
        <time>2012-05-03T06:34:26Z</time>
      </trkpt>
      <trkpt lat="43.63986" lon="6.84517">
        <ele>369</ele>
        <time>2012-05-03T06:34:35Z</time>
      </trkpt>
      <trkpt lat="43.63973" lon="6.84602">
        <ele>367</ele>
        <time>2012-05-03T06:34:44Z</time>
      </trkpt>
      <trkpt lat="43.63981" lon="6.84627">
        <ele>369</ele>
        <time>2012-05-03T06:34:52Z</time>
      </trkpt>
      <trkpt lat="43.64007" lon="6.84649">
        <ele>372</ele>
        <time>2012-05-03T06:35:04Z</time>
      </trkpt>
      <trkpt lat="43.64125" lon="6.84694">
        <ele>387</ele>
        <time>2012-05-03T06:35:55Z</time>
      </trkpt>
      <trkpt lat="43.64156" lon="6.84714">
        <ele>385</ele>
        <time>2012-05-03T06:35:59Z</time>
      </trkpt>
      <trkpt lat="43.64172" lon="6.84735">
        <ele>383</ele>
        <time>2012-05-03T06:36:02Z</time>
      </trkpt>
      <trkpt lat="43.64199" lon="6.84796">
        <ele>381</ele>
        <time>2012-05-03T06:36:09Z</time>
      </trkpt>
      <trkpt lat="43.64215" lon="6.84906">
        <ele>364</ele>
        <time>2012-05-03T06:36:20Z</time>
      </trkpt>
      <trkpt lat="43.64232" lon="6.84955">
        <ele>357</ele>
        <time>2012-05-03T06:36:25Z</time>
      </trkpt>
      <trkpt lat="43.64247" lon="6.84974">
        <ele>357</ele>
        <time>2012-05-03T06:36:28Z</time>
      </trkpt>
      <trkpt lat="43.64282" lon="6.85004">
        <ele>357</ele>
        <time>2012-05-03T06:36:35Z</time>
      </trkpt>
      <trkpt lat="43.64311" lon="6.8505">
        <ele>358</ele>
        <time>2012-05-03T06:36:42Z</time>
      </trkpt>
      <trkpt lat="43.64413" lon="6.85126">
        <ele>373</ele>
        <time>2012-05-03T06:37:33Z</time>
      </trkpt>
      <trkpt lat="43.64458" lon="6.85181">
        <ele>370</ele>
        <time>2012-05-03T06:37:41Z</time>
      </trkpt>
      <trkpt lat="43.64468" lon="6.852">
        <ele>370</ele>
        <time>2012-05-03T06:37:44Z</time>
      </trkpt>
      <trkpt lat="43.64485" lon="6.85253">
        <ele>369</ele>
        <time>2012-05-03T06:37:49Z</time>
      </trkpt>
      <trkpt lat="43.6453" lon="6.85332">
        <ele>365</ele>
        <time>2012-05-03T06:37:59Z</time>
      </trkpt>
      <trkpt lat="43.64547" lon="6.85354">
        <ele>365</ele>
        <time>2012-05-03T06:38:02Z</time>
      </trkpt>
      <trkpt lat="43.64599" lon="6.85402">
        <ele>361</ele>
        <time>2012-05-03T06:38:10Z</time>
      </trkpt>
      <trkpt lat="43.64609" lon="6.8542">
        <ele>361</ele>
        <time>2012-05-03T06:38:12Z</time>
      </trkpt>
      <trkpt lat="43.64611" lon="6.85435">
        <ele>360</ele>
        <time>2012-05-03T06:38:14Z</time>
      </trkpt>
      <trkpt lat="43.64606" lon="6.85449">
        <ele>360</ele>
        <time>2012-05-03T06:38:15Z</time>
      </trkpt>
      <trkpt lat="43.64606" lon="6.85487">
        <ele>359</ele>
        <time>2012-05-03T06:38:19Z</time>
      </trkpt>
      <trkpt lat="43.64618" lon="6.85514">
        <ele>358</ele>
        <time>2012-05-03T06:38:22Z</time>
      </trkpt>
      <trkpt lat="43.64686" lon="6.85629">
        <ele>356</ele>
        <time>2012-05-03T06:38:37Z</time>
      </trkpt>
      <trkpt lat="43.64732" lon="6.85722">
        <ele>355</ele>
        <time>2012-05-03T06:38:47Z</time>
      </trkpt>
      <trkpt lat="43.64746" lon="6.85789">
        <ele>355</ele>
        <time>2012-05-03T06:38:54Z</time>
      </trkpt>
      <trkpt lat="43.64741" lon="6.85791">
        <ele>354</ele>
        <time>2012-05-03T06:38:55Z</time>
      </trkpt>
      <trkpt lat="43.64718" lon="6.85749">
        <ele>352</ele>
        <time>2012-05-03T06:39:00Z</time>
      </trkpt>
      <trkpt lat="43.6469" lon="6.85727">
        <ele>350</ele>
        <time>2012-05-03T06:39:04Z</time>
      </trkpt>
      <trkpt lat="43.64662" lon="6.85668">
        <ele>347</ele>
        <time>2012-05-03T06:39:11Z</time>
      </trkpt>
      <trkpt lat="43.64586" lon="6.85611">
        <ele>338</ele>
        <time>2012-05-03T06:39:23Z</time>
      </trkpt>
      <trkpt lat="43.64553" lon="6.85573">
        <ele>335</ele>
        <time>2012-05-03T06:39:28Z</time>
      </trkpt>
      <trkpt lat="43.64532" lon="6.85538">
        <ele>333</ele>
        <time>2012-05-03T06:39:33Z</time>
      </trkpt>
      <trkpt lat="43.64506" lon="6.8548">
        <ele>331</ele>
        <time>2012-05-03T06:39:39Z</time>
      </trkpt>
      <trkpt lat="43.64446" lon="6.85449">
        <ele>329</ele>
        <time>2012-05-03T06:39:48Z</time>
      </trkpt>
      <trkpt lat="43.64431" lon="6.85433">
        <ele>327</ele>
        <time>2012-05-03T06:39:50Z</time>
      </trkpt>
      <trkpt lat="43.64418" lon="6.85408">
        <ele>325</ele>
        <time>2012-05-03T06:39:53Z</time>
      </trkpt>
      <trkpt lat="43.64405" lon="6.854">
        <ele>323</ele>
        <time>2012-05-03T06:39:55Z</time>
      </trkpt>
      <trkpt lat="43.64368" lon="6.85407">
        <ele>320</ele>
        <time>2012-05-03T06:40:00Z</time>
      </trkpt>
      <trkpt lat="43.64318" lon="6.8538">
        <ele>315</ele>
        <time>2012-05-03T06:40:08Z</time>
      </trkpt>
      <trkpt lat="43.64272" lon="6.85344">
        <ele>308</ele>
        <time>2012-05-03T06:40:15Z</time>
      </trkpt>
      <trkpt lat="43.64253" lon="6.85317">
        <ele>305</ele>
        <time>2012-05-03T06:40:18Z</time>
      </trkpt>
      <trkpt lat="43.64249" lon="6.85315">
        <ele>304</ele>
        <time>2012-05-03T06:40:19Z</time>
      </trkpt>
      <trkpt lat="43.64239" lon="6.85322">
        <ele>303</ele>
        <time>2012-05-03T06:40:20Z</time>
      </trkpt>
      <trkpt lat="43.64194" lon="6.85401">
        <ele>295</ele>
        <time>2012-05-03T06:40:30Z</time>
      </trkpt>
      <trkpt lat="43.6417" lon="6.85417">
        <ele>292</ele>
        <time>2012-05-03T06:40:34Z</time>
      </trkpt>
      <trkpt lat="43.64127" lon="6.8543">
        <ele>287</ele>
        <time>2012-05-03T06:40:39Z</time>
      </trkpt>
      <trkpt lat="43.64106" lon="6.85413">
        <ele>284</ele>
        <time>2012-05-03T06:40:43Z</time>
      </trkpt>
      <trkpt lat="43.64078" lon="6.85366">
        <ele>280</ele>
        <time>2012-05-03T06:40:49Z</time>
      </trkpt>
      <trkpt lat="43.6407" lon="6.8532">
        <ele>279</ele>
        <time>2012-05-03T06:40:53Z</time>
      </trkpt>
      <trkpt lat="43.64062" lon="6.85305">
        <ele>278</ele>
        <time>2012-05-03T06:40:55Z</time>
      </trkpt>
      <trkpt lat="43.64051" lon="6.85298">
        <ele>278</ele>
        <time>2012-05-03T06:40:57Z</time>
      </trkpt>
      <trkpt lat="43.64009" lon="6.85295">
        <ele>277</ele>
        <time>2012-05-03T06:41:02Z</time>
      </trkpt>
      <trkpt lat="43.63999" lon="6.85289">
        <ele>277</ele>
        <time>2012-05-03T06:41:04Z</time>
      </trkpt>
      <trkpt lat="43.63975" lon="6.85256">
        <ele>276</ele>
        <time>2012-05-03T06:41:08Z</time>
      </trkpt>
      <trkpt lat="43.63965" lon="6.85251">
        <ele>275</ele>
        <time>2012-05-03T06:41:10Z</time>
      </trkpt>
      <trkpt lat="43.63942" lon="6.85259">
        <ele>275</ele>
        <time>2012-05-03T06:41:13Z</time>
      </trkpt>
      <trkpt lat="43.63909" lon="6.85333">
        <ele>274</ele>
        <time>2012-05-03T06:41:21Z</time>
      </trkpt>
      <trkpt lat="43.63883" lon="6.85451">
        <ele>264</ele>
        <time>2012-05-03T06:41:33Z</time>
      </trkpt>
      <trkpt lat="43.63853" lon="6.85516">
        <ele>259</ele>
        <time>2012-05-03T06:41:41Z</time>
      </trkpt>
      <trkpt lat="43.63716" lon="6.85705">
        <ele>246</ele>
        <time>2012-05-03T06:42:06Z</time>
      </trkpt>
      <trkpt lat="43.63618" lon="6.85812">
        <ele>237</ele>
        <time>2012-05-03T06:42:23Z</time>
      </trkpt>
      <trkpt lat="43.63597" lon="6.85816">
        <ele>237</ele>
        <time>2012-05-03T06:42:26Z</time>
      </trkpt>
      <trkpt lat="43.63589" lon="6.85808">
        <ele>237</ele>
        <time>2012-05-03T06:42:28Z</time>
      </trkpt>
      <trkpt lat="43.63557" lon="6.85726">
        <ele>237</ele>
        <time>2012-05-03T06:42:38Z</time>
      </trkpt>
      <trkpt lat="43.63515" lon="6.85564">
        <ele>239</ele>
        <time>2012-05-03T06:42:58Z</time>
      </trkpt>
      <trkpt lat="43.63501" lon="6.85565">
        <ele>238</ele>
        <time>2012-05-03T06:43:00Z</time>
      </trkpt>
      <trkpt lat="43.63483" lon="6.85539">
        <ele>238</ele>
        <time>2012-05-03T06:43:03Z</time>
      </trkpt>
      <trkpt lat="43.63471" lon="6.85529">
        <ele>238</ele>
        <time>2012-05-03T06:43:05Z</time>
      </trkpt>
    </trkseg>
  </trk>
</gpx>